<?xml version="1.0" encoding="UTF-8" ?>
<gpx version="1.1" creator="CartoExploreur 3 3.24" xmlns:xsi="http://www.w3.org/2001/XMLSchema-instance" xmlns="http://www.topografix.com/GPX/1/1" xsi:schemaLocation="http://www.topografix.com/GPX/1/1 http://www.topografix.com/GPX/1/1/gpx.xsd">
    <metadata>
        <time>2017-12-05T12:14:25Z</time>
        <bounds maxlat="47.321300693" maxlon="4.935902618" minlat="47.251508612" minlon="4.811402477" />
    </metadata>
    <trk>
        <name>Parcours Jean Sage</name>
        <trkseg>
            <trkpt lat="47.318160078" lon="4.919645330">
                <ele>274.128906</ele>
                <time>2015-05-25T06:52:26Z</time>
            </trkpt>
            <trkpt lat="47.318161677" lon="4.919830418">
                <ele>274.515350</ele>
                <time>2015-05-25T06:53:05Z</time>
            </trkpt>
            <trkpt lat="47.318184970" lon="4.920046614">
                <ele>274.638336</ele>
                <time>2015-05-25T06:53:13Z</time>
            </trkpt>
            <trkpt lat="47.318202829" lon="4.920254275">
                <ele>274.779602</ele>
                <time>2015-05-25T06:53:30Z</time>
            </trkpt>
            <trkpt lat="47.318236620" lon="4.920504067">
                <ele>274.743317</ele>
                <time>2015-05-25T06:53:46Z</time>
            </trkpt>
            <trkpt lat="47.318259357" lon="4.920745052">
                <ele>274.967438</ele>
                <time>2015-05-25T06:54:04Z</time>
            </trkpt>
            <trkpt lat="47.318282094" lon="4.920986038">
                <ele>275.055878</ele>
                <time>2015-05-25T06:54:05Z</time>
            </trkpt>
            <trkpt lat="47.318299950" lon="4.921193700">
                <ele>275.050110</ele>
                <time>2015-05-25T06:54:14Z</time>
            </trkpt>
            <trkpt lat="47.318328675" lon="4.921418432">
                <ele>274.726959</ele>
                <time>2015-05-25T06:54:32Z</time>
            </trkpt>
            <trkpt lat="47.318362094" lon="4.921684751">
                <ele>274.320862</ele>
                <time>2015-05-25T06:54:51Z</time>
            </trkpt>
            <trkpt lat="47.318395882" lon="4.921934544">
                <ele>273.838318</ele>
                <time>2015-05-25T06:55:12Z</time>
            </trkpt>
            <trkpt lat="47.318423681" lon="4.922200592">
                <ele>273.413208</ele>
            </trkpt>
            <trkpt lat="47.318452219" lon="4.922433587">
                <ele>272.908630</ele>
                <time>2015-05-25T06:55:33Z</time>
            </trkpt>
            <trkpt lat="47.318483787" lon="4.922685949">
                <ele>273.044128</ele>
                <time>2015-05-25T06:55:49Z</time>
            </trkpt>
            <trkpt lat="47.318523191" lon="4.923032604">
                <ele>272.995850</ele>
            </trkpt>
            <trkpt lat="47.318539934" lon="4.923289846">
                <ele>273.008026</ele>
                <time>2015-05-25T06:56:10Z</time>
            </trkpt>
            <trkpt lat="47.318545809" lon="4.923530018">
                <ele>273.273254</ele>
                <time>2015-05-25T06:56:25Z</time>
            </trkpt>
            <trkpt lat="47.318562736" lon="4.923778997">
                <ele>273.073364</ele>
            </trkpt>
            <trkpt lat="47.318573488" lon="4.924052494">
                <ele>272.575134</ele>
                <time>2015-05-25T06:56:44Z</time>
            </trkpt>
            <trkpt lat="47.318560654" lon="4.924374480">
                <ele>272.955933</ele>
                <time>2015-05-25T06:56:59Z</time>
            </trkpt>
            <trkpt lat="47.318553623" lon="4.924688475">
                <ele>271.505066</ele>
                <time>2015-05-25T06:57:17Z</time>
            </trkpt>
            <trkpt lat="47.318551839" lon="4.925019269">
                <ele>269.633362</ele>
                <time>2015-05-25T06:57:32Z</time>
            </trkpt>
            <trkpt lat="47.318562034" lon="4.925317555">
                <ele>266.731812</ele>
            </trkpt>
            <trkpt lat="47.318549381" lon="4.925631278">
                <ele>264.183929</ele>
            </trkpt>
            <trkpt lat="47.318554325" lon="4.925912765">
                <ele>262.832245</ele>
                <time>2015-05-25T06:57:45Z</time>
            </trkpt>
            <trkpt lat="47.318560194" lon="4.926152937">
                <ele>262.194366</ele>
                <time>2015-05-25T06:58:04Z</time>
            </trkpt>
            <trkpt lat="47.318571126" lon="4.926418171">
                <ele>261.860992</ele>
                <time>2015-05-25T06:58:21Z</time>
            </trkpt>
            <trkpt lat="47.318543464" lon="4.926648447">
                <ele>263.877197</ele>
                <time>2015-05-25T06:58:40Z</time>
            </trkpt>
            <trkpt lat="47.318438248" lon="4.926825331">
                <ele>267.447418</ele>
                <time>2015-05-25T06:58:59Z</time>
            </trkpt>
            <trkpt lat="47.318423676" lon="4.926973521">
                <ele>269.208130</ele>
                <time>2015-05-25T06:59:15Z</time>
            </trkpt>
            <trkpt lat="47.318437199" lon="4.927123072">
                <ele>269.900757</ele>
                <time>2015-05-25T06:59:32Z</time>
            </trkpt>
            <trkpt lat="47.318478076" lon="4.927307037">
                <ele>269.671265</ele>
                <time>2015-05-25T06:59:41Z</time>
            </trkpt>
            <trkpt lat="47.318536552" lon="4.927458768">
                <ele>268.547363</ele>
                <time>2015-05-25T06:59:55Z</time>
            </trkpt>
            <trkpt lat="47.318565634" lon="4.927666978">
                <ele>268.358002</ele>
                <time>2015-05-25T07:00:06Z</time>
            </trkpt>
            <trkpt lat="47.318578230" lon="4.927857845">
                <ele>269.598175</ele>
                <time>2015-05-25T07:00:16Z</time>
            </trkpt>
            <trkpt lat="47.318613488" lon="4.928041539">
                <ele>270.238403</ele>
                <time>2015-05-25T07:00:19Z</time>
            </trkpt>
            <trkpt lat="47.318653993" lon="4.928242031">
                <ele>270.761292</ele>
                <time>2015-05-25T07:00:32Z</time>
            </trkpt>
            <trkpt lat="47.318699931" lon="4.928451060">
                <ele>271.206299</ele>
                <time>2015-05-25T07:00:47Z</time>
            </trkpt>
            <trkpt lat="47.318764209" lon="4.928594802">
                <ele>270.416870</ele>
                <time>2015-05-25T07:00:51Z</time>
            </trkpt>
            <trkpt lat="47.318833921" lon="4.928747080">
                <ele>270.149384</ele>
                <time>2015-05-25T07:01:08Z</time>
            </trkpt>
            <trkpt lat="47.318869733" lon="4.928905986">
                <ele>270.578430</ele>
                <time>2015-05-25T07:01:18Z</time>
            </trkpt>
            <trkpt lat="47.318883068" lon="4.929063802">
                <ele>271.905945</ele>
                <time>2015-05-25T07:01:29Z</time>
            </trkpt>
            <trkpt lat="47.318907085" lon="4.929246952">
                <ele>275.123383</ele>
                <time>2015-05-25T07:01:36Z</time>
            </trkpt>
            <trkpt lat="47.318970991" lon="4.929407222">
                <ele>276.334503</ele>
                <time>2015-05-25T07:01:51Z</time>
            </trkpt>
            <trkpt lat="47.319057373" lon="4.929568583">
                <ele>276.575012</ele>
                <time>2015-05-25T07:02:08Z</time>
            </trkpt>
            <trkpt lat="47.319143755" lon="4.929729944">
                <ele>276.828735</ele>
                <time>2015-05-25T07:02:18Z</time>
            </trkpt>
            <trkpt lat="47.319220753" lon="4.929808129">
                <ele>276.901367</ele>
                <time>2015-05-25T07:02:23Z</time>
            </trkpt>
            <trkpt lat="47.319325660" lon="4.929895941">
                <ele>276.447998</ele>
                <time>2015-05-25T07:02:30Z</time>
            </trkpt>
            <trkpt lat="47.319420813" lon="4.929917103">
                <ele>273.788116</ele>
                <time>2015-05-25T07:02:38Z</time>
            </trkpt>
            <trkpt lat="47.319479099" lon="4.930077102">
                <ele>277.037750</ele>
                <time>2015-05-25T07:02:52Z</time>
            </trkpt>
            <trkpt lat="47.319554984" lon="4.930204867">
                <ele>278.270874</ele>
                <time>2015-05-25T07:02:59Z</time>
            </trkpt>
            <trkpt lat="47.319630683" lon="4.930340896">
                <ele>279.639374</ele>
                <time>2015-05-25T07:03:15Z</time>
            </trkpt>
            <trkpt lat="47.319729785" lon="4.930436700">
                <ele>279.775085</ele>
                <time>2015-05-25T07:03:16Z</time>
            </trkpt>
            <trkpt lat="47.319864457" lon="4.930451509">
                <ele>275.942535</ele>
                <time>2015-05-25T07:03:23Z</time>
            </trkpt>
            <trkpt lat="47.319947629" lon="4.930505179">
                <ele>275.540955</ele>
                <time>2015-05-25T07:03:32Z</time>
            </trkpt>
            <trkpt lat="47.320037163" lon="4.930526069">
                <ele>273.466095</ele>
                <time>2015-05-25T07:03:38Z</time>
            </trkpt>
            <trkpt lat="47.320107984" lon="4.930628774">
                <ele>276.163086</ele>
                <time>2015-05-25T07:03:39Z</time>
            </trkpt>
            <trkpt lat="47.320173558" lon="4.930714680">
                <ele>278.162781</ele>
                <time>2015-05-25T07:03:43Z</time>
            </trkpt>
            <trkpt lat="47.320216470" lon="4.930807758">
                <ele>280.760345</ele>
                <time>2015-05-25T07:03:57Z</time>
            </trkpt>
            <trkpt lat="47.320293467" lon="4.930885946">
                <ele>281.477936</ele>
                <time>2015-05-25T07:04:11Z</time>
            </trkpt>
            <trkpt lat="47.320330759" lon="4.930978752">
                <ele>283.653870</ele>
                <time>2015-05-25T07:04:16Z</time>
            </trkpt>
            <trkpt lat="47.320396704" lon="4.931048131">
                <ele>283.805573</ele>
                <time>2015-05-25T07:04:20Z</time>
            </trkpt>
            <trkpt lat="47.320461413" lon="4.931148402">
                <ele>285.408112</ele>
                <time>2015-05-25T07:04:32Z</time>
            </trkpt>
            <trkpt lat="47.320554461" lon="4.931287415">
                <ele>288.171631</ele>
                <time>2015-05-25T07:04:37Z</time>
            </trkpt>
            <trkpt lat="47.320603989" lon="4.931376893">
                <ele>290.173920</ele>
                <time>2015-05-25T07:04:48Z</time>
            </trkpt>
            <trkpt lat="47.320657512" lon="4.931457866">
                <ele>291.379608</ele>
                <time>2015-05-25T07:05:03Z</time>
            </trkpt>
            <trkpt lat="47.320721786" lon="4.931601617">
                <ele>294.587250</ele>
                <time>2015-05-25T07:05:04Z</time>
            </trkpt>
            <trkpt lat="47.320804402" lon="4.931680080">
                <ele>294.012177</ele>
                <time>2015-05-25T07:05:06Z</time>
            </trkpt>
            <trkpt lat="47.320880656" lon="4.931791324">
                <ele>294.510498</ele>
                <time>2015-05-25T07:05:17Z</time>
            </trkpt>
            <trkpt lat="47.320962900" lon="4.931886314">
                <ele>290.032501</ele>
                <time>2015-05-25T07:05:21Z</time>
            </trkpt>
            <trkpt lat="47.321078672" lon="4.931991205">
                <ele>283.492493</ele>
                <time>2015-05-25T07:05:36Z</time>
            </trkpt>
            <trkpt lat="47.321193572" lon="4.932059683">
                <ele>277.062500</ele>
                <time>2015-05-25T07:05:50Z</time>
            </trkpt>
            <trkpt lat="47.321300693" lon="4.932123218">
                <ele>271.125000</ele>
                <time>2015-05-25T07:05:59Z</time>
            </trkpt>
            <trkpt lat="47.321203270" lon="4.932204067">
                <ele>275.907501</ele>
                <time>2015-05-25T07:06:40Z</time>
            </trkpt>
            <trkpt lat="47.321118722" lon="4.932248862">
                <ele>280.200012</ele>
                <time>2015-05-25T07:06:58Z</time>
            </trkpt>
            <trkpt lat="47.321068682" lon="4.932150794">
                <ele>283.367493</ele>
                <time>2015-05-25T07:07:45Z</time>
            </trkpt>
            <trkpt lat="47.320980839" lon="4.932127241">
                <ele>288.104980</ele>
                <time>2015-05-25T07:07:59Z</time>
            </trkpt>
            <trkpt lat="47.320908803" lon="4.932040862">
                <ele>292.251129</ele>
                <time>2015-05-25T07:08:16Z</time>
            </trkpt>
            <trkpt lat="47.320825260" lon="4.932003715">
                <ele>296.472260</ele>
                <time>2015-05-25T07:08:32Z</time>
            </trkpt>
            <trkpt lat="47.320746594" lon="4.931999895">
                <ele>300.379120</ele>
                <time>2015-05-25T07:08:47Z</time>
            </trkpt>
            <trkpt lat="47.320634213" lon="4.931994437">
                <ele>305.960388</ele>
                <time>2015-05-25T07:11:14Z</time>
            </trkpt>
            <trkpt lat="47.320524988" lon="4.931848502">
                <ele>311.197357</ele>
                <time>2015-05-25T07:11:28Z</time>
            </trkpt>
            <trkpt lat="47.320432062" lon="4.931728177">
                <ele>313.062988</ele>
                <time>2015-05-25T07:11:42Z</time>
            </trkpt>
            <trkpt lat="47.320361612" lon="4.931608944">
                <ele>310.096008</ele>
                <time>2015-05-25T07:11:52Z</time>
            </trkpt>
            <trkpt lat="47.320296967" lon="4.931481721">
                <ele>306.648804</ele>
                <time>2015-05-25T07:11:59Z</time>
            </trkpt>
            <trkpt lat="47.320226332" lon="4.931370751">
                <ele>304.252106</ele>
                <time>2015-05-25T07:12:11Z</time>
            </trkpt>
            <trkpt lat="47.320139396" lon="4.931234174">
                <ele>301.327332</ele>
                <time>2015-05-25T07:12:29Z</time>
            </trkpt>
            <trkpt lat="47.320085617" lon="4.931124024">
                <ele>298.411987</ele>
                <time>2015-05-25T07:12:40Z</time>
            </trkpt>
            <trkpt lat="47.320031282" lon="4.931038663">
                <ele>296.609406</ele>
                <time>2015-05-25T07:12:53Z</time>
            </trkpt>
            <trkpt lat="47.319971142" lon="4.930961293">
                <ele>295.229889</ele>
                <time>2015-05-25T07:13:10Z</time>
            </trkpt>
            <trkpt lat="47.319913739" lon="4.930908345">
                <ele>294.883057</ele>
                <time>2015-05-25T07:13:23Z</time>
            </trkpt>
            <trkpt lat="47.319821119" lon="4.930855539">
                <ele>295.728394</ele>
                <time>2015-05-25T07:13:38Z</time>
            </trkpt>
            <trkpt lat="47.319755321" lon="4.930787561">
                <ele>294.938568</ele>
                <time>2015-05-25T07:13:58Z</time>
            </trkpt>
            <trkpt lat="47.319691619" lon="4.930740790">
                <ele>295.010101</ele>
                <time>2015-05-25T07:14:12Z</time>
            </trkpt>
            <trkpt lat="47.319640493" lon="4.930655715">
                <ele>292.812073</ele>
                <time>2015-05-25T07:14:32Z</time>
            </trkpt>
            <trkpt lat="47.319562754" lon="4.930610581">
                <ele>293.637390</ele>
                <time>2015-05-25T07:14:48Z</time>
            </trkpt>
            <trkpt lat="47.319475282" lon="4.930623360">
                <ele>297.681000</ele>
                <time>2015-05-25T07:14:50Z</time>
            </trkpt>
            <trkpt lat="47.319417772" lon="4.930553911">
                <ele>296.876984</ele>
                <time>2015-05-25T07:15:04Z</time>
            </trkpt>
            <trkpt lat="47.319335156" lon="4.930475451">
                <ele>296.903259</ele>
                <time>2015-05-25T07:15:18Z</time>
            </trkpt>
            <trkpt lat="47.319270344" lon="4.930459326">
                <ele>298.913239</ele>
                <time>2015-05-25T07:15:30Z</time>
            </trkpt>
            <trkpt lat="47.319213515" lon="4.930369556">
                <ele>297.618408</ele>
                <time>2015-05-25T07:15:43Z</time>
            </trkpt>
            <trkpt lat="47.319095021" lon="4.930397619">
                <ele>303.459381</ele>
                <time>2015-05-25T07:16:38Z</time>
            </trkpt>
            <trkpt lat="47.319001872" lon="4.930510540">
                <ele>311.455658</ele>
                <time>2015-05-25T07:17:09Z</time>
            </trkpt>
            <trkpt lat="47.318919348" lon="4.930455269">
                <ele>312.522614</ele>
                <time>2015-05-25T07:17:23Z</time>
            </trkpt>
            <trkpt lat="47.318780003" lon="4.930417417">
                <ele>316.539307</ele>
                <time>2015-05-25T07:17:38Z</time>
            </trkpt>
            <trkpt lat="47.318695329" lon="4.930411308">
                <ele>319.453735</ele>
                <time>2015-05-25T07:17:45Z</time>
            </trkpt>
            <trkpt lat="47.318605239" lon="4.930415208">
                <ele>322.341248</ele>
                <time>2015-05-25T07:17:59Z</time>
            </trkpt>
            <trkpt lat="47.318514592" lon="4.930443896">
                <ele>326.091248</ele>
                <time>2015-05-25T07:18:11Z</time>
            </trkpt>
            <trkpt lat="47.318405235" lon="4.930554397">
                <ele>333.171234</ele>
                <time>2015-05-25T07:18:28Z</time>
            </trkpt>
            <trkpt lat="47.318321135" lon="4.930542043">
                <ele>335.353760</ele>
                <time>2015-05-25T07:18:45Z</time>
            </trkpt>
            <trkpt lat="47.318230674" lon="4.930562468">
                <ele>338.973755</ele>
                <time>2015-05-25T07:18:58Z</time>
            </trkpt>
            <trkpt lat="47.318128975" lon="4.930582348">
                <ele>343.178986</ele>
                <time>2015-05-25T07:19:39Z</time>
            </trkpt>
            <trkpt lat="47.318023326" lon="4.930527588">
                <ele>345.285248</ele>
                <time>2015-05-25T07:19:55Z</time>
            </trkpt>
            <trkpt lat="47.317906068" lon="4.930488809">
                <ele>348.574005</ele>
                <time>2015-05-25T07:20:08Z</time>
            </trkpt>
            <trkpt lat="47.317806966" lon="4.930393008">
                <ele>350.034119</ele>
                <time>2015-05-25T07:20:22Z</time>
            </trkpt>
            <trkpt lat="47.317696625" lon="4.930296662">
                <ele>351.281433</ele>
                <time>2015-05-25T07:20:35Z</time>
            </trkpt>
            <trkpt lat="47.317591162" lon="4.930233641">
                <ele>353.344727</ele>
                <time>2015-05-25T07:20:48Z</time>
            </trkpt>
            <trkpt lat="47.317440375" lon="4.930184964">
                <ele>357.219025</ele>
                <time>2015-05-25T07:21:04Z</time>
            </trkpt>
            <trkpt lat="47.317341087" lon="4.930097427">
                <ele>358.412506</ele>
                <time>2015-05-25T07:21:17Z</time>
            </trkpt>
            <trkpt lat="47.317236922" lon="4.929976567">
                <ele>357.837494</ele>
                <time>2015-05-25T07:21:31Z</time>
            </trkpt>
            <trkpt lat="47.317090827" lon="4.929969478">
                <ele>359.462494</ele>
                <time>2015-05-25T07:21:47Z</time>
            </trkpt>
            <trkpt lat="47.316997956" lon="4.930097319">
                <ele>362.462494</ele>
                <time>2015-05-25T07:22:00Z</time>
            </trkpt>
            <trkpt lat="47.316910518" lon="4.930233696">
                <ele>365.374115</ele>
                <time>2015-05-25T07:22:16Z</time>
            </trkpt>
            <trkpt lat="47.316817090" lon="4.930386325">
                <ele>367.453369</ele>
                <time>2015-05-25T07:22:30Z</time>
            </trkpt>
            <trkpt lat="47.316741261" lon="4.930506721">
                <ele>369.336639</ele>
                <time>2015-05-25T07:22:44Z</time>
            </trkpt>
            <trkpt lat="47.316653179" lon="4.930652948">
                <ele>371.868347</ele>
                <time>2015-05-25T07:22:58Z</time>
            </trkpt>
            <trkpt lat="47.316583274" lon="4.930762919">
                <ele>373.940308</ele>
                <time>2015-05-25T07:23:10Z</time>
            </trkpt>
            <trkpt lat="47.316534575" lon="4.930855203">
                <ele>375.804108</ele>
                <time>2015-05-25T07:23:23Z</time>
            </trkpt>
            <trkpt lat="47.316454985" lon="4.930980857">
                <ele>378.594269</ele>
                <time>2015-05-25T07:23:40Z</time>
            </trkpt>
            <trkpt lat="47.316384589" lon="4.931109786">
                <ele>380.566956</ele>
                <time>2015-05-25T07:23:54Z</time>
            </trkpt>
            <trkpt lat="47.316317735" lon="4.931242028">
                <ele>382.825867</ele>
                <time>2015-05-25T07:23:56Z</time>
            </trkpt>
            <trkpt lat="47.316249414" lon="4.931367917">
                <ele>385.064819</ele>
                <time>2015-05-25T07:23:59Z</time>
            </trkpt>
            <trkpt lat="47.316172842" lon="4.931521361">
                <ele>388.080841</ele>
                <time>2015-05-25T07:24:14Z</time>
            </trkpt>
            <trkpt lat="47.316107098" lon="4.931630865">
                <ele>389.704987</ele>
                <time>2015-05-25T07:24:27Z</time>
            </trkpt>
            <trkpt lat="47.316014634" lon="4.931803186">
                <ele>391.925018</ele>
                <time>2015-05-25T07:24:29Z</time>
            </trkpt>
            <trkpt lat="47.315871561" lon="4.931912041">
                <ele>391.606293</ele>
                <time>2015-05-25T07:24:40Z</time>
            </trkpt>
            <trkpt lat="47.315785049" lon="4.932007100">
                <ele>391.908691</ele>
                <time>2015-05-25T07:24:56Z</time>
            </trkpt>
            <trkpt lat="47.315703174" lon="4.932141658">
                <ele>393.104340</ele>
                <time>2015-05-25T07:25:12Z</time>
            </trkpt>
            <trkpt lat="47.315647015" lon="4.932240313">
                <ele>393.849701</ele>
                <time>2015-05-25T07:25:20Z</time>
            </trkpt>
            <trkpt lat="47.315564288" lon="4.932318970">
                <ele>393.660675</ele>
                <time>2015-05-25T07:25:24Z</time>
            </trkpt>
            <trkpt lat="47.315512318" lon="4.932446759">
                <ele>394.651642</ele>
                <time>2015-05-25T07:25:35Z</time>
            </trkpt>
            <trkpt lat="47.315422129" lon="4.932578020">
                <ele>393.267273</ele>
                <time>2015-05-25T07:25:45Z</time>
            </trkpt>
            <trkpt lat="47.315339207" lon="4.932572727">
                <ele>389.987976</ele>
                <time>2015-05-25T07:25:56Z</time>
            </trkpt>
            <trkpt lat="47.315256503" lon="4.932491016">
                <ele>385.626282</ele>
                <time>2015-05-25T07:26:05Z</time>
            </trkpt>
            <trkpt lat="47.315198667" lon="4.932410382">
                <ele>382.175995</ele>
                <time>2015-05-25T07:26:15Z</time>
            </trkpt>
            <trkpt lat="47.315142676" lon="4.932395797">
                <ele>379.845856</ele>
                <time>2015-05-25T07:26:25Z</time>
            </trkpt>
            <trkpt lat="47.315075202" lon="4.932356402">
                <ele>376.749115</ele>
                <time>2015-05-25T07:26:37Z</time>
            </trkpt>
            <trkpt lat="47.315075989" lon="4.932270440">
                <ele>375.492035</ele>
                <time>2015-05-25T07:26:41Z</time>
            </trkpt>
            <trkpt lat="47.315045059" lon="4.932144866">
                <ele>372.032501</ele>
                <time>2015-05-25T07:26:52Z</time>
            </trkpt>
            <trkpt lat="47.315014601" lon="4.932035627">
                <ele>368.671997</ele>
                <time>2015-05-25T07:27:06Z</time>
            </trkpt>
            <trkpt lat="47.314950312" lon="4.932059683">
                <ele>365.962708</ele>
                <time>2015-05-25T07:27:29Z</time>
            </trkpt>
            <trkpt lat="47.314888369" lon="4.932127912">
                <ele>363.951202</ele>
                <time>2015-05-25T07:27:39Z</time>
            </trkpt>
            <trkpt lat="47.314789182" lon="4.932016639">
                <ele>357.754242</ele>
                <time>2015-05-25T07:27:58Z</time>
            </trkpt>
            <trkpt lat="47.314719103" lon="4.931880893">
                <ele>353.226257</ele>
                <time>2015-05-25T07:28:06Z</time>
            </trkpt>
            <trkpt lat="47.314650376" lon="4.931935456">
                <ele>350.645264</ele>
                <time>2015-05-25T07:28:14Z</time>
            </trkpt>
            <trkpt lat="47.314558987" lon="4.931997189">
                <ele>351.035614</ele>
                <time>2015-05-25T07:28:20Z</time>
            </trkpt>
            <trkpt lat="47.314526809" lon="4.932177597">
                <ele>352.669250</ele>
                <time>2015-05-25T07:28:25Z</time>
            </trkpt>
            <trkpt lat="47.314511859" lon="4.932342299">
                <ele>355.293610</ele>
                <time>2015-05-25T07:28:43Z</time>
            </trkpt>
            <trkpt lat="47.314502157" lon="4.932523799">
                <ele>358.075867</ele>
                <time>2015-05-25T07:29:21Z</time>
            </trkpt>
            <trkpt lat="47.314483523" lon="4.932771893">
                <ele>361.865967</ele>
                <time>2015-05-25T07:29:44Z</time>
            </trkpt>
            <trkpt lat="47.314497381" lon="4.932986765">
                <ele>365.752197</ele>
                <time>2015-05-25T07:29:59Z</time>
            </trkpt>
            <trkpt lat="47.314532630" lon="4.933170448">
                <ele>368.791077</ele>
                <time>2015-05-25T07:30:12Z</time>
            </trkpt>
            <trkpt lat="47.314602707" lon="4.933306195">
                <ele>370.378387</ele>
                <time>2015-05-25T07:30:39Z</time>
            </trkpt>
            <trkpt lat="47.314655184" lon="4.933474173">
                <ele>374.250183</ele>
                <time>2015-05-25T07:30:52Z</time>
            </trkpt>
            <trkpt lat="47.314736127" lon="4.933626992">
                <ele>378.451508</ele>
                <time>2015-05-25T07:31:18Z</time>
            </trkpt>
            <trkpt lat="47.314816699" lon="4.933796336">
                <ele>382.095215</ele>
                <time>2015-05-25T07:31:33Z</time>
            </trkpt>
            <trkpt lat="47.314878814" lon="4.933960363">
                <ele>384.758759</ele>
                <time>2015-05-25T07:31:42Z</time>
            </trkpt>
            <trkpt lat="47.314956933" lon="4.934147196">
                <ele>387.014587</ele>
                <time>2015-05-25T07:31:57Z</time>
            </trkpt>
            <trkpt lat="47.315045446" lon="4.934349451">
                <ele>390.561462</ele>
                <time>2015-05-25T07:32:12Z</time>
            </trkpt>
            <trkpt lat="47.315099509" lon="4.934493369">
                <ele>393.487213</ele>
                <time>2015-05-25T07:32:23Z</time>
            </trkpt>
            <trkpt lat="47.315145777" lon="4.934664611">
                <ele>396.416412</ele>
                <time>2015-05-25T07:32:37Z</time>
            </trkpt>
            <trkpt lat="47.315176120" lon="4.934849432">
                <ele>399.229156</ele>
                <time>2015-05-25T07:32:51Z</time>
            </trkpt>
            <trkpt lat="47.315221466" lon="4.935024530">
                <ele>402.212555</ele>
                <time>2015-05-25T07:33:06Z</time>
            </trkpt>
            <trkpt lat="47.315229680" lon="4.935172051">
                <ele>404.571503</ele>
                <time>2015-05-25T07:33:18Z</time>
            </trkpt>
            <trkpt lat="47.315184250" lon="4.935301216">
                <ele>406.816254</ele>
                <time>2015-05-25T07:33:33Z</time>
            </trkpt>
            <trkpt lat="47.315118547" lon="4.935382589">
                <ele>408.549530</ele>
                <time>2015-05-25T07:33:49Z</time>
            </trkpt>
            <trkpt lat="47.315020237" lon="4.935501881">
                <ele>411.171234</ele>
                <time>2015-05-25T07:34:01Z</time>
            </trkpt>
            <trkpt lat="47.314909073" lon="4.935662225">
                <ele>413.534943</ele>
                <time>2015-05-25T07:34:28Z</time>
            </trkpt>
            <trkpt lat="47.314817996" lon="4.935740190">
                <ele>414.785431</ele>
                <time>2015-05-25T07:34:42Z</time>
            </trkpt>
            <trkpt lat="47.314712349" lon="4.935902618">
                <ele>416.733582</ele>
                <time>2015-05-25T07:34:56Z</time>
            </trkpt>
            <trkpt lat="47.314617799" lon="4.935887611">
                <ele>416.994385</ele>
                <time>2015-05-25T07:35:41Z</time>
            </trkpt>
            <trkpt lat="47.314551752" lon="4.935819637">
                <ele>416.756104</ele>
                <time>2015-05-25T07:36:06Z</time>
            </trkpt>
            <trkpt lat="47.314435159" lon="4.935754658">
                <ele>416.849060</ele>
                <time>2015-05-25T07:36:31Z</time>
            </trkpt>
            <trkpt lat="47.314324080" lon="4.935691357">
                <ele>417.013824</ele>
                <time>2015-05-25T07:36:48Z</time>
            </trkpt>
            <trkpt lat="47.314185091" lon="4.935618427">
                <ele>417.368439</ele>
                <time>2015-05-25T07:36:59Z</time>
            </trkpt>
            <trkpt lat="47.314050978" lon="4.935578820">
                <ele>417.879456</ele>
                <time>2015-05-25T07:37:14Z</time>
            </trkpt>
            <trkpt lat="47.313911431" lon="4.935530677">
                <ele>418.275360</ele>
                <time>2015-05-25T07:37:32Z</time>
            </trkpt>
            <trkpt lat="47.313766266" lon="4.935482262">
                <ele>418.729584</ele>
                <time>2015-05-25T07:37:44Z</time>
            </trkpt>
            <trkpt lat="47.313642647" lon="4.935476251">
                <ele>419.234619</ele>
                <time>2015-05-25T07:38:02Z</time>
            </trkpt>
            <trkpt lat="47.313486058" lon="4.935435552">
                <ele>419.503326</ele>
                <time>2015-05-25T07:38:17Z</time>
            </trkpt>
            <trkpt lat="47.313362192" lon="4.935429627">
                <ele>419.793793</ele>
                <time>2015-05-25T07:38:31Z</time>
            </trkpt>
            <trkpt lat="47.313250545" lon="4.935306581">
                <ele>419.524139</ele>
                <time>2015-05-25T07:38:46Z</time>
            </trkpt>
            <trkpt lat="47.313181656" lon="4.935213971">
                <ele>419.286255</ele>
            </trkpt>
            <trkpt lat="47.313041836" lon="4.935066188">
                <ele>418.968750</ele>
                <time>2015-05-25T07:39:07Z</time>
            </trkpt>
            <trkpt lat="47.312924622" lon="4.934887170">
                <ele>418.451233</ele>
                <time>2015-05-25T07:39:21Z</time>
            </trkpt>
            <trkpt lat="47.312826080" lon="4.934766583">
                <ele>418.151245</ele>
            </trkpt>
            <trkpt lat="47.312687834" lon="4.934660610">
                <ele>417.724365</ele>
                <time>2015-05-25T07:39:39Z</time>
            </trkpt>
            <trkpt lat="47.312543225" lon="4.934587411">
                <ele>417.493286</ele>
            </trkpt>
            <trkpt lat="47.312421464" lon="4.934498782">
                <ele>417.345612</ele>
                <time>2015-05-25T07:39:59Z</time>
            </trkpt>
            <trkpt lat="47.312316560" lon="4.934410973">
                <ele>417.471252</ele>
            </trkpt>
            <trkpt lat="47.312213872" lon="4.934246270">
                <ele>417.760223</ele>
                <time>2015-05-25T07:40:18Z</time>
            </trkpt>
            <trkpt lat="47.312156347" lon="4.934030989">
                <ele>417.470306</ele>
            </trkpt>
            <trkpt lat="47.312100967" lon="4.933851399">
                <ele>417.216827</ele>
                <time>2015-05-25T07:40:36Z</time>
            </trkpt>
            <trkpt lat="47.312042385" lon="4.933595358">
                <ele>416.755371</ele>
            </trkpt>
            <trkpt lat="47.311973979" lon="4.933385259">
                <ele>416.869629</ele>
                <time>2015-05-25T07:40:58Z</time>
            </trkpt>
            <trkpt lat="47.311911935" lon="4.933142386">
                <ele>416.946991</ele>
            </trkpt>
            <trkpt lat="47.311860200" lon="4.932941369">
                <ele>416.638763</ele>
            </trkpt>
            <trkpt lat="47.311781669" lon="4.932681154">
                <ele>416.236237</ele>
                <time>2015-05-25T07:41:16Z</time>
            </trkpt>
            <trkpt lat="47.311715118" lon="4.932388437">
                <ele>416.210724</ele>
                <time>2015-05-25T07:41:38Z</time>
            </trkpt>
            <trkpt lat="47.311647081" lon="4.932161818">
                <ele>416.254883</ele>
                <time>2015-05-25T07:41:56Z</time>
            </trkpt>
            <trkpt lat="47.311542546" lon="4.932057490">
                <ele>416.738892</ele>
                <time>2015-05-25T07:42:05Z</time>
            </trkpt>
            <trkpt lat="47.311421897" lon="4.931919297">
                <ele>416.756378</ele>
            </trkpt>
            <trkpt lat="47.311290380" lon="4.931764035">
                <ele>416.488617</ele>
                <time>2015-05-25T07:42:13Z</time>
            </trkpt>
            <trkpt lat="47.311175720" lon="4.931609592">
                <ele>416.381927</ele>
                <time>2015-05-25T07:42:35Z</time>
            </trkpt>
            <trkpt lat="47.311088227" lon="4.931497823">
                <ele>416.482819</ele>
                <time>2015-05-25T07:42:53Z</time>
            </trkpt>
            <trkpt lat="47.311007548" lon="4.931394411">
                <ele>416.692749</ele>
                <time>2015-05-25T07:43:09Z</time>
            </trkpt>
            <trkpt lat="47.310914355" lon="4.931224715">
                <ele>416.251373</ele>
                <time>2015-05-25T07:43:29Z</time>
            </trkpt>
            <trkpt lat="47.310843904" lon="4.931105503">
                <ele>415.710876</ele>
                <time>2015-05-25T07:43:46Z</time>
            </trkpt>
            <trkpt lat="47.310785063" lon="4.930970314">
                <ele>415.111389</ele>
                <time>2015-05-25T07:44:05Z</time>
            </trkpt>
            <trkpt lat="47.310715540" lon="4.930809794">
                <ele>414.647125</ele>
                <time>2015-05-25T07:44:23Z</time>
            </trkpt>
            <trkpt lat="47.310658367" lon="4.930600250">
                <ele>413.839966</ele>
                <time>2015-05-25T07:44:35Z</time>
            </trkpt>
            <trkpt lat="47.310595204" lon="4.930406956">
                <ele>412.470886</ele>
                <time>2015-05-25T07:44:40Z</time>
            </trkpt>
            <trkpt lat="47.310520247" lon="4.930237903">
                <ele>410.122742</ele>
                <time>2015-05-25T07:44:58Z</time>
            </trkpt>
            <trkpt lat="47.310449981" lon="4.930110432">
                <ele>408.507263</ele>
                <time>2015-05-25T07:45:18Z</time>
            </trkpt>
            <trkpt lat="47.310287399" lon="4.930086002">
                <ele>407.339111</ele>
                <time>2015-05-25T07:45:30Z</time>
            </trkpt>
            <trkpt lat="47.310194472" lon="4.929965703">
                <ele>406.189362</ele>
                <time>2015-05-25T07:45:45Z</time>
            </trkpt>
            <trkpt lat="47.310106792" lon="4.929862200">
                <ele>403.674438</ele>
                <time>2015-05-25T07:46:02Z</time>
            </trkpt>
            <trkpt lat="47.310036155" lon="4.929751254">
                <ele>401.058746</ele>
                <time>2015-05-25T07:46:31Z</time>
            </trkpt>
            <trkpt lat="47.309960455" lon="4.929615251">
                <ele>398.112305</ele>
                <time>2015-05-25T07:46:50Z</time>
            </trkpt>
            <trkpt lat="47.309862093" lon="4.929486419">
                <ele>394.288239</ele>
                <time>2015-05-25T07:47:07Z</time>
            </trkpt>
            <trkpt lat="47.309774969" lon="4.929358133">
                <ele>390.688232</ele>
                <time>2015-05-25T07:47:26Z</time>
            </trkpt>
            <trkpt lat="47.309693278" lon="4.929238382">
                <ele>389.198273</ele>
                <time>2015-05-25T07:47:37Z</time>
            </trkpt>
            <trkpt lat="47.309605969" lon="4.929118358">
                <ele>388.855896</ele>
                <time>2015-05-25T07:47:44Z</time>
            </trkpt>
            <trkpt lat="47.309592263" lon="4.928977093">
                <ele>387.767456</ele>
                <time>2015-05-25T07:47:46Z</time>
            </trkpt>
            <trkpt lat="47.309579668" lon="4.928786257">
                <ele>386.142639</ele>
                <time>2015-05-25T07:47:58Z</time>
            </trkpt>
            <trkpt lat="47.309555280" lon="4.928619662">
                <ele>384.487518</ele>
                <time>2015-05-25T07:48:10Z</time>
            </trkpt>
            <trkpt lat="47.309531076" lon="4.928444806">
                <ele>382.767029</ele>
                <time>2015-05-25T07:48:31Z</time>
            </trkpt>
            <trkpt lat="47.309490386" lon="4.928252609">
                <ele>380.317230</ele>
                <time>2015-05-25T07:48:34Z</time>
            </trkpt>
            <trkpt lat="47.309443891" lon="4.928068401">
                <ele>377.276245</ele>
                <time>2015-05-25T07:48:54Z</time>
            </trkpt>
            <trkpt lat="47.309408634" lon="4.927884739">
                <ele>374.331940</ele>
                <time>2015-05-25T07:49:03Z</time>
            </trkpt>
            <trkpt lat="47.309424318" lon="4.927687005">
                <ele>373.591766</ele>
                <time>2015-05-25T07:49:22Z</time>
            </trkpt>
            <trkpt lat="47.309434013" lon="4.927505522">
                <ele>372.755371</ele>
                <time>2015-05-25T07:49:43Z</time>
            </trkpt>
            <trkpt lat="47.309448586" lon="4.927357358">
                <ele>372.326691</ele>
                <time>2015-05-25T07:50:04Z</time>
            </trkpt>
            <trkpt lat="47.309458280" lon="4.927175874">
                <ele>371.787506</ele>
            </trkpt>
            <trkpt lat="47.309464392" lon="4.926903241">
                <ele>370.962494</ele>
                <time>2015-05-25T07:50:23Z</time>
            </trkpt>
            <trkpt lat="47.309452535" lon="4.926679360">
                <ele>369.687500</ele>
            </trkpt>
            <trkpt lat="47.309423080" lon="4.926487709">
                <ele>367.961334</ele>
            </trkpt>
            <trkpt lat="47.309354291" lon="4.926294153">
                <ele>365.111969</ele>
                <time>2015-05-25T07:50:43Z</time>
            </trkpt>
            <trkpt lat="47.309297480" lon="4.926068095">
                <ele>364.681641</ele>
                <time>2015-05-25T07:51:04Z</time>
            </trkpt>
            <trkpt lat="47.309244993" lon="4.925900141">
                <ele>363.793060</ele>
            </trkpt>
            <trkpt lat="47.309187626" lon="4.925698869">
                <ele>362.420471</ele>
            </trkpt>
            <trkpt lat="47.309175582" lon="4.925483252">
                <ele>360.953857</ele>
                <time>2015-05-25T07:51:25Z</time>
            </trkpt>
            <trkpt lat="47.309207194" lon="4.925327642">
                <ele>359.813110</ele>
                <time>2015-05-25T07:51:28Z</time>
            </trkpt>
            <trkpt lat="47.309258069" lon="4.925065448">
                <ele>358.508240</ele>
                <time>2015-05-25T07:51:48Z</time>
            </trkpt>
            <trkpt lat="47.309312897" lon="4.924877881">
                <ele>356.628754</ele>
            </trkpt>
            <trkpt lat="47.309390571" lon="4.924674877">
                <ele>352.733765</ele>
                <time>2015-05-25T07:52:05Z</time>
            </trkpt>
            <trkpt lat="47.309483622" lon="4.924538783">
                <ele>352.950165</ele>
            </trkpt>
            <trkpt lat="47.309581921" lon="4.924419483">
                <ele>353.192017</ele>
            </trkpt>
            <trkpt lat="47.309708316" lon="4.924301543">
                <ele>351.966248</ele>
            </trkpt>
            <trkpt lat="47.309823472" lon="4.924183058">
                <ele>349.374054</ele>
                <time>2015-05-25T07:52:20Z</time>
            </trkpt>
            <trkpt lat="47.309925910" lon="4.924130123">
                <ele>348.678009</ele>
                <time>2015-05-25T07:52:37Z</time>
            </trkpt>
            <trkpt lat="47.310045760" lon="4.924053218">
                <ele>348.153259</ele>
                <time>2015-05-25T07:52:59Z</time>
            </trkpt>
            <trkpt lat="47.310145637" lon="4.923903588">
                <ele>346.973328</ele>
                <time>2015-05-25T07:53:19Z</time>
            </trkpt>
            <trkpt lat="47.310177149" lon="4.923712209">
                <ele>346.154694</ele>
                <time>2015-05-25T07:53:23Z</time>
            </trkpt>
            <trkpt lat="47.310205544" lon="4.923448921">
                <ele>344.665314</ele>
                <time>2015-05-25T07:53:41Z</time>
            </trkpt>
            <trkpt lat="47.310255860" lon="4.923211505">
                <ele>343.352386</ele>
                <time>2015-05-25T07:53:59Z</time>
            </trkpt>
            <trkpt lat="47.310305251" lon="4.923015398">
                <ele>342.545868</ele>
                <time>2015-05-25T07:54:26Z</time>
            </trkpt>
            <trkpt lat="47.310145257" lon="4.922875326">
                <ele>346.504486</ele>
                <time>2015-05-25T07:54:46Z</time>
            </trkpt>
            <trkpt lat="47.310063005" lon="4.922780368">
                <ele>348.821381</ele>
                <time>2015-05-25T07:54:58Z</time>
            </trkpt>
            <trkpt lat="47.309964266" lon="4.922668072">
                <ele>351.897736</ele>
                <time>2015-05-25T07:55:11Z</time>
            </trkpt>
            <trkpt lat="47.309871146" lon="4.922556049">
                <ele>354.776031</ele>
                <time>2015-05-25T07:55:24Z</time>
            </trkpt>
            <trkpt lat="47.309778395" lon="4.922427502">
                <ele>357.383026</ele>
                <time>2015-05-25T07:55:36Z</time>
            </trkpt>
            <trkpt lat="47.309658103" lon="4.922272812">
                <ele>360.647675</ele>
                <time>2015-05-25T07:55:49Z</time>
            </trkpt>
            <trkpt lat="47.309532008" lon="4.922126112">
                <ele>363.927124</ele>
                <time>2015-05-25T07:56:04Z</time>
            </trkpt>
            <trkpt lat="47.309400478" lon="4.921970879">
                <ele>367.075256</ele>
                <time>2015-05-25T07:56:19Z</time>
            </trkpt>
            <trkpt lat="47.309285250" lon="4.921841248">
                <ele>369.169891</ele>
                <time>2015-05-25T07:56:35Z</time>
            </trkpt>
            <trkpt lat="47.309170392" lon="4.921695093">
                <ele>371.157288</ele>
                <time>2015-05-25T07:56:53Z</time>
            </trkpt>
            <trkpt lat="47.309060968" lon="4.921557473">
                <ele>372.929840</ele>
                <time>2015-05-25T07:57:12Z</time>
            </trkpt>
            <trkpt lat="47.308940305" lon="4.921419310">
                <ele>374.432495</ele>
                <time>2015-05-25T07:57:31Z</time>
            </trkpt>
            <trkpt lat="47.308819643" lon="4.921281147">
                <ele>375.682495</ele>
                <time>2015-05-25T07:57:49Z</time>
            </trkpt>
            <trkpt lat="47.308671809" lon="4.921100319">
                <ele>376.911255</ele>
            </trkpt>
            <trkpt lat="47.308556765" lon="4.920962430">
                <ele>377.856262</ele>
                <time>2015-05-25T07:58:10Z</time>
            </trkpt>
            <trkpt lat="47.308408561" lon="4.920798127">
                <ele>378.818756</ele>
                <time>2015-05-25T07:58:31Z</time>
            </trkpt>
            <trkpt lat="47.308265791" lon="4.920642357">
                <ele>379.768738</ele>
                <time>2015-05-25T07:58:50Z</time>
            </trkpt>
            <trkpt lat="47.308140062" lon="4.920479142">
                <ele>380.350006</ele>
                <time>2015-05-25T07:59:09Z</time>
            </trkpt>
            <trkpt lat="47.308014149" lon="4.920324190">
                <ele>380.981750</ele>
                <time>2015-05-25T07:59:29Z</time>
            </trkpt>
            <trkpt lat="47.307904539" lon="4.920194836">
                <ele>381.676453</ele>
                <time>2015-05-25T07:59:50Z</time>
            </trkpt>
            <trkpt lat="47.307822100" lon="4.920108149">
                <ele>382.324493</ele>
                <time>2015-05-25T07:59:55Z</time>
            </trkpt>
            <trkpt lat="47.307762137" lon="4.920022548">
                <ele>382.700043</ele>
                <time>2015-05-25T08:00:11Z</time>
            </trkpt>
            <trkpt lat="47.307662472" lon="4.919951568">
                <ele>383.643738</ele>
            </trkpt>
            <trkpt lat="47.307501628" lon="4.920100930">
                <ele>386.106262</ele>
            </trkpt>
            <trkpt lat="47.307380363" lon="4.920187388">
                <ele>387.851257</ele>
            </trkpt>
            <trkpt lat="47.307312689" lon="4.920248933">
                <ele>388.893768</ele>
            </trkpt>
            <trkpt lat="47.307198276" lon="4.920334375">
                <ele>390.498077</ele>
            </trkpt>
            <trkpt lat="47.307088506" lon="4.920412358">
                <ele>392.014404</ele>
            </trkpt>
            <trkpt lat="47.306991555" lon="4.920522868">
                <ele>393.699432</ele>
            </trkpt>
            <trkpt lat="47.306905606" lon="4.920593145">
                <ele>395.365051</ele>
            </trkpt>
            <trkpt lat="47.306762913" lon="4.920685489">
                <ele>398.030273</ele>
            </trkpt>
            <trkpt lat="47.306643929" lon="4.920752495">
                <ele>400.200470</ele>
            </trkpt>
            <trkpt lat="47.306565726" lon="4.920822233">
                <ele>401.944305</ele>
            </trkpt>
            <trkpt lat="47.306477155" lon="4.920886698">
                <ele>403.808197</ele>
            </trkpt>
            <trkpt lat="47.306366405" lon="4.920966150">
                <ele>406.166107</ele>
            </trkpt>
            <trkpt lat="47.306259284" lon="4.921042761">
                <ele>408.250000</ele>
            </trkpt>
            <trkpt lat="47.306173801" lon="4.921120134">
                <ele>409.970001</ele>
            </trkpt>
            <trkpt lat="47.306099459" lon="4.921174430">
                <ele>411.264160</ele>
            </trkpt>
            <trkpt lat="47.306002211" lon="4.921243256">
                <ele>412.859283</ele>
            </trkpt>
            <trkpt lat="47.305929707" lon="4.921318190">
                <ele>414.339294</ele>
            </trkpt>
            <trkpt lat="47.305815714" lon="4.921413912">
                <ele>416.386658</ele>
            </trkpt>
            <trkpt lat="47.305738251" lon="4.921479496">
                <ele>417.707489</ele>
            </trkpt>
            <trkpt lat="47.305663909" lon="4.921533791">
                <ele>418.941589</ele>
            </trkpt>
            <trkpt lat="47.305555036" lon="4.921613065">
                <ele>420.780792</ele>
            </trkpt>
            <trkpt lat="47.305492195" lon="4.921666077">
                <ele>421.960358</ele>
            </trkpt>
            <trkpt lat="47.305419166" lon="4.921729155">
                <ele>423.381348</ele>
            </trkpt>
            <trkpt lat="47.305283211" lon="4.921843819">
                <ele>425.253387</ele>
            </trkpt>
            <trkpt lat="47.305177046" lon="4.921923744">
                <ele>426.366913</ele>
            </trkpt>
            <trkpt lat="47.305062446" lon="4.922017440">
                <ele>427.542725</ele>
            </trkpt>
            <trkpt lat="47.304942571" lon="4.922113465">
                <ele>428.673462</ele>
            </trkpt>
            <trkpt lat="47.304827258" lon="4.922221082">
                <ele>429.620300</ele>
            </trkpt>
            <trkpt lat="47.304724893" lon="4.922331981">
                <ele>430.609192</ele>
            </trkpt>
            <trkpt lat="47.304603492" lon="4.922417004">
                <ele>431.556549</ele>
            </trkpt>
            <trkpt lat="47.304494696" lon="4.922502709">
                <ele>432.160431</ele>
            </trkpt>
            <trkpt lat="47.304375032" lon="4.922593748">
                <ele>431.899353</ele>
            </trkpt>
            <trkpt lat="47.304284340" lon="4.922662564">
                <ele>431.583374</ele>
            </trkpt>
            <trkpt lat="47.304173187" lon="4.922793138">
                <ele>431.058807</ele>
            </trkpt>
            <trkpt lat="47.304117372" lon="4.923042180">
                <ele>430.574921</ele>
            </trkpt>
            <trkpt lat="47.304040321" lon="4.923200197">
                <ele>429.841431</ele>
            </trkpt>
            <trkpt lat="47.303963816" lon="4.923411738">
                <ele>428.853302</ele>
            </trkpt>
            <trkpt lat="47.303930670" lon="4.923575299">
                <ele>428.710510</ele>
            </trkpt>
            <trkpt lat="47.303904309" lon="4.923747688">
                <ele>429.128113</ele>
            </trkpt>
            <trkpt lat="47.303848373" lon="4.923984802">
                <ele>430.661621</ele>
            </trkpt>
            <trkpt lat="47.303753288" lon="4.924211752">
                <ele>432.653625</ele>
            </trkpt>
            <trkpt lat="47.303652953" lon="4.924421907">
                <ele>434.572510</ele>
            </trkpt>
            <trkpt lat="47.303538434" lon="4.924672795">
                <ele>436.057495</ele>
            </trkpt>
            <trkpt lat="47.303429622" lon="4.924849388">
                <ele>437.077484</ele>
            </trkpt>
            <trkpt lat="47.303267291" lon="4.925064808">
                <ele>438.346191</ele>
            </trkpt>
            <trkpt lat="47.303099711" lon="4.925263434">
                <ele>439.757568</ele>
            </trkpt>
            <trkpt lat="47.302937380" lon="4.925478852">
                <ele>441.715790</ele>
            </trkpt>
            <trkpt lat="47.302783895" lon="4.925684659">
                <ele>443.747498</ele>
            </trkpt>
            <trkpt lat="47.302611563" lon="4.925865121">
                <ele>445.811707</ele>
            </trkpt>
            <trkpt lat="47.302403105" lon="4.926033095">
                <ele>448.166473</ele>
            </trkpt>
            <trkpt lat="47.302305213" lon="4.926076719">
                <ele>449.314240</ele>
            </trkpt>
            <trkpt lat="47.302208393" lon="4.926129915">
                <ele>450.625854</ele>
            </trkpt>
            <trkpt lat="47.302123921" lon="4.926134093">
                <ele>451.595764</ele>
            </trkpt>
            <trkpt lat="47.302034572" lon="4.926104956">
                <ele>452.475494</ele>
            </trkpt>
            <trkpt lat="47.301951397" lon="4.926051311">
                <ele>453.017181</ele>
            </trkpt>
            <trkpt lat="47.301856243" lon="4.926030163">
                <ele>453.923981</ele>
            </trkpt>
            <trkpt lat="47.301738613" lon="4.926007927">
                <ele>455.074646</ele>
            </trkpt>
            <trkpt lat="47.301647728" lon="4.925985485">
                <ele>455.564484</ele>
            </trkpt>
            <trkpt lat="47.301543612" lon="4.925924057">
                <ele>455.464111</ele>
            </trkpt>
            <trkpt lat="47.301433990" lon="4.925968302">
                <ele>456.858582</ele>
            </trkpt>
            <trkpt lat="47.301312119" lon="4.925962461">
                <ele>457.639923</ele>
            </trkpt>
            <trkpt lat="47.301275257" lon="4.926101254">
                <ele>460.175323</ele>
            </trkpt>
            <trkpt lat="47.301161209" lon="4.926170153">
                <ele>462.149872</ele>
            </trkpt>
            <trkpt lat="47.301042468" lon="4.926197479">
                <ele>463.517761</ele>
            </trkpt>
            <trkpt lat="47.300951082" lon="4.926259206">
                <ele>465.425507</ele>
            </trkpt>
            <trkpt lat="47.300826166" lon="4.926311040">
                <ele>467.551331</ele>
            </trkpt>
            <trkpt lat="47.300712119" lon="4.926379939">
                <ele>469.839722</ele>
            </trkpt>
            <trkpt lat="47.300592637" lon="4.926440304">
                <ele>471.906555</ele>
            </trkpt>
            <trkpt lat="47.300462843" lon="4.926458824">
                <ele>473.142456</ele>
            </trkpt>
            <trkpt lat="47.300338482" lon="4.926485876">
                <ele>474.643951</ele>
            </trkpt>
            <trkpt lat="47.300259445" lon="4.926498586">
                <ele>476.277405</ele>
                <time>2015-05-25T08:14:14Z</time>
            </trkpt>
            <trkpt lat="47.300154905" lon="4.926394292">
                <ele>476.189667</ele>
                <time>2015-05-25T08:14:35Z</time>
            </trkpt>
            <trkpt lat="47.300107481" lon="4.926251419">
                <ele>474.384521</ele>
                <time>2015-05-25T08:14:39Z</time>
            </trkpt>
            <trkpt lat="47.300027083" lon="4.926073873">
                <ele>472.922485</ele>
                <time>2015-05-25T08:14:59Z</time>
            </trkpt>
            <trkpt lat="47.299957923" lon="4.925896871">
                <ele>471.816162</ele>
                <time>2015-05-25T08:15:19Z</time>
            </trkpt>
            <trkpt lat="47.299856529" lon="4.925652156">
                <ele>471.052704</ele>
                <time>2015-05-25T08:15:39Z</time>
            </trkpt>
            <trkpt lat="47.299776686" lon="4.925449831">
                <ele>470.431885</ele>
                <time>2015-05-25T08:16:01Z</time>
            </trkpt>
            <trkpt lat="47.299718763" lon="4.925273376">
                <ele>470.389862</ele>
                <time>2015-05-25T08:16:18Z</time>
            </trkpt>
            <trkpt lat="47.299614592" lon="4.925152565">
                <ele>472.134674</ele>
                <time>2015-05-25T08:16:40Z</time>
            </trkpt>
            <trkpt lat="47.299526537" lon="4.925065611">
                <ele>473.873444</ele>
                <time>2015-05-25T08:16:54Z</time>
            </trkpt>
            <trkpt lat="47.299438113" lon="4.924995177">
                <ele>475.686249</ele>
                <time>2015-05-25T08:17:09Z</time>
            </trkpt>
            <trkpt lat="47.299356233" lon="4.924883715">
                <ele>476.963745</ele>
                <time>2015-05-25T08:17:25Z</time>
            </trkpt>
            <trkpt lat="47.299301152" lon="4.924831435">
                <ele>477.963745</ele>
                <time>2015-05-25T08:17:39Z</time>
            </trkpt>
            <trkpt lat="47.299245954" lon="4.925035488">
                <ele>480.736237</ele>
                <time>2015-05-25T08:17:55Z</time>
            </trkpt>
            <trkpt lat="47.299191681" lon="4.925198240">
                <ele>483.251251</ele>
                <time>2015-05-25T08:18:11Z</time>
            </trkpt>
            <trkpt lat="47.299148830" lon="4.925353276">
                <ele>485.373749</ele>
                <time>2015-05-25T08:18:26Z</time>
            </trkpt>
            <trkpt lat="47.299116848" lon="4.925525376">
                <ele>488.579224</ele>
                <time>2015-05-25T08:18:43Z</time>
            </trkpt>
            <trkpt lat="47.299068563" lon="4.925671880">
                <ele>493.001709</ele>
                <time>2015-05-25T08:18:59Z</time>
            </trkpt>
            <trkpt lat="47.299019538" lon="4.925851423">
                <ele>498.397980</ele>
                <time>2015-05-25T08:19:15Z</time>
            </trkpt>
            <trkpt lat="47.298983417" lon="4.925957170">
                <ele>502.178497</ele>
                <time>2015-05-25T08:19:31Z</time>
            </trkpt>
            <trkpt lat="47.298962301" lon="4.926146334">
                <ele>507.791046</ele>
                <time>2015-05-25T08:19:46Z</time>
            </trkpt>
            <trkpt lat="47.298925069" lon="4.926301641">
                <ele>514.489868</ele>
                <time>2015-05-25T08:20:01Z</time>
            </trkpt>
            <trkpt lat="47.298900186" lon="4.926407932">
                <ele>519.068176</ele>
                <time>2015-05-25T08:20:15Z</time>
            </trkpt>
            <trkpt lat="47.298874376" lon="4.926555523">
                <ele>525.055237</ele>
                <time>2015-05-25T08:20:29Z</time>
            </trkpt>
            <trkpt lat="47.298842947" lon="4.926702841">
                <ele>531.363770</ele>
                <time>2015-05-25T08:20:45Z</time>
            </trkpt>
            <trkpt lat="47.298788672" lon="4.926865591">
                <ele>538.378784</ele>
                <time>2015-05-25T08:21:01Z</time>
            </trkpt>
            <trkpt lat="47.298788487" lon="4.926873851">
                <ele>538.604919</ele>
            </trkpt>
            <trkpt lat="47.298751439" lon="4.927020897">
                <ele>544.112366</ele>
            </trkpt>
            <trkpt lat="47.298725999" lon="4.927151967">
                <ele>548.638489</ele>
            </trkpt>
            <trkpt lat="47.298689506" lon="4.927274233">
                <ele>553.362549</ele>
            </trkpt>
            <trkpt lat="47.298664807" lon="4.927372263">
                <ele>556.920410</ele>
            </trkpt>
            <trkpt lat="47.298628314" lon="4.927494528">
                <ele>560.572388</ele>
            </trkpt>
            <trkpt lat="47.298576075" lon="4.927566417">
                <ele>563.753235</ele>
            </trkpt>
            <trkpt lat="47.298503583" lon="4.927538097">
                <ele>565.947205</ele>
            </trkpt>
            <trkpt lat="47.298443996" lon="4.927435983">
                <ele>566.673462</ele>
            </trkpt>
            <trkpt lat="47.298356499" lon="4.927324247">
                <ele>567.800293</ele>
            </trkpt>
            <trkpt lat="47.298241462" lon="4.927186371">
                <ele>568.871033</ele>
            </trkpt>
            <trkpt lat="47.298143097" lon="4.927057572">
                <ele>569.745728</ele>
            </trkpt>
            <trkpt lat="47.298055600" lon="4.926945837">
                <ele>570.395752</ele>
            </trkpt>
            <trkpt lat="47.297967732" lon="4.926850623">
                <ele>571.271240</ele>
            </trkpt>
            <trkpt lat="47.297880419" lon="4.926730630">
                <ele>572.168274</ele>
            </trkpt>
            <trkpt lat="47.297781684" lon="4.926618352">
                <ele>572.869995</ele>
            </trkpt>
            <trkpt lat="47.297705609" lon="4.926498904">
                <ele>572.169739</ele>
            </trkpt>
            <trkpt lat="47.297629349" lon="4.926387716">
                <ele>571.690369</ele>
            </trkpt>
            <trkpt lat="47.297567753" lon="4.926315481">
                <ele>571.771790</ele>
            </trkpt>
            <trkpt lat="47.297503629" lon="4.926224520">
                <ele>571.567383</ele>
            </trkpt>
            <trkpt lat="47.297405077" lon="4.926103984">
                <ele>572.015747</ele>
            </trkpt>
            <trkpt lat="47.297301277" lon="4.925966657">
                <ele>572.363647</ele>
            </trkpt>
            <trkpt lat="47.297197292" lon="4.925837590">
                <ele>572.446228</ele>
            </trkpt>
            <trkpt lat="47.297035820" lon="4.925763621">
                <ele>574.651489</ele>
            </trkpt>
            <trkpt lat="47.296873607" lon="4.925722691">
                <ele>577.609680</ele>
            </trkpt>
            <trkpt lat="47.296727696" lon="4.925707356">
                <ele>580.251709</ele>
            </trkpt>
            <trkpt lat="47.296548441" lon="4.925673870">
                <ele>580.792053</ele>
            </trkpt>
            <trkpt lat="47.296340720" lon="4.925655542">
                <ele>582.285950</ele>
            </trkpt>
            <trkpt lat="47.296183398" lon="4.925635625">
                <ele>581.410950</ele>
            </trkpt>
            <trkpt lat="47.296079965" lon="4.925627913">
                <ele>580.945313</ele>
            </trkpt>
            <trkpt lat="47.295983825" lon="4.925651886">
                <ele>581.805603</ele>
            </trkpt>
            <trkpt lat="47.295878289" lon="4.925707565">
                <ele>583.781860</ele>
            </trkpt>
            <trkpt lat="47.295739995" lon="4.925774010">
                <ele>586.414795</ele>
            </trkpt>
            <trkpt lat="47.295583135" lon="4.925825568">
                <ele>588.405945</ele>
            </trkpt>
            <trkpt lat="47.295470384" lon="4.925836644">
                <ele>588.822998</ele>
            </trkpt>
            <trkpt lat="47.295347319" lon="4.925805879">
                <ele>587.988586</ele>
            </trkpt>
            <trkpt lat="47.295335896" lon="4.925813594">
                <ele>588.330017</ele>
                <time>2015-05-25T08:28:52Z</time>
            </trkpt>
            <trkpt lat="47.295198022" lon="4.925778536">
                <ele>587.716003</ele>
                <time>2015-05-25T08:29:11Z</time>
            </trkpt>
            <trkpt lat="47.295045555" lon="4.925716850">
                <ele>586.265625</ele>
            </trkpt>
            <trkpt lat="47.294882610" lon="4.925671248">
                <ele>586.019958</ele>
                <time>2015-05-25T08:29:34Z</time>
            </trkpt>
            <trkpt lat="47.294749595" lon="4.925619835">
                <ele>585.744507</ele>
            </trkpt>
            <trkpt lat="47.294587752" lon="4.925562389">
                <ele>585.730652</ele>
                <time>2015-05-25T08:29:53Z</time>
            </trkpt>
            <trkpt lat="47.294421031" lon="4.925471633">
                <ele>585.450500</ele>
                <time>2015-05-25T08:30:13Z</time>
            </trkpt>
            <trkpt lat="47.294231648" lon="4.925388049">
                <ele>586.701233</ele>
            </trkpt>
            <trkpt lat="47.294120747" lon="4.925316534">
                <ele>587.362732</ele>
                <time>2015-05-25T08:30:32Z</time>
            </trkpt>
            <trkpt lat="47.293965263" lon="4.925226324">
                <ele>589.336548</ele>
            </trkpt>
            <trkpt lat="47.293826071" lon="4.925133800">
                <ele>590.716309</ele>
                <time>2015-05-25T08:30:52Z</time>
            </trkpt>
            <trkpt lat="47.293738953" lon="4.925033468">
                <ele>589.825928</ele>
            </trkpt>
            <trkpt lat="47.293598503" lon="4.924896676">
                <ele>588.823181</ele>
                <time>2015-05-25T08:31:10Z</time>
            </trkpt>
            <trkpt lat="47.293497635" lon="4.924757205">
                <ele>586.702271</ele>
            </trkpt>
            <trkpt lat="47.293399267" lon="4.924628422">
                <ele>585.886658</ele>
                <time>2015-05-25T08:31:31Z</time>
            </trkpt>
            <trkpt lat="47.293266814" lon="4.924514526">
                <ele>587.324402</ele>
            </trkpt>
            <trkpt lat="47.293118245" lon="4.924366778">
                <ele>586.254395</ele>
            </trkpt>
            <trkpt lat="47.292991226" lon="4.924261414">
                <ele>585.449707</ele>
                <time>2015-05-25T08:31:52Z</time>
            </trkpt>
            <trkpt lat="47.292870618" lon="4.924182957">
                <ele>585.687988</ele>
                <time>2015-05-25T08:32:12Z</time>
            </trkpt>
            <trkpt lat="47.292795433" lon="4.924119925">
                <ele>585.591492</ele>
                <time>2015-05-25T08:32:18Z</time>
            </trkpt>
            <trkpt lat="47.292692605" lon="4.924031994">
                <ele>585.184387</ele>
                <time>2015-05-25T08:32:40Z</time>
            </trkpt>
            <trkpt lat="47.292598931" lon="4.923944781">
                <ele>584.910645</ele>
                <time>2015-05-25T08:32:59Z</time>
            </trkpt>
            <trkpt lat="47.292499822" lon="4.923849038">
                <ele>585.276978</ele>
                <time>2015-05-25T08:33:16Z</time>
            </trkpt>
            <trkpt lat="47.292417201" lon="4.923770629">
                <ele>585.748779</ele>
                <time>2015-05-25T08:33:37Z</time>
            </trkpt>
            <trkpt lat="47.292328775" lon="4.923700207">
                <ele>585.535767</ele>
                <time>2015-05-25T08:33:57Z</time>
            </trkpt>
            <trkpt lat="47.292245968" lon="4.923630057">
                <ele>584.058350</ele>
                <time>2015-05-25T08:34:11Z</time>
            </trkpt>
            <trkpt lat="47.292140500" lon="4.923567078">
                <ele>583.038635</ele>
                <time>2015-05-25T08:34:33Z</time>
            </trkpt>
            <trkpt lat="47.292063498" lon="4.923488942">
                <ele>581.343262</ele>
                <time>2015-05-25T08:34:56Z</time>
            </trkpt>
            <trkpt lat="47.291946237" lon="4.923450197">
                <ele>581.537720</ele>
                <time>2015-05-25T08:35:18Z</time>
            </trkpt>
            <trkpt lat="47.291840214" lon="4.923411996">
                <ele>581.593750</ele>
                <time>2015-05-25T08:35:41Z</time>
            </trkpt>
            <trkpt lat="47.291722583" lon="4.923389770">
                <ele>581.939270</ele>
                <time>2015-05-25T08:36:03Z</time>
            </trkpt>
            <trkpt lat="47.291604582" lon="4.923384061">
                <ele>582.793884</ele>
                <time>2015-05-25T08:36:05Z</time>
            </trkpt>
            <trkpt lat="47.291452681" lon="4.923384980">
                <ele>584.077759</ele>
                <time>2015-05-25T08:36:24Z</time>
            </trkpt>
            <trkpt lat="47.291289913" lon="4.923368838">
                <ele>584.887268</ele>
                <time>2015-05-25T08:36:48Z</time>
            </trkpt>
            <trkpt lat="47.291138012" lon="4.923369757">
                <ele>585.957703</ele>
                <time>2015-05-25T08:37:09Z</time>
            </trkpt>
            <trkpt lat="47.291003894" lon="4.923330198">
                <ele>586.086548</ele>
                <time>2015-05-25T08:37:24Z</time>
            </trkpt>
            <trkpt lat="47.290880829" lon="4.923299441">
                <ele>586.311401</ele>
                <time>2015-05-25T08:37:45Z</time>
            </trkpt>
            <trkpt lat="47.290741461" lon="4.923243093">
                <ele>586.287720</ele>
                <time>2015-05-25T08:38:04Z</time>
            </trkpt>
            <trkpt lat="47.290630004" lon="4.923196363">
                <ele>586.374023</ele>
                <time>2015-05-25T08:38:22Z</time>
            </trkpt>
            <trkpt lat="47.290518731" lon="4.923141374">
                <ele>586.473755</ele>
                <time>2015-05-25T08:38:31Z</time>
            </trkpt>
            <trkpt lat="47.290412708" lon="4.923103175">
                <ele>586.867859</ele>
                <time>2015-05-25T08:38:45Z</time>
            </trkpt>
            <trkpt lat="47.290317923" lon="4.923065520">
                <ele>587.280518</ele>
                <time>2015-05-25T08:38:59Z</time>
            </trkpt>
            <trkpt lat="47.290195043" lon="4.923026506">
                <ele>588.017639</ele>
                <time>2015-05-25T08:39:13Z</time>
            </trkpt>
            <trkpt lat="47.290099888" lon="4.923005368">
                <ele>588.404968</ele>
                <time>2015-05-25T08:39:26Z</time>
            </trkpt>
            <trkpt lat="47.289993680" lon="4.922975428">
                <ele>588.770386</ele>
                <time>2015-05-25T08:39:46Z</time>
            </trkpt>
            <trkpt lat="47.289893091" lon="4.922945760">
                <ele>589.155640</ele>
                <time>2015-05-25T08:40:07Z</time>
            </trkpt>
            <trkpt lat="47.289792317" lon="4.922924350">
                <ele>589.842285</ele>
                <time>2015-05-25T08:40:23Z</time>
            </trkpt>
            <trkpt lat="47.289697902" lon="4.922870178">
                <ele>589.509460</ele>
                <time>2015-05-25T08:40:37Z</time>
            </trkpt>
            <trkpt lat="47.289637202" lon="4.922817637">
                <ele>588.864685</ele>
                <time>2015-05-25T08:40:49Z</time>
            </trkpt>
            <trkpt lat="47.289720677" lon="4.922606719">
                <ele>581.498108</ele>
                <time>2015-05-25T08:41:03Z</time>
            </trkpt>
            <trkpt lat="47.289786924" lon="4.922411502">
                <ele>574.560730</ele>
                <time>2015-05-25T08:41:27Z</time>
            </trkpt>
            <trkpt lat="47.289841194" lon="4.922248776">
                <ele>568.375916</ele>
                <time>2015-05-25T08:41:39Z</time>
            </trkpt>
            <trkpt lat="47.289907440" lon="4.922053558">
                <ele>560.300293</ele>
                <time>2015-05-25T08:41:49Z</time>
            </trkpt>
            <trkpt lat="47.289996903" lon="4.921826391">
                <ele>550.088623</ele>
                <time>2015-05-25T08:41:56Z</time>
            </trkpt>
            <trkpt lat="47.290068398" lon="4.921647961">
                <ele>541.604614</ele>
                <time>2015-05-25T08:42:06Z</time>
            </trkpt>
            <trkpt lat="47.290133905" lon="4.921485776">
                <ele>533.945007</ele>
                <time>2015-05-25T08:42:14Z</time>
            </trkpt>
            <trkpt lat="47.290200150" lon="4.921290557">
                <ele>525.530029</ele>
                <time>2015-05-25T08:42:23Z</time>
            </trkpt>
            <trkpt lat="47.290237561" lon="4.921127013">
                <ele>518.854980</ele>
                <time>2015-05-25T08:42:34Z</time>
            </trkpt>
            <trkpt lat="47.290252125" lon="4.920978900">
                <ele>513.818726</ele>
                <time>2015-05-25T08:42:43Z</time>
            </trkpt>
            <trkpt lat="47.290272309" lon="4.920831058">
                <ele>509.484497</ele>
                <time>2015-05-25T08:42:50Z</time>
            </trkpt>
            <trkpt lat="47.290287242" lon="4.920666428">
                <ele>504.853729</ele>
                <time>2015-05-25T08:43:03Z</time>
            </trkpt>
            <trkpt lat="47.290313783" lon="4.920485823">
                <ele>499.590790</ele>
                <time>2015-05-25T08:43:19Z</time>
            </trkpt>
            <trkpt lat="47.290339954" lon="4.920321736">
                <ele>495.117188</ele>
                <time>2015-05-25T08:43:34Z</time>
            </trkpt>
            <trkpt lat="47.290360321" lon="4.920165635">
                <ele>491.509247</ele>
                <time>2015-05-25T08:43:42Z</time>
            </trkpt>
            <trkpt lat="47.290409338" lon="4.919986115">
                <ele>486.969513</ele>
                <time>2015-05-25T08:49:24Z</time>
            </trkpt>
            <trkpt lat="47.290441312" lon="4.919814040">
                <ele>482.929443</ele>
                <time>2015-05-25T08:49:50Z</time>
            </trkpt>
            <trkpt lat="47.290484525" lon="4.919642507">
                <ele>478.672241</ele>
                <time>2015-05-25T08:50:16Z</time>
            </trkpt>
            <trkpt lat="47.290538605" lon="4.919488035">
                <ele>474.118500</ele>
                <time>2015-05-25T08:50:47Z</time>
            </trkpt>
            <trkpt lat="47.290615717" lon="4.919309871">
                <ele>468.039795</ele>
                <time>2015-05-25T08:51:10Z</time>
            </trkpt>
            <trkpt lat="47.290687024" lon="4.919139694">
                <ele>463.002808</ele>
                <time>2015-05-25T08:51:41Z</time>
            </trkpt>
            <trkpt lat="47.290775003" lon="4.918978590">
                <ele>458.566864</ele>
                <time>2015-05-25T08:52:16Z</time>
            </trkpt>
            <trkpt lat="47.290852483" lon="4.918783907">
                <ele>453.108887</ele>
                <time>2015-05-25T08:52:24Z</time>
            </trkpt>
            <trkpt lat="47.290940831" lon="4.918606284">
                <ele>446.540131</ele>
                <time>2015-05-25T08:52:25Z</time>
            </trkpt>
            <trkpt lat="47.291051101" lon="4.918454522">
                <ele>438.750000</ele>
                <time>2015-05-25T08:52:34Z</time>
            </trkpt>
            <trkpt lat="47.291144330" lon="4.918310205">
                <ele>436.314301</ele>
                <time>2015-05-25T08:52:44Z</time>
            </trkpt>
            <trkpt lat="47.291220701" lon="4.918165073">
                <ele>434.357483</ele>
                <time>2015-05-25T08:52:55Z</time>
            </trkpt>
            <trkpt lat="47.291318994" lon="4.918045802">
                <ele>431.087860</ele>
                <time>2015-05-25T08:53:05Z</time>
            </trkpt>
            <trkpt lat="47.291422722" lon="4.917935061">
                <ele>426.472198</ele>
                <time>2015-05-25T08:53:16Z</time>
            </trkpt>
            <trkpt lat="47.291515950" lon="4.917790742">
                <ele>420.114197</ele>
                <time>2015-05-25T08:53:27Z</time>
            </trkpt>
            <trkpt lat="47.291591766" lon="4.917670384">
                <ele>419.044922</ele>
                <time>2015-05-25T08:53:40Z</time>
            </trkpt>
            <trkpt lat="47.291667767" lon="4.917541768">
                <ele>418.328949</ele>
                <time>2015-05-25T08:53:53Z</time>
            </trkpt>
            <trkpt lat="47.291755191" lon="4.917405435">
                <ele>416.207672</ele>
                <time>2015-05-25T08:54:06Z</time>
            </trkpt>
            <trkpt lat="47.291843168" lon="4.917244325">
                <ele>412.213867</ele>
                <time>2015-05-25T08:54:15Z</time>
            </trkpt>
            <trkpt lat="47.291914841" lon="4.917057623">
                <ele>407.455505</ele>
                <time>2015-05-25T08:54:35Z</time>
            </trkpt>
            <trkpt lat="47.291996645" lon="4.916921018">
                <ele>403.105743</ele>
                <time>2015-05-25T08:54:44Z</time>
            </trkpt>
            <trkpt lat="47.292084068" lon="4.916784683">
                <ele>400.337860</ele>
                <time>2015-05-25T08:54:46Z</time>
            </trkpt>
            <trkpt lat="47.292143395" lon="4.916646991">
                <ele>397.546265</ele>
                <time>2015-05-25T08:54:51Z</time>
            </trkpt>
            <trkpt lat="47.292197103" lon="4.916509029">
                <ele>394.191010</ele>
                <time>2015-05-25T08:54:59Z</time>
            </trkpt>
            <trkpt lat="47.292274025" lon="4.916339114">
                <ele>390.784241</ele>
                <time>2015-05-25T08:55:10Z</time>
            </trkpt>
            <trkpt lat="47.292344958" lon="4.916185446">
                <ele>386.540741</ele>
                <time>2015-05-25T08:55:22Z</time>
            </trkpt>
            <trkpt lat="47.292399219" lon="4.916022706">
                <ele>381.651764</ele>
                <time>2015-05-25T08:55:36Z</time>
            </trkpt>
            <trkpt lat="47.292498801" lon="4.915845615">
                <ele>374.067871</ele>
                <time>2015-05-25T08:55:50Z</time>
            </trkpt>
            <trkpt lat="47.292631729" lon="4.915686668">
                <ele>374.228546</ele>
                <time>2015-05-25T08:56:04Z</time>
            </trkpt>
            <trkpt lat="47.292746508" lon="4.915584721">
                <ele>373.199646</ele>
                <time>2015-05-25T08:56:18Z</time>
            </trkpt>
            <trkpt lat="47.292854193" lon="4.915548575">
                <ele>371.538483</ele>
                <time>2015-05-25T08:56:34Z</time>
            </trkpt>
            <trkpt lat="47.292962800" lon="4.915471134">
                <ele>369.701202</ele>
                <time>2015-05-25T08:56:49Z</time>
            </trkpt>
            <trkpt lat="47.293094068" lon="4.915386517">
                <ele>368.261505</ele>
                <time>2015-05-25T08:57:09Z</time>
            </trkpt>
            <trkpt lat="47.293202675" lon="4.915309074">
                <ele>366.209290</ele>
                <time>2015-05-25T08:57:26Z</time>
            </trkpt>
            <trkpt lat="47.293317269" lon="4.915215384">
                <ele>363.320770</ele>
                <time>2015-05-25T08:57:41Z</time>
            </trkpt>
            <trkpt lat="47.293403768" lon="4.915120339">
                <ele>361.675232</ele>
                <time>2015-05-25T08:57:55Z</time>
            </trkpt>
            <trkpt lat="47.293502059" lon="4.915001058">
                <ele>361.919800</ele>
                <time>2015-05-25T08:58:06Z</time>
            </trkpt>
            <trkpt lat="47.293600902" lon="4.914856999">
                <ele>360.930634</ele>
                <time>2015-05-25T08:58:19Z</time>
            </trkpt>
            <trkpt lat="47.293699929" lon="4.914704680">
                <ele>358.569550</ele>
                <time>2015-05-25T08:58:32Z</time>
            </trkpt>
            <trkpt lat="47.293787165" lon="4.914576596">
                <ele>355.609985</ele>
                <time>2015-05-25T08:58:41Z</time>
            </trkpt>
            <trkpt lat="47.293863531" lon="4.914431451">
                <ele>352.558014</ele>
                <time>2015-05-25T08:58:53Z</time>
            </trkpt>
            <trkpt lat="47.293951135" lon="4.914286848">
                <ele>350.634827</ele>
                <time>2015-05-25T08:59:13Z</time>
            </trkpt>
            <trkpt lat="47.293983654" lon="4.914089980">
                <ele>347.309692</ele>
                <time>2015-05-25T08:59:23Z</time>
            </trkpt>
            <trkpt lat="47.294032477" lon="4.913918702">
                <ele>344.072388</ele>
                <time>2015-05-25T08:59:34Z</time>
            </trkpt>
            <trkpt lat="47.294058454" lon="4.913762859">
                <ele>340.750000</ele>
                <time>2015-05-25T08:59:54Z</time>
            </trkpt>
            <trkpt lat="47.294128279" lon="4.913658739">
                <ele>338.230865</ele>
                <time>2015-05-25T09:00:19Z</time>
            </trkpt>
            <trkpt lat="47.294188708" lon="4.913471483">
                <ele>333.880798</ele>
                <time>2015-05-25T09:00:43Z</time>
            </trkpt>
            <trkpt lat="47.294221410" lon="4.913266354">
                <ele>329.477753</ele>
                <time>2015-05-25T09:01:13Z</time>
            </trkpt>
            <trkpt lat="47.294220028" lon="4.913076119">
                <ele>327.137268</ele>
                <time>2015-05-25T09:01:43Z</time>
            </trkpt>
            <trkpt lat="47.294240938" lon="4.912895227">
                <ele>324.760406</ele>
                <time>2015-05-25T09:02:06Z</time>
            </trkpt>
            <trkpt lat="47.294278520" lon="4.912723405">
                <ele>322.433624</ele>
                <time>2015-05-25T09:02:18Z</time>
            </trkpt>
            <trkpt lat="47.294304128" lon="4.912584080">
                <ele>322.231750</ele>
                <time>2015-05-25T09:02:33Z</time>
            </trkpt>
            <trkpt lat="47.294318866" lon="4.912427694">
                <ele>325.085999</ele>
                <time>2015-05-25T09:02:56Z</time>
            </trkpt>
            <trkpt lat="47.294322733" lon="4.912254248">
                <ele>328.278015</ele>
                <time>2015-05-25T09:03:15Z</time>
            </trkpt>
            <trkpt lat="47.294331299" lon="4.912122369">
                <ele>330.752502</ele>
                <time>2015-05-25T09:03:33Z</time>
            </trkpt>
            <trkpt lat="47.294357458" lon="4.911958265">
                <ele>334.514069</ele>
                <time>2015-05-25T09:03:47Z</time>
            </trkpt>
            <trkpt lat="47.294377936" lon="4.911806406">
                <ele>340.535126</ele>
                <time>2015-05-25T09:04:02Z</time>
            </trkpt>
            <trkpt lat="47.294412889" lon="4.911658717">
                <ele>346.414185</ele>
                <time>2015-05-25T09:04:16Z</time>
            </trkpt>
            <trkpt lat="47.294438286" lon="4.911551848">
                <ele>350.701141</ele>
                <time>2015-05-25T09:04:31Z</time>
            </trkpt>
            <trkpt lat="47.294465319" lon="4.911409490">
                <ele>356.376434</ele>
                <time>2015-05-25T09:04:45Z</time>
            </trkpt>
            <trkpt lat="47.294492213" lon="4.911212347">
                <ele>362.954620</ele>
                <time>2015-05-25T09:07:28Z</time>
            </trkpt>
            <trkpt lat="47.294529794" lon="4.911040524">
                <ele>368.069733</ele>
                <time>2015-05-25T09:07:45Z</time>
            </trkpt>
            <trkpt lat="47.294562859" lon="4.910818874">
                <ele>374.530396</ele>
                <time>2015-05-25T09:08:02Z</time>
            </trkpt>
            <trkpt lat="47.294595188" lon="4.910630261">
                <ele>380.192383</ele>
                <time>2015-05-25T09:08:18Z</time>
            </trkpt>
            <trkpt lat="47.294626964" lon="4.910466426">
                <ele>385.365753</ele>
                <time>2015-05-25T09:08:46Z</time>
            </trkpt>
            <trkpt lat="47.294658740" lon="4.910302590">
                <ele>390.596893</ele>
                <time>2015-05-25T09:08:59Z</time>
            </trkpt>
            <trkpt lat="47.294686921" lon="4.910047631">
                <ele>398.467773</ele>
                <time>2015-05-25T09:09:14Z</time>
            </trkpt>
            <trkpt lat="47.294729382" lon="4.909909114">
                <ele>402.736237</ele>
                <time>2015-05-25T09:09:30Z</time>
            </trkpt>
            <trkpt lat="47.294756091" lon="4.909720230">
                <ele>407.923737</ele>
                <time>2015-05-25T09:09:47Z</time>
            </trkpt>
            <trkpt lat="47.294799104" lon="4.909556934">
                <ele>412.713745</ele>
                <time>2015-05-25T09:10:02Z</time>
            </trkpt>
            <trkpt lat="47.294819640" lon="4.909392557">
                <ele>417.173737</ele>
                <time>2015-05-25T09:10:17Z</time>
            </trkpt>
            <trkpt lat="47.294845796" lon="4.909228450">
                <ele>421.179321</ele>
                <time>2015-05-25T09:10:34Z</time>
            </trkpt>
            <trkpt lat="47.294877938" lon="4.909048095">
                <ele>425.410614</ele>
                <time>2015-05-25T09:10:51Z</time>
            </trkpt>
            <trkpt lat="47.294910264" lon="4.908859480">
                <ele>429.752136</ele>
                <time>2015-05-25T09:11:07Z</time>
            </trkpt>
            <trkpt lat="47.294948024" lon="4.908679394">
                <ele>433.993744</ele>
                <time>2015-05-25T09:11:24Z</time>
            </trkpt>
            <trkpt lat="47.295065658" lon="4.908701590">
                <ele>434.943756</ele>
                <time>2015-05-25T09:11:44Z</time>
            </trkpt>
            <trkpt lat="47.295157035" lon="4.908639839">
                <ele>437.443756</ele>
                <time>2015-05-25T09:11:46Z</time>
            </trkpt>
            <trkpt lat="47.295185700" lon="4.908407377">
                <ele>442.981262</ele>
                <time>2015-05-25T09:12:24Z</time>
            </trkpt>
            <trkpt lat="47.295202045" lon="4.908230100">
                <ele>447.181244</ele>
                <time>2015-05-25T09:12:56Z</time>
            </trkpt>
            <trkpt lat="47.295248758" lon="4.908057200">
                <ele>451.631256</ele>
                <time>2015-05-25T09:13:27Z</time>
            </trkpt>
            <trkpt lat="47.295275647" lon="4.907860053">
                <ele>457.676697</ele>
                <time>2015-05-25T09:14:02Z</time>
            </trkpt>
            <trkpt lat="47.295313039" lon="4.907696484">
                <ele>462.822632</ele>
                <time>2015-05-25T09:14:19Z</time>
            </trkpt>
            <trkpt lat="47.295339008" lon="4.907540634">
                <ele>467.568756</ele>
                <time>2015-05-25T09:14:49Z</time>
            </trkpt>
            <trkpt lat="47.295359174" lon="4.907392774">
                <ele>472.064423</ele>
                <time>2015-05-25T09:15:10Z</time>
            </trkpt>
            <trkpt lat="47.295385143" lon="4.907236924">
                <ele>479.808777</ele>
                <time>2015-05-25T09:15:28Z</time>
            </trkpt>
            <trkpt lat="47.295411295" lon="4.907072814">
                <ele>487.882843</ele>
                <time>2015-05-25T09:16:27Z</time>
            </trkpt>
            <trkpt lat="47.295454488" lon="4.906901255">
                <ele>496.380341</ele>
                <time>2015-05-25T09:17:06Z</time>
            </trkpt>
            <trkpt lat="47.295486076" lon="4.906745675">
                <ele>504.006287</ele>
                <time>2015-05-25T09:17:21Z</time>
            </trkpt>
            <trkpt lat="47.295524936" lon="4.906516028">
                <ele>514.977478</ele>
                <time>2015-05-25T09:18:36Z</time>
            </trkpt>
            <trkpt lat="47.295551638" lon="4.906327139">
                <ele>524.100769</ele>
                <time>2015-05-25T09:19:50Z</time>
            </trkpt>
            <trkpt lat="47.295606252" lon="4.906147860">
                <ele>533.245605</ele>
                <time>2015-05-25T09:20:09Z</time>
            </trkpt>
            <trkpt lat="47.295627335" lon="4.905958700">
                <ele>541.352234</ele>
                <time>2015-05-25T09:21:10Z</time>
            </trkpt>
            <trkpt lat="47.295659656" lon="4.905770080">
                <ele>548.931885</ele>
                <time>2015-05-25T09:22:44Z</time>
            </trkpt>
            <trkpt lat="47.295698337" lon="4.905595919">
                <ele>555.892151</ele>
                <time>2015-05-25T09:23:58Z</time>
            </trkpt>
            <trkpt lat="47.295722142" lon="4.905431802">
                <ele>562.236206</ele>
                <time>2015-05-25T09:25:24Z</time>
            </trkpt>
            <trkpt lat="47.295755147" lon="4.905270297">
                <ele>564.007813</ele>
                <time>2015-05-25T09:25:40Z</time>
            </trkpt>
            <trkpt lat="47.295788936" lon="4.905015599">
                <ele>566.393311</ele>
                <time>2015-05-25T09:25:54Z</time>
            </trkpt>
            <trkpt lat="47.295820042" lon="4.904805254">
                <ele>568.169678</ele>
                <time>2015-05-25T09:26:11Z</time>
            </trkpt>
            <trkpt lat="47.295877961" lon="4.904602245">
                <ele>567.851135</ele>
                <time>2015-05-25T09:26:25Z</time>
            </trkpt>
            <trkpt lat="47.295906054" lon="4.904301873">
                <ele>567.095642</ele>
                <time>2015-05-25T09:26:38Z</time>
            </trkpt>
            <trkpt lat="47.295972822" lon="4.904081832">
                <ele>565.604980</ele>
                <time>2015-05-25T09:26:53Z</time>
            </trkpt>
            <trkpt lat="47.296000621" lon="4.903843382">
                <ele>565.155029</ele>
                <time>2015-05-25T09:27:05Z</time>
            </trkpt>
            <trkpt lat="47.296069040" lon="4.903549003">
                <ele>563.895020</ele>
                <time>2015-05-25T09:27:21Z</time>
            </trkpt>
            <trkpt lat="47.296108627" lon="4.903286313">
                <ele>563.757507</ele>
                <time>2015-05-25T09:27:36Z</time>
            </trkpt>
            <trkpt lat="47.296163787" lon="4.903082250">
                <ele>563.392517</ele>
                <time>2015-05-25T09:28:03Z</time>
            </trkpt>
            <trkpt lat="47.296198305" lon="4.902794511">
                <ele>563.708374</ele>
                <time>2015-05-25T09:28:05Z</time>
            </trkpt>
            <trkpt lat="47.296236056" lon="4.902614417">
                <ele>564.051025</ele>
                <time>2015-05-25T09:28:07Z</time>
            </trkpt>
            <trkpt lat="47.296280527" lon="4.902385034">
                <ele>564.792847</ele>
                <time>2015-05-25T09:28:18Z</time>
            </trkpt>
            <trkpt lat="47.296314860" lon="4.902105553">
                <ele>565.950867</ele>
                <time>2015-05-25T09:28:33Z</time>
            </trkpt>
            <trkpt lat="47.296359146" lon="4.901884429">
                <ele>566.017334</ele>
                <time>2015-05-25T09:28:48Z</time>
            </trkpt>
            <trkpt lat="47.296399097" lon="4.901605217">
                <ele>566.646118</ele>
                <time>2015-05-25T09:28:53Z</time>
            </trkpt>
            <trkpt lat="47.296392260" lon="4.901406446">
                <ele>565.287720</ele>
                <time>2015-05-25T09:29:04Z</time>
            </trkpt>
            <trkpt lat="47.296250131" lon="4.901474044">
                <ele>566.011780</ele>
                <time>2015-05-25T09:29:18Z</time>
            </trkpt>
            <trkpt lat="47.296102200" lon="4.901549632">
                <ele>565.933228</ele>
                <time>2015-05-25T09:29:28Z</time>
            </trkpt>
            <trkpt lat="47.295970942" lon="4.901634287">
                <ele>566.227539</ele>
            </trkpt>
            <trkpt lat="47.295839685" lon="4.901718943">
                <ele>565.898987</ele>
                <time>2015-05-25T09:29:43Z</time>
            </trkpt>
            <trkpt lat="47.295747394" lon="4.901822004">
                <ele>566.513000</ele>
                <time>2015-05-25T09:29:57Z</time>
            </trkpt>
            <trkpt lat="47.295643682" lon="4.901932785">
                <ele>567.743774</ele>
                <time>2015-05-25T09:30:12Z</time>
            </trkpt>
            <trkpt lat="47.295546139" lon="4.902019057">
                <ele>569.146973</ele>
                <time>2015-05-25T09:30:24Z</time>
            </trkpt>
            <trkpt lat="47.295386785" lon="4.902102362">
                <ele>569.931091</ele>
                <time>2015-05-25T09:30:40Z</time>
            </trkpt>
            <trkpt lat="47.295249908" lon="4.902186746">
                <ele>569.511658</ele>
                <time>2015-05-25T09:30:49Z</time>
            </trkpt>
            <trkpt lat="47.295113398" lon="4.902254610">
                <ele>569.343323</ele>
                <time>2015-05-25T09:31:03Z</time>
            </trkpt>
            <trkpt lat="47.294965283" lon="4.902338454">
                <ele>569.653687</ele>
                <time>2015-05-25T09:31:18Z</time>
            </trkpt>
            <trkpt lat="47.294827305" lon="4.902472393">
                <ele>571.353455</ele>
            </trkpt>
            <trkpt lat="47.294713087" lon="4.902549594">
                <ele>572.772522</ele>
                <time>2015-05-25T09:31:32Z</time>
            </trkpt>
            <trkpt lat="47.294554100" lon="4.902616378">
                <ele>574.293335</ele>
                <time>2015-05-25T09:31:41Z</time>
            </trkpt>
            <trkpt lat="47.294362132" lon="4.902648506">
                <ele>574.258484</ele>
                <time>2015-05-25T09:31:56Z</time>
            </trkpt>
            <trkpt lat="47.294205353" lon="4.902686728">
                <ele>574.684875</ele>
                <time>2015-05-25T09:32:12Z</time>
            </trkpt>
            <trkpt lat="47.294029836" lon="4.902772475">
                <ele>574.714355</ele>
                <time>2015-05-25T09:32:27Z</time>
            </trkpt>
            <trkpt lat="47.293890790" lon="4.902849124">
                <ele>574.458984</ele>
                <time>2015-05-25T09:32:42Z</time>
            </trkpt>
            <trkpt lat="47.293731620" lon="4.902924165">
                <ele>574.347778</ele>
            </trkpt>
            <trkpt lat="47.293562128" lon="4.902957370">
                <ele>573.799805</ele>
                <time>2015-05-25T09:32:50Z</time>
            </trkpt>
            <trkpt lat="47.293422200" lon="4.902925850">
                <ele>572.348389</ele>
                <time>2015-05-25T09:33:09Z</time>
            </trkpt>
            <trkpt lat="47.293253809" lon="4.902909500">
                <ele>570.973206</ele>
                <time>2015-05-25T09:33:27Z</time>
            </trkpt>
            <trkpt lat="47.293100618" lon="4.902899880">
                <ele>570.219421</ele>
                <time>2015-05-25T09:33:34Z</time>
            </trkpt>
            <trkpt lat="47.292977572" lon="4.902957044">
                <ele>571.099243</ele>
                <time>2015-05-25T09:33:43Z</time>
            </trkpt>
            <trkpt lat="47.292840676" lon="4.903021958">
                <ele>572.287598</ele>
            </trkpt>
            <trkpt lat="47.292715404" lon="4.903090356">
                <ele>573.427124</ele>
                <time>2015-05-25T09:34:03Z</time>
            </trkpt>
            <trkpt lat="47.292572356" lon="4.903199241">
                <ele>575.237061</ele>
                <time>2015-05-25T09:34:11Z</time>
            </trkpt>
            <trkpt lat="47.292473528" lon="4.903343319">
                <ele>577.034973</ele>
                <time>2015-05-25T09:34:19Z</time>
            </trkpt>
            <trkpt lat="47.292355383" lon="4.903503796">
                <ele>576.270020</ele>
                <time>2015-05-25T09:34:33Z</time>
            </trkpt>
            <trkpt lat="47.292264999" lon="4.903614416">
                <ele>575.789978</ele>
            </trkpt>
            <trkpt lat="47.292149496" lon="4.903749424">
                <ele>575.289978</ele>
                <time>2015-05-25T09:34:47Z</time>
            </trkpt>
            <trkpt lat="47.292042319" lon="4.903864218">
                <ele>574.820007</ele>
                <time>2015-05-25T09:35:01Z</time>
            </trkpt>
            <trkpt lat="47.291931380" lon="4.903945647">
                <ele>573.626587</ele>
            </trkpt>
            <trkpt lat="47.291788698" lon="4.904038009">
                <ele>569.224976</ele>
                <time>2015-05-25T09:35:16Z</time>
            </trkpt>
            <trkpt lat="47.291654206" lon="4.904015016">
                <ele>568.556702</ele>
                <time>2015-05-25T09:35:26Z</time>
            </trkpt>
            <trkpt lat="47.291520265" lon="4.903967246">
                <ele>568.793884</ele>
                <time>2015-05-25T09:35:41Z</time>
            </trkpt>
            <trkpt lat="47.291397745" lon="4.903911757">
                <ele>569.469238</ele>
                <time>2015-05-25T09:35:55Z</time>
            </trkpt>
            <trkpt lat="47.291264171" lon="4.903847470">
                <ele>568.788757</ele>
                <time>2015-05-25T09:36:13Z</time>
            </trkpt>
            <trkpt lat="47.291114106" lon="4.903765856">
                <ele>567.561279</ele>
                <time>2015-05-25T09:36:32Z</time>
            </trkpt>
            <trkpt lat="47.290985967" lon="4.903710098">
                <ele>566.476257</ele>
                <time>2015-05-25T09:36:48Z</time>
            </trkpt>
            <trkpt lat="47.290863998" lon="4.903629833">
                <ele>565.546509</ele>
                <time>2015-05-25T09:37:08Z</time>
            </trkpt>
            <trkpt lat="47.290788083" lon="4.903502174">
                <ele>564.931824</ele>
                <time>2015-05-25T09:37:11Z</time>
            </trkpt>
            <trkpt lat="47.290694943" lon="4.903390224">
                <ele>564.034058</ele>
                <time>2015-05-25T09:37:24Z</time>
            </trkpt>
            <trkpt lat="47.290578043" lon="4.903335007">
                <ele>562.802612</ele>
                <time>2015-05-25T09:37:40Z</time>
            </trkpt>
            <trkpt lat="47.290477265" lon="4.903313634">
                <ele>561.810181</ele>
                <time>2015-05-25T09:37:55Z</time>
            </trkpt>
            <trkpt lat="47.290376488" lon="4.903292262">
                <ele>560.946228</ele>
                <time>2015-05-25T09:38:00Z</time>
            </trkpt>
            <trkpt lat="47.290269724" lon="4.903287137">
                <ele>560.057678</ele>
                <time>2015-05-25T09:38:14Z</time>
            </trkpt>
            <trkpt lat="47.290163327" lon="4.903265495">
                <ele>559.224548</ele>
                <time>2015-05-25T09:38:23Z</time>
            </trkpt>
            <trkpt lat="47.290034821" lon="4.903226256">
                <ele>558.262024</ele>
                <time>2015-05-25T09:38:36Z</time>
            </trkpt>
            <trkpt lat="47.289928975" lon="4.903179838">
                <ele>557.312988</ele>
                <time>2015-05-25T09:38:47Z</time>
            </trkpt>
            <trkpt lat="47.289856660" lon="4.903143297">
                <ele>556.021240</ele>
                <time>2015-05-25T09:38:56Z</time>
            </trkpt>
            <trkpt lat="47.289755699" lon="4.903130184">
                <ele>554.674622</ele>
                <time>2015-05-25T09:39:06Z</time>
            </trkpt>
            <trkpt lat="47.289643867" lon="4.903100014">
                <ele>552.758850</ele>
                <time>2015-05-25T09:39:07Z</time>
            </trkpt>
            <trkpt lat="47.289626711" lon="4.902859435">
                <ele>545.994141</ele>
                <time>2015-05-25T09:40:48Z</time>
            </trkpt>
            <trkpt lat="47.289607721" lon="4.902701442">
                <ele>541.574890</ele>
                <time>2015-05-25T09:40:58Z</time>
            </trkpt>
            <trkpt lat="47.289595450" lon="4.902494167">
                <ele>535.920715</ele>
                <time>2015-05-25T09:41:08Z</time>
            </trkpt>
            <trkpt lat="47.289554716" lon="4.902302062">
                <ele>529.305786</ele>
                <time>2015-05-25T09:41:17Z</time>
            </trkpt>
            <trkpt lat="47.289531573" lon="4.902077731">
                <ele>521.732117</ele>
                <time>2015-05-25T09:41:28Z</time>
            </trkpt>
            <trkpt lat="47.289508063" lon="4.901869917">
                <ele>514.835266</ele>
                <time>2015-05-25T09:41:37Z</time>
            </trkpt>
            <trkpt lat="47.289472948" lon="4.901678082">
                <ele>509.118591</ele>
                <time>2015-05-25T09:41:41Z</time>
            </trkpt>
            <trkpt lat="47.289460675" lon="4.901470808">
                <ele>503.056396</ele>
                <time>2015-05-25T09:41:48Z</time>
            </trkpt>
            <trkpt lat="47.289448035" lon="4.901280051">
                <ele>497.498016</ele>
                <time>2015-05-25T09:41:56Z</time>
            </trkpt>
            <trkpt lat="47.289407666" lon="4.901071430">
                <ele>491.535004</ele>
                <time>2015-05-25T09:41:58Z</time>
            </trkpt>
            <trkpt lat="47.289400462" lon="4.900889201">
                <ele>486.084991</ele>
                <time>2015-05-25T09:42:07Z</time>
            </trkpt>
            <trkpt lat="47.289370964" lon="4.900697636">
                <ele>480.484985</ele>
                <time>2015-05-25T09:42:17Z</time>
            </trkpt>
            <trkpt lat="47.289358873" lon="4.900482104">
                <ele>474.158752</ele>
                <time>2015-05-25T09:42:21Z</time>
            </trkpt>
            <trkpt lat="47.289318136" lon="4.900290001">
                <ele>470.046265</ele>
                <time>2015-05-25T09:42:25Z</time>
            </trkpt>
            <trkpt lat="47.289294256" lon="4.900098706">
                <ele>465.853760</ele>
                <time>2015-05-25T09:42:33Z</time>
            </trkpt>
            <trkpt lat="47.289281430" lon="4.899916209">
                <ele>461.808746</ele>
                <time>2015-05-25T09:42:42Z</time>
            </trkpt>
            <trkpt lat="47.289251931" lon="4.899724645">
                <ele>457.647034</ele>
                <time>2015-05-25T09:42:44Z</time>
            </trkpt>
            <trkpt lat="47.289244541" lon="4.899550676">
                <ele>453.750366</ele>
                <time>2015-05-25T09:42:55Z</time>
            </trkpt>
            <trkpt lat="47.289225912" lon="4.899376169">
                <ele>449.873566</ele>
                <time>2015-05-25T09:43:05Z</time>
            </trkpt>
            <trkpt lat="47.289211803" lon="4.899251482">
                <ele>447.087524</ele>
                <time>2015-05-25T09:43:14Z</time>
            </trkpt>
            <trkpt lat="47.289186822" lon="4.899109739">
                <ele>444.046326</ele>
                <time>2015-05-25T09:43:29Z</time>
            </trkpt>
            <trkpt lat="47.289173629" lon="4.898943760">
                <ele>440.635406</ele>
                <time>2015-05-25T09:43:50Z</time>
            </trkpt>
            <trkpt lat="47.289160619" lon="4.898769522">
                <ele>437.077972</ele>
                <time>2015-05-25T09:44:13Z</time>
            </trkpt>
            <trkpt lat="47.289130751" lon="4.898594476">
                <ele>433.606506</ele>
                <time>2015-05-25T09:44:22Z</time>
            </trkpt>
            <trkpt lat="47.289118473" lon="4.898387204">
                <ele>431.154816</ele>
                <time>2015-05-25T09:44:27Z</time>
            </trkpt>
            <trkpt lat="47.289073395" lon="4.898137024">
                <ele>430.276123</ele>
                <time>2015-05-25T09:44:29Z</time>
            </trkpt>
            <trkpt lat="47.288982082" lon="4.897942502">
                <ele>430.165497</ele>
                <time>2015-05-25T09:44:40Z</time>
            </trkpt>
            <trkpt lat="47.288844716" lon="4.897795378">
                <ele>431.548767</ele>
                <time>2015-05-25T09:44:53Z</time>
            </trkpt>
            <trkpt lat="47.288693914" lon="4.897746818">
                <ele>433.371246</ele>
                <time>2015-05-25T09:45:07Z</time>
            </trkpt>
            <trkpt lat="47.288513186" lon="4.897779499">
                <ele>433.758759</ele>
                <time>2015-05-25T09:45:22Z</time>
            </trkpt>
            <trkpt lat="47.288327570" lon="4.897778876">
                <ele>434.696259</ele>
                <time>2015-05-25T09:45:36Z</time>
            </trkpt>
            <trkpt lat="47.288130900" lon="4.897769456">
                <ele>435.566254</ele>
                <time>2015-05-25T09:45:50Z</time>
            </trkpt>
            <trkpt lat="47.287973930" lon="4.897745403">
                <ele>436.591248</ele>
                <time>2015-05-25T09:45:51Z</time>
            </trkpt>
            <trkpt lat="47.287811706" lon="4.897704565">
                <ele>437.908569</ele>
                <time>2015-05-25T09:46:00Z</time>
            </trkpt>
            <trkpt lat="47.287632260" lon="4.897679436">
                <ele>438.913818</ele>
                <time>2015-05-25T09:46:15Z</time>
            </trkpt>
            <trkpt lat="47.287458615" lon="4.897646319">
                <ele>440.028748</ele>
                <time>2015-05-25T09:46:25Z</time>
            </trkpt>
            <trkpt lat="47.287290223" lon="4.897629987">
                <ele>440.946411</ele>
                <time>2015-05-25T09:46:39Z</time>
            </trkpt>
            <trkpt lat="47.287128183" lon="4.897580891">
                <ele>442.141876</ele>
                <time>2015-05-25T09:46:55Z</time>
            </trkpt>
            <trkpt lat="47.286965228" lon="4.897573087">
                <ele>443.230865</ele>
                <time>2015-05-25T09:46:58Z</time>
            </trkpt>
            <trkpt lat="47.286825664" lon="4.897525068">
                <ele>444.857727</ele>
                <time>2015-05-25T09:47:12Z</time>
            </trkpt>
            <trkpt lat="47.286696790" lon="4.897502363">
                <ele>446.112366</ele>
                <time>2015-05-25T09:47:14Z</time>
            </trkpt>
            <trkpt lat="47.286540552" lon="4.897445279">
                <ele>447.604675</ele>
                <time>2015-05-25T09:47:29Z</time>
            </trkpt>
            <trkpt lat="47.286389750" lon="4.897396723">
                <ele>448.654694</ele>
                <time>2015-05-25T09:47:44Z</time>
            </trkpt>
            <trkpt lat="47.286244384" lon="4.897356694">
                <ele>449.469208</ele>
                <time>2015-05-25T09:47:58Z</time>
            </trkpt>
            <trkpt lat="47.286104820" lon="4.897308676">
                <ele>450.511475</ele>
                <time>2015-05-25T09:48:12Z</time>
            </trkpt>
            <trkpt lat="47.285931725" lon="4.897250786">
                <ele>452.827667</ele>
                <time>2015-05-25T09:48:27Z</time>
            </trkpt>
            <trkpt lat="47.285747025" lon="4.897208875">
                <ele>455.283356</ele>
                <time>2015-05-25T09:48:43Z</time>
            </trkpt>
            <trkpt lat="47.285574112" lon="4.897142728">
                <ele>458.222137</ele>
                <time>2015-05-25T09:48:59Z</time>
            </trkpt>
            <trkpt lat="47.285488233" lon="4.896956746">
                <ele>459.650238</ele>
                <time>2015-05-25T09:49:14Z</time>
            </trkpt>
            <trkpt lat="47.285354288" lon="4.896909000">
                <ele>462.362762</ele>
                <time>2015-05-25T09:49:28Z</time>
            </trkpt>
            <trkpt lat="47.285259312" lon="4.896879652">
                <ele>464.050751</ele>
                <time>2015-05-25T09:49:43Z</time>
            </trkpt>
            <trkpt lat="47.285144238" lon="4.896741875">
                <ele>466.846008</ele>
                <time>2015-05-25T09:50:00Z</time>
            </trkpt>
            <trkpt lat="47.285011941" lon="4.896619808">
                <ele>468.912994</ele>
                <time>2015-05-25T09:50:16Z</time>
            </trkpt>
            <trkpt lat="47.284880375" lon="4.896464709">
                <ele>470.092010</ele>
                <time>2015-05-25T09:50:29Z</time>
            </trkpt>
            <trkpt lat="47.284759316" lon="4.896343181">
                <ele>470.612762</ele>
                <time>2015-05-25T09:50:41Z</time>
            </trkpt>
            <trkpt lat="47.284627567" lon="4.896196342">
                <ele>472.706085</ele>
                <time>2015-05-25T09:50:56Z</time>
            </trkpt>
            <trkpt lat="47.284507057" lon="4.896050041">
                <ele>474.888733</ele>
                <time>2015-05-25T09:51:12Z</time>
            </trkpt>
            <trkpt lat="47.284345016" lon="4.896000952">
                <ele>476.076996</ele>
                <time>2015-05-25T09:51:28Z</time>
            </trkpt>
            <trkpt lat="47.284222492" lon="4.895945489">
                <ele>477.970032</ele>
                <time>2015-05-25T09:51:41Z</time>
            </trkpt>
            <trkpt lat="47.284119936" lon="4.895750450">
                <ele>479.461975</ele>
                <time>2015-05-25T09:51:55Z</time>
            </trkpt>
            <trkpt lat="47.284011578" lon="4.895563400">
                <ele>480.252686</ele>
                <time>2015-05-25T09:52:06Z</time>
            </trkpt>
            <trkpt lat="47.283937484" lon="4.895353191">
                <ele>482.052887</ele>
                <time>2015-05-25T09:52:22Z</time>
            </trkpt>
            <trkpt lat="47.283864304" lon="4.895101694">
                <ele>484.698975</ele>
                <time>2015-05-25T09:52:36Z</time>
            </trkpt>
            <trkpt lat="47.283755579" lon="4.894931162">
                <ele>486.390533</ele>
                <time>2015-05-25T09:52:50Z</time>
            </trkpt>
            <trkpt lat="47.283652107" lon="4.894777415">
                <ele>488.714264</ele>
                <time>2015-05-25T09:52:57Z</time>
            </trkpt>
            <trkpt lat="47.283581618" lon="4.894658313">
                <ele>490.007019</ele>
                <time>2015-05-25T09:53:12Z</time>
            </trkpt>
            <trkpt lat="47.283495369" lon="4.894488858">
                <ele>491.493591</ele>
                <time>2015-05-25T09:53:26Z</time>
            </trkpt>
            <trkpt lat="47.283414374" lon="4.894336188">
                <ele>493.232819</ele>
                <time>2015-05-25T09:53:42Z</time>
            </trkpt>
            <trkpt lat="47.283357134" lon="4.894126789">
                <ele>495.832428</ele>
                <time>2015-05-25T09:53:45Z</time>
            </trkpt>
            <trkpt lat="47.283372944" lon="4.893920884">
                <ele>498.573547</ele>
                <time>2015-05-25T09:53:59Z</time>
            </trkpt>
            <trkpt lat="47.283466325" lon="4.893768286">
                <ele>500.548981</ele>
                <time>2015-05-25T09:54:12Z</time>
            </trkpt>
            <trkpt lat="47.283481951" lon="4.893570639">
                <ele>503.344757</ele>
                <time>2015-05-25T09:54:26Z</time>
            </trkpt>
            <trkpt lat="47.283384280" lon="4.893408906">
                <ele>505.152954</ele>
                <time>2015-05-25T09:54:40Z</time>
            </trkpt>
            <trkpt lat="47.283297115" lon="4.893280742">
                <ele>506.494537</ele>
                <time>2015-05-25T09:54:54Z</time>
            </trkpt>
            <trkpt lat="47.283210498" lon="4.893127806">
                <ele>508.033173</ele>
                <time>2015-05-25T09:55:06Z</time>
            </trkpt>
            <trkpt lat="47.283093958" lon="4.893056103">
                <ele>508.572296</ele>
                <time>2015-05-25T09:55:20Z</time>
            </trkpt>
            <trkpt lat="47.282943519" lon="4.892991047">
                <ele>510.244720</ele>
                <time>2015-05-25T09:55:38Z</time>
            </trkpt>
            <trkpt lat="47.282819715" lon="4.892993396">
                <ele>511.022644</ele>
                <time>2015-05-25T09:55:54Z</time>
            </trkpt>
            <trkpt lat="47.282690108" lon="4.893003733">
                <ele>511.762665</ele>
                <time>2015-05-25T09:56:10Z</time>
            </trkpt>
            <trkpt lat="47.282578090" lon="4.892981846">
                <ele>512.697815</ele>
                <time>2015-05-25T09:56:26Z</time>
            </trkpt>
            <trkpt lat="47.282459722" lon="4.892992720">
                <ele>513.388123</ele>
                <time>2015-05-25T09:56:27Z</time>
            </trkpt>
            <trkpt lat="47.282352592" lon="4.893004132">
                <ele>513.996216</ele>
                <time>2015-05-25T09:56:46Z</time>
            </trkpt>
            <trkpt lat="47.282234406" lon="4.893006749">
                <ele>514.775757</ele>
                <time>2015-05-25T09:56:59Z</time>
            </trkpt>
            <trkpt lat="47.282088307" lon="4.892999765">
                <ele>515.276245</ele>
                <time>2015-05-25T09:57:04Z</time>
            </trkpt>
            <trkpt lat="47.281958701" lon="4.893010102">
                <ele>515.436279</ele>
                <time>2015-05-25T09:57:18Z</time>
            </trkpt>
            <trkpt lat="47.281829642" lon="4.892995667">
                <ele>515.788757</ele>
                <time>2015-05-25T09:57:26Z</time>
            </trkpt>
            <trkpt lat="47.281734299" lon="4.892982843">
                <ele>515.988708</ele>
                <time>2015-05-25T09:57:28Z</time>
            </trkpt>
            <trkpt lat="47.281626986" lon="4.893002512">
                <ele>515.491089</ele>
                <time>2015-05-25T09:57:34Z</time>
            </trkpt>
            <trkpt lat="47.281528536" lon="4.893130065">
                <ele>514.504761</ele>
                <time>2015-05-25T09:57:36Z</time>
            </trkpt>
            <trkpt lat="47.281435887" lon="4.893249628">
                <ele>513.808533</ele>
                <time>2015-05-25T09:57:41Z</time>
            </trkpt>
            <trkpt lat="47.281314776" lon="4.893384363">
                <ele>513.310364</ele>
                <time>2015-05-25T09:57:44Z</time>
            </trkpt>
            <trkpt lat="47.281188229" lon="4.893510570">
                <ele>512.660645</ele>
                <time>2015-05-25T09:58:01Z</time>
            </trkpt>
            <trkpt lat="47.281027601" lon="4.893651680">
                <ele>512.774841</ele>
                <time>2015-05-25T09:58:04Z</time>
            </trkpt>
            <trkpt lat="47.280895618" lon="4.893769361">
                <ele>513.000671</ele>
                <time>2015-05-25T09:58:17Z</time>
            </trkpt>
            <trkpt lat="47.280735355" lon="4.893893955">
                <ele>513.018921</ele>
                <time>2015-05-25T09:58:31Z</time>
            </trkpt>
            <trkpt lat="47.280569473" lon="4.894018279">
                <ele>513.056885</ele>
                <time>2015-05-25T09:58:45Z</time>
            </trkpt>
            <trkpt lat="47.280413915" lon="4.894184426">
                <ele>514.039978</ele>
                <time>2015-05-25T09:59:03Z</time>
            </trkpt>
            <trkpt lat="47.280264708" lon="4.894317813">
                <ele>514.556702</ele>
                <time>2015-05-25T09:59:18Z</time>
            </trkpt>
            <trkpt lat="47.280144510" lon="4.894411256">
                <ele>514.537964</ele>
                <time>2015-05-25T09:59:33Z</time>
            </trkpt>
            <trkpt lat="47.280006724" lon="4.894536921">
                <ele>514.638367</ele>
                <time>2015-05-25T09:59:48Z</time>
            </trkpt>
            <trkpt lat="47.279835771" lon="4.894636201">
                <ele>514.251404</ele>
                <time>2015-05-25T10:00:05Z</time>
            </trkpt>
            <trkpt lat="47.279698533" lon="4.894737094">
                <ele>514.540344</ele>
                <time>2015-05-25T10:00:18Z</time>
            </trkpt>
            <trkpt lat="47.279602092" lon="4.894773810">
                <ele>514.502258</ele>
                <time>2015-05-25T10:00:23Z</time>
            </trkpt>
            <trkpt lat="47.279510173" lon="4.894860338">
                <ele>515.150269</ele>
                <time>2015-05-25T10:00:37Z</time>
            </trkpt>
            <trkpt lat="47.279413367" lon="4.894913568">
                <ele>515.124512</ele>
                <time>2015-05-25T10:00:53Z</time>
            </trkpt>
            <trkpt lat="47.279310758" lon="4.894974787">
                <ele>515.029236</ele>
                <time>2015-05-25T10:01:02Z</time>
            </trkpt>
            <trkpt lat="47.279191292" lon="4.895035198">
                <ele>514.732117</ele>
                <time>2015-05-25T10:01:18Z</time>
            </trkpt>
            <trkpt lat="47.279048434" lon="4.895135820">
                <ele>514.637634</ele>
                <time>2015-05-25T10:01:34Z</time>
            </trkpt>
            <trkpt lat="47.278928968" lon="4.895196231">
                <ele>514.290283</ele>
                <time>2015-05-25T10:01:50Z</time>
            </trkpt>
            <trkpt lat="47.278803699" lon="4.895264630">
                <ele>514.068176</ele>
                <time>2015-05-25T10:02:05Z</time>
            </trkpt>
            <trkpt lat="47.278667193" lon="4.895332491">
                <ele>513.807190</ele>
                <time>2015-05-25T10:02:23Z</time>
            </trkpt>
            <trkpt lat="47.278552796" lon="4.895417941">
                <ele>514.040466</ele>
                <time>2015-05-25T10:02:40Z</time>
            </trkpt>
            <trkpt lat="47.278421726" lon="4.895494327">
                <ele>513.668823</ele>
                <time>2015-05-25T10:02:56Z</time>
            </trkpt>
            <trkpt lat="47.278294444" lon="4.895653551">
                <ele>514.343994</ele>
                <time>2015-05-25T10:03:13Z</time>
            </trkpt>
            <trkpt lat="47.278201427" lon="4.895789616">
                <ele>515.001892</ele>
                <time>2015-05-25T10:03:25Z</time>
            </trkpt>
            <trkpt lat="47.278102973" lon="4.895917155">
                <ele>515.415222</ele>
                <time>2015-05-25T10:03:41Z</time>
            </trkpt>
            <trkpt lat="47.277999632" lon="4.896011398">
                <ele>515.166748</ele>
                <time>2015-05-25T10:04:03Z</time>
            </trkpt>
            <trkpt lat="47.277867829" lon="4.896120809">
                <ele>514.286865</ele>
                <time>2015-05-25T10:04:30Z</time>
            </trkpt>
            <trkpt lat="47.277763755" lon="4.896248078">
                <ele>513.760437</ele>
                <time>2015-05-25T10:04:59Z</time>
            </trkpt>
            <trkpt lat="47.277653696" lon="4.896391591">
                <ele>513.085144</ele>
            </trkpt>
            <trkpt lat="47.277543271" lon="4.896551617">
                <ele>512.761108</ele>
            </trkpt>
            <trkpt lat="47.277422157" lon="4.896686334">
                <ele>511.789429</ele>
                <time>2015-05-25T10:05:20Z</time>
            </trkpt>
            <trkpt lat="47.277286198" lon="4.896729420">
                <ele>510.301056</ele>
                <time>2015-05-25T10:05:32Z</time>
            </trkpt>
            <trkpt lat="47.277160753" lon="4.896884020">
                <ele>508.994995</ele>
                <time>2015-05-25T10:05:48Z</time>
            </trkpt>
            <trkpt lat="47.277041278" lon="4.896866475">
                <ele>508.730011</ele>
                <time>2015-05-25T10:06:04Z</time>
            </trkpt>
            <trkpt lat="47.276907883" lon="4.896793966">
                <ele>508.429993</ele>
                <time>2015-05-25T10:06:07Z</time>
            </trkpt>
            <trkpt lat="47.276784444" lon="4.896779792">
                <ele>508.154999</ele>
                <time>2015-05-25T10:06:24Z</time>
            </trkpt>
            <trkpt lat="47.276655202" lon="4.896773605">
                <ele>507.831818</ele>
                <time>2015-05-25T10:06:41Z</time>
            </trkpt>
            <trkpt lat="47.276513075" lon="4.896841191">
                <ele>507.374207</ele>
                <time>2015-05-25T10:06:56Z</time>
            </trkpt>
            <trkpt lat="47.276382553" lon="4.896892801">
                <ele>506.909576</ele>
                <time>2015-05-25T10:06:59Z</time>
            </trkpt>
            <trkpt lat="47.276229370" lon="4.896951591">
                <ele>506.377808</ele>
            </trkpt>
            <trkpt lat="47.276087060" lon="4.897027432">
                <ele>506.174377</ele>
                <time>2015-05-25T10:07:17Z</time>
            </trkpt>
            <trkpt lat="47.275971747" lon="4.897154157">
                <ele>506.030060</ele>
                <time>2015-05-25T10:07:24Z</time>
            </trkpt>
            <trkpt lat="47.275906641" lon="4.897299816">
                <ele>503.976013</ele>
                <time>2015-05-25T10:07:35Z</time>
            </trkpt>
            <trkpt lat="47.275797862" lon="4.897385526">
                <ele>501.763428</ele>
                <time>2015-05-25T10:07:45Z</time>
            </trkpt>
            <trkpt lat="47.275633624" lon="4.897435519">
                <ele>499.085876</ele>
                <time>2015-05-25T10:07:51Z</time>
            </trkpt>
            <trkpt lat="47.275519959" lon="4.897487934">
                <ele>496.730499</ele>
                <time>2015-05-25T10:07:56Z</time>
            </trkpt>
            <trkpt lat="47.275423884" lon="4.897508130">
                <ele>495.284119</ele>
                <time>2015-05-25T10:08:09Z</time>
            </trkpt>
            <trkpt lat="47.275293544" lon="4.897551481">
                <ele>492.954742</ele>
                <time>2015-05-25T10:08:21Z</time>
            </trkpt>
            <trkpt lat="47.275174259" lon="4.897603626">
                <ele>490.584991</ele>
                <time>2015-05-25T10:08:26Z</time>
            </trkpt>
            <trkpt lat="47.275081789" lon="4.897714911">
                <ele>486.744507</ele>
                <time>2015-05-25T10:08:39Z</time>
            </trkpt>
            <trkpt lat="47.274990051" lon="4.897793169">
                <ele>483.691986</ele>
                <time>2015-05-25T10:08:49Z</time>
            </trkpt>
            <trkpt lat="47.274931844" lon="4.897881299">
                <ele>480.938110</ele>
                <time>2015-05-25T10:09:01Z</time>
            </trkpt>
            <trkpt lat="47.274870525" lon="4.898109787">
                <ele>475.477051</ele>
                <time>2015-05-25T10:09:04Z</time>
            </trkpt>
            <trkpt lat="47.274826978" lon="4.898297800">
                <ele>471.598999</ele>
                <time>2015-05-25T10:09:18Z</time>
            </trkpt>
            <trkpt lat="47.274777628" lon="4.898493799">
                <ele>467.696869</ele>
                <time>2015-05-25T10:09:27Z</time>
            </trkpt>
            <trkpt lat="47.274752221" lon="4.898624825">
                <ele>465.424683</ele>
                <time>2015-05-25T10:09:35Z</time>
            </trkpt>
            <trkpt lat="47.274726630" lon="4.898764106">
                <ele>463.097504</ele>
                <time>2015-05-25T10:09:38Z</time>
            </trkpt>
            <trkpt lat="47.274716980" lon="4.898945476">
                <ele>459.773438</ele>
                <time>2015-05-25T10:09:45Z</time>
            </trkpt>
            <trkpt lat="47.274695542" lon="4.899151078">
                <ele>456.371246</ele>
                <time>2015-05-25T10:09:56Z</time>
            </trkpt>
            <trkpt lat="47.274673507" lon="4.899339750">
                <ele>453.797760</ele>
                <time>2015-05-25T10:10:07Z</time>
            </trkpt>
            <trkpt lat="47.274659384" lon="4.899513011">
                <ele>451.324738</ele>
                <time>2015-05-25T10:10:21Z</time>
            </trkpt>
            <trkpt lat="47.274636962" lon="4.899662537">
                <ele>449.569000</ele>
                <time>2015-05-25T10:10:24Z</time>
            </trkpt>
            <trkpt lat="47.274616506" lon="4.899924212">
                <ele>446.832489</ele>
                <time>2015-05-25T10:10:37Z</time>
            </trkpt>
            <trkpt lat="47.274589855" lon="4.900194621">
                <ele>445.065002</ele>
                <time>2015-05-25T10:10:50Z</time>
            </trkpt>
            <trkpt lat="47.274585329" lon="4.900341136">
                <ele>443.730011</ele>
                <time>2015-05-25T10:10:56Z</time>
            </trkpt>
            <trkpt lat="47.274569403" lon="4.900656045">
                <ele>441.279938</ele>
                <time>2015-05-25T10:11:12Z</time>
            </trkpt>
            <trkpt lat="47.274545402" lon="4.900846496">
                <ele>440.272858</ele>
                <time>2015-05-25T10:11:25Z</time>
            </trkpt>
            <trkpt lat="47.274517855" lon="4.901118139">
                <ele>438.578400</ele>
                <time>2015-05-25T10:11:34Z</time>
            </trkpt>
            <trkpt lat="47.274556076" lon="4.901354760">
                <ele>436.232513</ele>
                <time>2015-05-25T10:11:44Z</time>
            </trkpt>
            <trkpt lat="47.274559429" lon="4.901517872">
                <ele>435.282928</ele>
                <time>2015-05-25T10:11:52Z</time>
            </trkpt>
            <trkpt lat="47.274593395" lon="4.901724899">
                <ele>433.372131</ele>
                <time>2015-05-25T10:12:07Z</time>
            </trkpt>
            <trkpt lat="47.274613120" lon="4.901849822">
                <ele>432.363495</ele>
                <time>2015-05-25T10:12:12Z</time>
            </trkpt>
            <trkpt lat="47.274635453" lon="4.901957670">
                <ele>431.376556</ele>
                <time>2015-05-25T10:12:14Z</time>
            </trkpt>
            <trkpt lat="47.274650540" lon="4.902232848">
                <ele>429.814880</ele>
                <time>2015-05-25T10:12:26Z</time>
            </trkpt>
            <trkpt lat="47.274653725" lon="4.902469050">
                <ele>428.710999</ele>
                <time>2015-05-25T10:12:37Z</time>
            </trkpt>
            <trkpt lat="47.274667458" lon="4.902695471">
                <ele>426.932922</ele>
                <time>2015-05-25T10:12:51Z</time>
            </trkpt>
            <trkpt lat="47.274708375" lon="4.902879267">
                <ele>424.801453</ele>
                <time>2015-05-25T10:13:04Z</time>
            </trkpt>
            <trkpt lat="47.274749291" lon="4.903063064">
                <ele>422.779938</ele>
                <time>2015-05-25T10:13:05Z</time>
            </trkpt>
            <trkpt lat="47.274796561" lon="4.903214105">
                <ele>420.323761</ele>
                <time>2015-05-25T10:13:10Z</time>
            </trkpt>
            <trkpt lat="47.274770781" lon="4.903361640">
                <ele>419.198761</ele>
                <time>2015-05-25T10:13:34Z</time>
            </trkpt>
            <trkpt lat="47.274754771" lon="4.903575766">
                <ele>417.160004</ele>
                <time>2015-05-25T10:13:42Z</time>
            </trkpt>
            <trkpt lat="47.274682385" lon="4.903795451">
                <ele>415.957947</ele>
                <time>2015-05-25T10:13:57Z</time>
            </trkpt>
            <trkpt lat="47.274606399" lon="4.903924046">
                <ele>415.322937</ele>
                <time>2015-05-25T10:14:11Z</time>
            </trkpt>
            <trkpt lat="47.274546168" lon="4.904102987">
                <ele>413.540771</ele>
                <time>2015-05-25T10:14:15Z</time>
            </trkpt>
            <trkpt lat="47.274475801" lon="4.904231851">
                <ele>412.690094</ele>
                <time>2015-05-25T10:14:28Z</time>
            </trkpt>
            <trkpt lat="47.274410502" lon="4.904385753">
                <ele>411.295776</ele>
                <time>2015-05-25T10:14:39Z</time>
            </trkpt>
            <trkpt lat="47.274351006" lon="4.904531669">
                <ele>409.972137</ele>
                <time>2015-05-25T10:14:41Z</time>
            </trkpt>
            <trkpt lat="47.274318503" lon="4.904728470">
                <ele>407.433380</ele>
                <time>2015-05-25T10:14:56Z</time>
            </trkpt>
            <trkpt lat="47.274275129" lon="4.904908220">
                <ele>405.452515</ele>
                <time>2015-05-25T10:14:57Z</time>
            </trkpt>
            <trkpt lat="47.274275973" lon="4.905123152">
                <ele>402.097961</ele>
                <time>2015-05-25T10:15:03Z</time>
            </trkpt>
            <trkpt lat="47.274299478" lon="4.905330908">
                <ele>398.387512</ele>
                <time>2015-05-25T10:15:08Z</time>
            </trkpt>
            <trkpt lat="47.274346744" lon="4.905481950">
                <ele>394.987488</ele>
                <time>2015-05-25T10:15:20Z</time>
            </trkpt>
            <trkpt lat="47.274353758" lon="4.905672384">
                <ele>391.862488</ele>
                <time>2015-05-25T10:15:32Z</time>
            </trkpt>
            <trkpt lat="47.274338295" lon="4.905861738">
                <ele>389.237488</ele>
                <time>2015-05-25T10:15:34Z</time>
            </trkpt>
            <trkpt lat="47.274307076" lon="4.906000745">
                <ele>387.762512</ele>
                <time>2015-05-25T10:15:49Z</time>
            </trkpt>
            <trkpt lat="47.274218379" lon="4.906194846">
                <ele>386.510010</ele>
                <time>2015-05-25T10:16:01Z</time>
            </trkpt>
            <trkpt lat="47.274136587" lon="4.906331423">
                <ele>385.964966</ele>
                <time>2015-05-25T10:16:02Z</time>
            </trkpt>
            <trkpt lat="47.274043190" lon="4.906483972">
                <ele>385.591431</ele>
                <time>2015-05-25T10:16:04Z</time>
            </trkpt>
            <trkpt lat="47.273961398" lon="4.906620548">
                <ele>385.139618</ele>
                <time>2015-05-25T10:16:18Z</time>
            </trkpt>
            <trkpt lat="47.273889374" lon="4.906823713">
                <ele>383.387756</ele>
                <time>2015-05-25T10:16:31Z</time>
            </trkpt>
            <trkpt lat="47.273812465" lon="4.906993582">
                <ele>382.047699</ele>
                <time>2015-05-25T10:16:48Z</time>
            </trkpt>
            <trkpt lat="47.273729753" lon="4.907171438">
                <ele>381.064758</ele>
                <time>2015-05-25T10:17:00Z</time>
            </trkpt>
            <trkpt lat="47.273641239" lon="4.907357278">
                <ele>379.949280</ele>
                <time>2015-05-25T10:17:13Z</time>
            </trkpt>
            <trkpt lat="47.273552907" lon="4.907534863">
                <ele>378.824585</ele>
                <time>2015-05-25T10:17:25Z</time>
            </trkpt>
            <trkpt lat="47.273469276" lon="4.907753997">
                <ele>378.315826</ele>
                <time>2015-05-25T10:17:41Z</time>
            </trkpt>
            <trkpt lat="47.273404156" lon="4.907899636">
                <ele>379.196960</ele>
                <time>2015-05-25T10:17:51Z</time>
            </trkpt>
            <trkpt lat="47.273310101" lon="4.907828995">
                <ele>379.613007</ele>
                <time>2015-05-25T10:17:53Z</time>
            </trkpt>
            <trkpt lat="47.273210426" lon="4.907758084">
                <ele>380.445618</ele>
                <time>2015-05-25T10:18:08Z</time>
            </trkpt>
            <trkpt lat="47.273105133" lon="4.907686903">
                <ele>381.140503</ele>
                <time>2015-05-25T10:18:22Z</time>
            </trkpt>
            <trkpt lat="47.272983534" lon="4.907590145">
                <ele>382.343384</ele>
            </trkpt>
            <trkpt lat="47.272849960" lon="4.907525870">
                <ele>383.771271</ele>
                <time>2015-05-25T10:18:40Z</time>
            </trkpt>
            <trkpt lat="47.272706068" lon="4.907419776">
                <ele>385.388367</ele>
                <time>2015-05-25T10:18:44Z</time>
            </trkpt>
            <trkpt lat="47.272545502" lon="4.907304616">
                <ele>386.404022</ele>
                <time>2015-05-25T10:19:01Z</time>
            </trkpt>
            <trkpt lat="47.272417731" lon="4.907232357">
                <ele>386.818054</ele>
            </trkpt>
            <trkpt lat="47.272279458" lon="4.907126535">
                <ele>387.254456</ele>
                <time>2015-05-25T10:19:14Z</time>
            </trkpt>
            <trkpt lat="47.272113088" lon="4.907019363">
                <ele>386.964508</ele>
                <time>2015-05-25T10:19:31Z</time>
            </trkpt>
            <trkpt lat="47.271963760" lon="4.906904745">
                <ele>386.489777</ele>
                <time>2015-05-25T10:19:46Z</time>
            </trkpt>
            <trkpt lat="47.271847595" lon="4.906816516">
                <ele>388.152252</ele>
                <time>2015-05-25T10:20:00Z</time>
            </trkpt>
            <trkpt lat="47.271737784" lon="4.906695534">
                <ele>388.865936</ele>
            </trkpt>
            <trkpt lat="47.271627974" lon="4.906574552">
                <ele>388.617126</ele>
            </trkpt>
            <trkpt lat="47.271512911" lon="4.906436790">
                <ele>387.375000</ele>
                <time>2015-05-25T10:20:16Z</time>
            </trkpt>
            <trkpt lat="47.271419406" lon="4.906341386">
                <ele>386.529816</ele>
                <time>2015-05-25T10:20:20Z</time>
            </trkpt>
            <trkpt lat="47.271315582" lon="4.906204165">
                <ele>386.082367</ele>
                <time>2015-05-25T10:20:36Z</time>
            </trkpt>
            <trkpt lat="47.271193430" lon="4.906132180">
                <ele>387.081573</ele>
                <time>2015-05-25T10:20:44Z</time>
            </trkpt>
            <trkpt lat="47.271064373" lon="4.906117716">
                <ele>387.859894</ele>
            </trkpt>
            <trkpt lat="47.270929696" lon="4.906102982">
                <ele>390.036224</ele>
            </trkpt>
            <trkpt lat="47.270784517" lon="4.906054685">
                <ele>392.255737</ele>
            </trkpt>
            <trkpt lat="47.270628098" lon="4.906005849">
                <ele>394.109253</ele>
                <time>2015-05-25T10:21:00Z</time>
            </trkpt>
            <trkpt lat="47.270489824" lon="4.905900033">
                <ele>394.761505</ele>
                <time>2015-05-25T10:21:14Z</time>
            </trkpt>
            <trkpt lat="47.270379277" lon="4.905812079">
                <ele>394.990265</ele>
                <time>2015-05-25T10:21:20Z</time>
            </trkpt>
            <trkpt lat="47.270252057" lon="4.905715059">
                <ele>395.000000</ele>
                <time>2015-05-25T10:21:38Z</time>
            </trkpt>
            <trkpt lat="47.270102176" lon="4.905625216">
                <ele>394.895477</ele>
                <time>2015-05-25T10:21:54Z</time>
            </trkpt>
            <trkpt lat="47.269945758" lon="4.905576382">
                <ele>395.394836</ele>
                <time>2015-05-25T10:22:11Z</time>
            </trkpt>
            <trkpt lat="47.269804360" lon="4.905610913">
                <ele>396.578735</ele>
                <time>2015-05-25T10:22:13Z</time>
            </trkpt>
            <trkpt lat="47.269656608" lon="4.905678197">
                <ele>397.994537</ele>
                <time>2015-05-25T10:22:30Z</time>
            </trkpt>
            <trkpt lat="47.269543306" lon="4.905714077">
                <ele>398.816406</ele>
                <time>2015-05-25T10:22:34Z</time>
            </trkpt>
            <trkpt lat="47.269390225" lon="4.905781243">
                <ele>399.698242</ele>
                <time>2015-05-25T10:22:50Z</time>
            </trkpt>
            <trkpt lat="47.269264109" lon="4.905874219">
                <ele>400.108276</ele>
            </trkpt>
            <trkpt lat="47.269110187" lon="4.905965997">
                <ele>400.125153</ele>
                <time>2015-05-25T10:23:05Z</time>
            </trkpt>
            <trkpt lat="47.268956632" lon="4.906041264">
                <ele>399.731873</ele>
                <time>2015-05-25T10:23:21Z</time>
            </trkpt>
            <trkpt lat="47.268821588" lon="4.906043042">
                <ele>399.612762</ele>
                <time>2015-05-25T10:23:34Z</time>
            </trkpt>
            <trkpt lat="47.268675857" lon="4.906019514">
                <ele>399.835175</ele>
                <time>2015-05-25T10:23:49Z</time>
            </trkpt>
            <trkpt lat="47.268546984" lon="4.905996795">
                <ele>400.078308</ele>
                <time>2015-05-25T10:24:04Z</time>
            </trkpt>
            <trkpt lat="47.268414907" lon="4.905948462">
                <ele>400.614136</ele>
                <time>2015-05-25T10:24:20Z</time>
            </trkpt>
            <trkpt lat="47.268366376" lon="4.905834217">
                <ele>402.859406</ele>
                <time>2015-05-25T10:24:32Z</time>
            </trkpt>
            <trkpt lat="47.268301101" lon="4.905670947">
                <ele>406.367035</ele>
                <time>2015-05-25T10:24:47Z</time>
            </trkpt>
            <trkpt lat="47.268235451" lon="4.905512184">
                <ele>410.232697</ele>
                <time>2015-05-25T10:25:02Z</time>
            </trkpt>
            <trkpt lat="47.268170491" lon="4.905339181">
                <ele>414.725891</ele>
                <time>2015-05-25T10:25:18Z</time>
            </trkpt>
            <trkpt lat="47.268096060" lon="4.905148996">
                <ele>418.317047</ele>
                <time>2015-05-25T10:25:34Z</time>
            </trkpt>
            <trkpt lat="47.268018529" lon="4.904971455">
                <ele>419.785736</ele>
                <time>2015-05-25T10:25:51Z</time>
            </trkpt>
            <trkpt lat="47.267925941" lon="4.904834784">
                <ele>420.868439</ele>
                <time>2015-05-25T10:26:06Z</time>
            </trkpt>
            <trkpt lat="47.267845877" lon="4.904640866">
                <ele>425.588013</ele>
                <time>2015-05-25T10:26:23Z</time>
            </trkpt>
            <trkpt lat="47.267735513" lon="4.904544663">
                <ele>429.070679</ele>
                <time>2015-05-25T10:26:39Z</time>
            </trkpt>
            <trkpt lat="47.267631319" lon="4.904423965">
                <ele>432.148712</ele>
                <time>2015-05-25T10:26:56Z</time>
            </trkpt>
            <trkpt lat="47.267515152" lon="4.904335748">
                <ele>434.207306</ele>
                <time>2015-05-25T10:27:13Z</time>
            </trkpt>
            <trkpt lat="47.267387380" lon="4.904263503">
                <ele>436.896545</ele>
                <time>2015-05-25T10:27:25Z</time>
            </trkpt>
            <trkpt lat="47.267264676" lon="4.904216294">
                <ele>438.562927</ele>
                <time>2015-05-25T10:27:40Z</time>
            </trkpt>
            <trkpt lat="47.267120596" lon="4.904118475">
                <ele>439.445770</ele>
                <time>2015-05-25T10:27:56Z</time>
            </trkpt>
            <trkpt lat="47.266977251" lon="4.903987635">
                <ele>442.823761</ele>
                <time>2015-05-25T10:28:15Z</time>
            </trkpt>
            <trkpt lat="47.266861451" lon="4.903882911">
                <ele>446.401215</ele>
                <time>2015-05-25T10:28:40Z</time>
            </trkpt>
            <trkpt lat="47.266710834" lon="4.903826099">
                <ele>449.177002</ele>
                <time>2015-05-25T10:28:56Z</time>
            </trkpt>
            <trkpt lat="47.266544829" lon="4.903702438">
                <ele>452.278992</ele>
                <time>2015-05-25T10:29:10Z</time>
            </trkpt>
            <trkpt lat="47.266401667" lon="4.903563347">
                <ele>454.242249</ele>
                <time>2015-05-25T10:29:28Z</time>
            </trkpt>
            <trkpt lat="47.266268274" lon="4.903490835">
                <ele>455.473236</ele>
                <time>2015-05-25T10:29:44Z</time>
            </trkpt>
            <trkpt lat="47.266124011" lon="4.903401275">
                <ele>457.661255</ele>
                <time>2015-05-25T10:30:00Z</time>
            </trkpt>
            <trkpt lat="47.266024701" lon="4.903313872">
                <ele>460.154358</ele>
                <time>2015-05-25T10:30:12Z</time>
            </trkpt>
            <trkpt lat="47.265903648" lon="4.903192371">
                <ele>464.275299</ele>
                <time>2015-05-25T10:30:27Z</time>
            </trkpt>
            <trkpt lat="47.265753031" lon="4.903135562">
                <ele>467.590698</ele>
                <time>2015-05-25T10:30:42Z</time>
            </trkpt>
            <trkpt lat="47.265606802" lon="4.903060477">
                <ele>470.818420</ele>
                <time>2015-05-25T10:30:58Z</time>
            </trkpt>
            <trkpt lat="47.265443020" lon="4.902985711">
                <ele>473.921112</ele>
                <time>2015-05-25T10:31:15Z</time>
            </trkpt>
            <trkpt lat="47.265312262" lon="4.902862245">
                <ele>475.941376</ele>
                <time>2015-05-25T10:31:30Z</time>
            </trkpt>
            <trkpt lat="47.265221737" lon="4.902691003">
                <ele>477.122772</ele>
                <time>2015-05-25T10:31:47Z</time>
            </trkpt>
            <trkpt lat="47.265124737" lon="4.902551755">
                <ele>479.787689</ele>
                <time>2015-05-25T10:32:03Z</time>
            </trkpt>
            <trkpt lat="47.265060609" lon="4.902399933">
                <ele>482.161621</ele>
                <time>2015-05-25T10:32:17Z</time>
            </trkpt>
            <trkpt lat="47.265001733" lon="4.902264891">
                <ele>483.651581</ele>
                <time>2015-05-25T10:32:32Z</time>
            </trkpt>
            <trkpt lat="47.264937055" lon="4.902137835">
                <ele>484.504700</ele>
                <time>2015-05-25T10:32:49Z</time>
            </trkpt>
            <trkpt lat="47.264850082" lon="4.902001446">
                <ele>485.535217</ele>
                <time>2015-05-25T10:33:02Z</time>
            </trkpt>
            <trkpt lat="47.264779234" lon="4.901898885">
                <ele>487.780640</ele>
                <time>2015-05-25T10:33:07Z</time>
            </trkpt>
            <trkpt lat="47.264703317" lon="4.901771291">
                <ele>490.856567</ele>
                <time>2015-05-25T10:33:21Z</time>
            </trkpt>
            <trkpt lat="47.264605106" lon="4.901634365">
                <ele>493.822876</ele>
                <time>2015-05-25T10:33:36Z</time>
            </trkpt>
            <trkpt lat="47.264500358" lon="4.901538443">
                <ele>495.732697</ele>
                <time>2015-05-25T10:33:52Z</time>
            </trkpt>
            <trkpt lat="47.264414057" lon="4.901415613">
                <ele>498.410065</ele>
                <time>2015-05-25T10:34:07Z</time>
            </trkpt>
            <trkpt lat="47.264325862" lon="4.901290435">
                <ele>501.617859</ele>
                <time>2015-05-25T10:34:25Z</time>
            </trkpt>
            <trkpt lat="47.264266435" lon="4.901180160">
                <ele>504.921173</ele>
                <time>2015-05-25T10:35:24Z</time>
            </trkpt>
            <trkpt lat="47.264179095" lon="4.901060284">
                <ele>508.671448</ele>
                <time>2015-05-25T10:35:40Z</time>
            </trkpt>
            <trkpt lat="47.264102810" lon="4.900949202">
                <ele>511.712250</ele>
                <time>2015-05-25T10:35:56Z</time>
            </trkpt>
            <trkpt lat="47.263993176" lon="4.900819995">
                <ele>515.387085</ele>
                <time>2015-05-25T10:36:09Z</time>
            </trkpt>
            <trkpt lat="47.263877923" lon="4.900690519">
                <ele>519.674805</ele>
                <time>2015-05-25T10:36:23Z</time>
            </trkpt>
            <trkpt lat="47.263767739" lon="4.900586077">
                <ele>523.305481</ele>
                <time>2015-05-25T10:36:36Z</time>
            </trkpt>
            <trkpt lat="47.263679299" lon="4.900515731">
                <ele>526.388489</ele>
                <time>2015-05-25T10:36:52Z</time>
            </trkpt>
            <trkpt lat="47.263558426" lon="4.900385987">
                <ele>531.071899</ele>
                <time>2015-05-25T10:37:07Z</time>
            </trkpt>
            <trkpt lat="47.263464733" lon="4.900298863">
                <ele>534.473572</ele>
                <time>2015-05-25T10:37:20Z</time>
            </trkpt>
            <trkpt lat="47.263371223" lon="4.900203484">
                <ele>537.565979</ele>
                <time>2015-05-25T10:37:35Z</time>
            </trkpt>
            <trkpt lat="47.263260305" lon="4.900132063">
                <ele>540.281555</ele>
                <time>2015-05-25T10:37:50Z</time>
            </trkpt>
            <trkpt lat="47.263120009" lon="4.900117077">
                <ele>542.372986</ele>
                <time>2015-05-25T10:38:06Z</time>
            </trkpt>
            <trkpt lat="47.262992738" lon="4.900042238">
                <ele>542.803101</ele>
                <time>2015-05-25T10:38:18Z</time>
            </trkpt>
            <trkpt lat="47.262821641" lon="4.900127570">
                <ele>542.825989</ele>
                <time>2015-05-25T10:41:23Z</time>
            </trkpt>
            <trkpt lat="47.262734237" lon="4.900263857">
                <ele>543.465515</ele>
                <time>2015-05-25T10:41:47Z</time>
            </trkpt>
            <trkpt lat="47.262662591" lon="4.900450479">
                <ele>544.609924</ele>
                <time>2015-05-25T10:42:03Z</time>
            </trkpt>
            <trkpt lat="47.262631011" lon="4.900605968">
                <ele>545.267029</ele>
                <time>2015-05-25T10:42:21Z</time>
            </trkpt>
            <trkpt lat="47.262580558" lon="4.900851448">
                <ele>546.179504</ele>
                <time>2015-05-25T10:42:29Z</time>
            </trkpt>
            <trkpt lat="47.262529920" lon="4.901105182">
                <ele>547.498596</ele>
                <time>2015-05-25T10:42:49Z</time>
            </trkpt>
            <trkpt lat="47.262462791" lon="4.901341598">
                <ele>548.619141</ele>
                <time>2015-05-25T10:43:06Z</time>
            </trkpt>
            <trkpt lat="47.262372818" lon="4.901593445">
                <ele>550.101746</ele>
                <time>2015-05-25T10:43:20Z</time>
            </trkpt>
            <trkpt lat="47.262278510" lon="4.901787240">
                <ele>552.192749</ele>
                <time>2015-05-25T10:43:37Z</time>
            </trkpt>
            <trkpt lat="47.262134361" lon="4.901945593">
                <ele>554.750183</ele>
                <time>2015-05-25T10:43:53Z</time>
            </trkpt>
            <trkpt lat="47.261968972" lon="4.902079040">
                <ele>557.033813</ele>
                <time>2015-05-25T10:44:12Z</time>
            </trkpt>
            <trkpt lat="47.261810032" lon="4.902111830">
                <ele>559.445068</ele>
                <time>2015-05-25T10:44:25Z</time>
            </trkpt>
            <trkpt lat="47.261686754" lon="4.902166883">
                <ele>560.995972</ele>
                <time>2015-05-25T10:44:34Z</time>
            </trkpt>
            <trkpt lat="47.261536825" lon="4.902255728">
                <ele>562.356201</ele>
            </trkpt>
            <trkpt lat="47.261387057" lon="4.902413808">
                <ele>563.997620</ele>
                <time>2015-05-25T10:44:52Z</time>
            </trkpt>
            <trkpt lat="47.261237105" lon="4.902580140">
                <ele>565.210022</ele>
                <time>2015-05-25T10:45:07Z</time>
            </trkpt>
            <trkpt lat="47.261086786" lon="4.902762981">
                <ele>565.859985</ele>
                <time>2015-05-25T10:45:23Z</time>
            </trkpt>
            <trkpt lat="47.260942820" lon="4.902913073">
                <ele>566.489990</ele>
                <time>2015-05-25T10:45:39Z</time>
            </trkpt>
            <trkpt lat="47.260809541" lon="4.903088466">
                <ele>567.029785</ele>
                <time>2015-05-25T10:45:55Z</time>
            </trkpt>
            <trkpt lat="47.260688786" lon="4.903206618">
                <ele>567.422791</ele>
                <time>2015-05-25T10:46:09Z</time>
            </trkpt>
            <trkpt lat="47.260557158" lon="4.903307721">
                <ele>567.724365</ele>
            </trkpt>
            <trkpt lat="47.260425348" lon="4.903417079">
                <ele>567.937439</ele>
                <time>2015-05-25T10:46:23Z</time>
            </trkpt>
            <trkpt lat="47.260277230" lon="4.903500865">
                <ele>568.000000</ele>
                <time>2015-05-25T10:46:36Z</time>
            </trkpt>
            <trkpt lat="47.260141268" lon="4.903543919">
                <ele>568.000000</ele>
                <time>2015-05-25T10:46:41Z</time>
            </trkpt>
            <trkpt lat="47.259960719" lon="4.903568308">
                <ele>568.000000</ele>
                <time>2015-05-25T10:46:56Z</time>
            </trkpt>
            <trkpt lat="47.259773249" lon="4.903589962">
                <ele>568.000000</ele>
                <time>2015-05-25T10:47:10Z</time>
            </trkpt>
            <trkpt lat="47.259613071" lon="4.903651318">
                <ele>568.000000</ele>
                <time>2015-05-25T10:47:20Z</time>
            </trkpt>
            <trkpt lat="47.259441734" lon="4.903634299">
                <ele>568.000000</ele>
                <time>2015-05-25T10:47:35Z</time>
            </trkpt>
            <trkpt lat="47.259256852" lon="4.903600640">
                <ele>568.000000</ele>
                <time>2015-05-25T10:47:50Z</time>
            </trkpt>
            <trkpt lat="47.259093895" lon="4.903592822">
                <ele>568.000000</ele>
                <time>2015-05-25T10:47:58Z</time>
            </trkpt>
            <trkpt lat="47.258931122" lon="4.903576750">
                <ele>568.000000</ele>
            </trkpt>
            <trkpt lat="47.258728831" lon="4.903567044">
                <ele>568.000000</ele>
                <time>2015-05-25T10:48:15Z</time>
            </trkpt>
            <trkpt lat="47.258565874" lon="4.903559226">
                <ele>568.000000</ele>
                <time>2015-05-25T10:48:25Z</time>
            </trkpt>
            <trkpt lat="47.258391495" lon="4.903559122">
                <ele>568.000000</ele>
                <time>2015-05-25T10:48:41Z</time>
            </trkpt>
            <trkpt lat="47.258249730" lon="4.903610159">
                <ele>568.000000</ele>
                <time>2015-05-25T10:48:45Z</time>
            </trkpt>
            <trkpt lat="47.258101612" lon="4.903693941">
                <ele>567.765381</ele>
                <time>2015-05-25T10:49:00Z</time>
            </trkpt>
            <trkpt lat="47.257970719" lon="4.903762024">
                <ele>567.190796</ele>
                <time>2015-05-25T10:49:07Z</time>
            </trkpt>
            <trkpt lat="47.257873658" lon="4.903797163">
                <ele>566.774414</ele>
                <time>2015-05-25T10:49:16Z</time>
            </trkpt>
            <trkpt lat="47.257716937" lon="4.903791160">
                <ele>566.322815</ele>
                <time>2015-05-25T10:49:20Z</time>
            </trkpt>
            <trkpt lat="47.257586961" lon="4.903817974">
                <ele>565.697205</ele>
                <time>2015-05-25T10:49:36Z</time>
            </trkpt>
            <trkpt lat="47.257406412" lon="4.903842361">
                <ele>564.666504</ele>
                <time>2015-05-25T10:49:51Z</time>
            </trkpt>
            <trkpt lat="47.257271001" lon="4.903860651">
                <ele>563.814636</ele>
                <time>2015-05-25T10:50:05Z</time>
            </trkpt>
            <trkpt lat="47.257141576" lon="4.903862703">
                <ele>563.017395</ele>
                <time>2015-05-25T10:50:19Z</time>
            </trkpt>
            <trkpt lat="47.256995110" lon="4.903872201">
                <ele>561.934753</ele>
                <time>2015-05-25T10:50:24Z</time>
            </trkpt>
            <trkpt lat="47.256831602" lon="4.903889142">
                <ele>560.568237</ele>
                <time>2015-05-25T10:50:38Z</time>
            </trkpt>
            <trkpt lat="47.256707429" lon="4.903907971">
                <ele>559.575928</ele>
                <time>2015-05-25T10:50:54Z</time>
            </trkpt>
            <trkpt lat="47.256571467" lon="4.903951022">
                <ele>558.446411</ele>
                <time>2015-05-25T10:51:00Z</time>
            </trkpt>
            <trkpt lat="47.256413211" lon="4.903984740">
                <ele>557.302673</ele>
                <time>2015-05-25T10:51:15Z</time>
            </trkpt>
            <trkpt lat="47.256265093" lon="4.904068518">
                <ele>555.518494</ele>
                <time>2015-05-25T10:51:24Z</time>
            </trkpt>
            <trkpt lat="47.256127845" lon="4.904169342">
                <ele>554.479370</ele>
            </trkpt>
            <trkpt lat="47.255989864" lon="4.904303179">
                <ele>552.807007</ele>
            </trkpt>
            <trkpt lat="47.255947592" lon="4.904433346">
                <ele>550.647278</ele>
            </trkpt>
            <trkpt lat="47.256058140" lon="4.904521274">
                <ele>548.242004</ele>
                <time>2015-05-25T10:51:37Z</time>
            </trkpt>
            <trkpt lat="47.256152564" lon="4.904575380">
                <ele>546.536011</ele>
                <time>2015-05-25T10:51:44Z</time>
            </trkpt>
            <trkpt lat="47.256269282" lon="4.904638817">
                <ele>544.471313</ele>
                <time>2015-05-25T10:51:46Z</time>
            </trkpt>
            <trkpt lat="47.256362789" lon="4.904734191">
                <ele>542.721680</ele>
                <time>2015-05-25T10:52:02Z</time>
            </trkpt>
            <trkpt lat="47.256478589" lon="4.904838897">
                <ele>541.017578</ele>
                <time>2015-05-25T10:52:16Z</time>
            </trkpt>
            <trkpt lat="47.256554686" lon="4.904958222">
                <ele>538.688110</ele>
                <time>2015-05-25T10:52:28Z</time>
            </trkpt>
            <trkpt lat="47.256648009" lon="4.905061850">
                <ele>536.651855</ele>
                <time>2015-05-25T10:52:41Z</time>
            </trkpt>
            <trkpt lat="47.256735529" lon="4.905173462">
                <ele>534.432617</ele>
            </trkpt>
            <trkpt lat="47.256861281" lon="4.905336484">
                <ele>532.209045</ele>
                <time>2015-05-25T10:52:55Z</time>
            </trkpt>
            <trkpt lat="47.256959671" lon="4.905465144">
                <ele>530.549194</ele>
                <time>2015-05-25T10:53:04Z</time>
            </trkpt>
            <trkpt lat="47.256900357" lon="4.905602757">
                <ele>527.098328</ele>
                <time>2015-05-25T10:53:11Z</time>
            </trkpt>
            <trkpt lat="47.256808796" lon="4.905672722">
                <ele>524.854065</ele>
                <time>2015-05-25T10:53:26Z</time>
            </trkpt>
            <trkpt lat="47.256717787" lon="4.905717927">
                <ele>523.067383</ele>
                <time>2015-05-25T10:53:28Z</time>
            </trkpt>
            <trkpt lat="47.256642533" lon="4.905813462">
                <ele>521.523560</ele>
                <time>2015-05-25T10:53:39Z</time>
            </trkpt>
            <trkpt lat="47.256587919" lon="4.905992611">
                <ele>518.743347</ele>
                <time>2015-05-25T10:53:47Z</time>
            </trkpt>
            <trkpt lat="47.256578074" lon="4.906182172">
                <ele>515.755737</ele>
                <time>2015-05-25T10:53:59Z</time>
            </trkpt>
            <trkpt lat="47.256589787" lon="4.906414081">
                <ele>512.921143</ele>
                <time>2015-05-25T10:54:04Z</time>
            </trkpt>
            <trkpt lat="47.256618541" lon="4.906638545">
                <ele>510.103699</ele>
                <time>2015-05-25T10:54:15Z</time>
            </trkpt>
            <trkpt lat="47.256630805" lon="4.906845694">
                <ele>507.537567</ele>
                <time>2015-05-25T10:54:24Z</time>
            </trkpt>
            <trkpt lat="47.256604468" lon="4.907017938">
                <ele>506.121368</ele>
                <time>2015-05-25T10:54:31Z</time>
            </trkpt>
            <trkpt lat="47.256561458" lon="4.907181119">
                <ele>504.980804</ele>
                <time>2015-05-25T10:54:47Z</time>
            </trkpt>
            <trkpt lat="47.256491087" lon="4.907309935">
                <ele>504.388885</ele>
                <time>2015-05-25T10:54:51Z</time>
            </trkpt>
            <trkpt lat="47.256431587" lon="4.907455799">
                <ele>503.623230</ele>
                <time>2015-05-25T10:55:06Z</time>
            </trkpt>
            <trkpt lat="47.256376602" lon="4.907651452">
                <ele>503.325775</ele>
                <time>2015-05-25T10:55:26Z</time>
            </trkpt>
            <trkpt lat="47.256325772" lon="4.908008063">
                <ele>503.046875</ele>
                <time>2015-05-25T10:55:46Z</time>
            </trkpt>
            <trkpt lat="47.256301737" lon="4.908234479">
                <ele>502.996796</ele>
                <time>2015-05-25T10:56:02Z</time>
            </trkpt>
            <trkpt lat="47.256265264" lon="4.908356661">
                <ele>503.388184</ele>
                <time>2015-05-25T10:56:08Z</time>
            </trkpt>
            <trkpt lat="47.256179689" lon="4.908410384">
                <ele>504.309021</ele>
            </trkpt>
            <trkpt lat="47.256084289" lon="4.908441324">
                <ele>505.474731</ele>
                <time>2015-05-25T10:56:19Z</time>
            </trkpt>
            <trkpt lat="47.255929032" lon="4.908299189">
                <ele>507.576630</ele>
            </trkpt>
            <trkpt lat="47.255840964" lon="4.908212334">
                <ele>508.832855</ele>
            </trkpt>
            <trkpt lat="47.255736038" lon="4.908124668">
                <ele>510.221252</ele>
                <time>2015-05-25T11:11:48Z</time>
            </trkpt>
            <trkpt lat="47.255560268" lon="4.907934453">
                <ele>512.246216</ele>
                <time>2015-05-25T11:12:07Z</time>
            </trkpt>
            <trkpt lat="47.255428717" lon="4.907779412">
                <ele>513.821289</ele>
                <time>2015-05-25T11:12:25Z</time>
            </trkpt>
            <trkpt lat="47.255281411" lon="4.907574041">
                <ele>515.361267</ele>
                <time>2015-05-25T11:12:47Z</time>
            </trkpt>
            <trkpt lat="47.255111627" lon="4.907367592">
                <ele>515.937988</ele>
                <time>2015-05-25T11:13:05Z</time>
            </trkpt>
            <trkpt lat="47.255004022" lon="4.907147607">
                <ele>516.721069</ele>
                <time>2015-05-25T11:13:22Z</time>
            </trkpt>
            <trkpt lat="47.254890981" lon="4.906919100">
                <ele>517.352661</ele>
                <time>2015-05-25T11:13:39Z</time>
            </trkpt>
            <trkpt lat="47.254772321" lon="4.906690324">
                <ele>517.536316</ele>
                <time>2015-05-25T11:14:02Z</time>
            </trkpt>
            <trkpt lat="47.254687191" lon="4.906471422">
                <ele>518.156799</ele>
                <time>2015-05-25T11:14:22Z</time>
            </trkpt>
            <trkpt lat="47.254611646" lon="4.906327339">
                <ele>518.087646</ele>
                <time>2015-05-25T11:14:37Z</time>
            </trkpt>
            <trkpt lat="47.254542271" lon="4.906158766">
                <ele>518.028931</ele>
                <time>2015-05-25T11:14:54Z</time>
            </trkpt>
            <trkpt lat="47.254477964" lon="4.906015224">
                <ele>517.930115</ele>
                <time>2015-05-25T11:15:00Z</time>
            </trkpt>
            <trkpt lat="47.254381595" lon="4.905795784">
                <ele>518.079102</ele>
                <time>2015-05-25T11:15:10Z</time>
            </trkpt>
            <trkpt lat="47.254324560" lon="4.905578233">
                <ele>518.505737</ele>
                <time>2015-05-25T11:15:17Z</time>
            </trkpt>
            <trkpt lat="47.254233992" lon="4.905350811">
                <ele>518.222168</ele>
                <time>2015-05-25T11:15:23Z</time>
            </trkpt>
            <trkpt lat="47.254154479" lon="4.905132183">
                <ele>517.706238</ele>
                <time>2015-05-25T11:15:38Z</time>
            </trkpt>
            <trkpt lat="47.254074415" lon="4.904938315">
                <ele>516.538879</ele>
                <time>2015-05-25T11:15:42Z</time>
            </trkpt>
            <trkpt lat="47.254012861" lon="4.904670978">
                <ele>516.013184</ele>
                <time>2015-05-25T11:15:58Z</time>
            </trkpt>
            <trkpt lat="47.253958027" lon="4.904354392">
                <ele>516.379700</ele>
                <time>2015-05-25T11:16:13Z</time>
            </trkpt>
            <trkpt lat="47.253925698" lon="4.904059013">
                <ele>516.776489</ele>
                <time>2015-05-25T11:16:29Z</time>
            </trkpt>
            <trkpt lat="47.253878005" lon="4.903710326">
                <ele>515.866882</ele>
                <time>2015-05-25T11:16:46Z</time>
            </trkpt>
            <trkpt lat="47.253860654" lon="4.903371194">
                <ele>515.252502</ele>
                <time>2015-05-25T11:17:02Z</time>
            </trkpt>
            <trkpt lat="47.253838359" lon="4.903158933">
                <ele>514.012512</ele>
                <time>2015-05-25T11:17:04Z</time>
            </trkpt>
            <trkpt lat="47.253811066" lon="4.902868457">
                <ele>512.387512</ele>
                <time>2015-05-25T11:17:20Z</time>
            </trkpt>
            <trkpt lat="47.253835079" lon="4.902547394">
                <ele>511.812500</ele>
                <time>2015-05-25T11:17:38Z</time>
            </trkpt>
            <trkpt lat="47.253886637" lon="4.902252437">
                <ele>511.912506</ele>
            </trkpt>
            <trkpt lat="47.253930925" lon="4.902031489">
                <ele>511.981262</ele>
                <time>2015-05-25T11:17:57Z</time>
            </trkpt>
            <trkpt lat="47.253976129" lon="4.901769274">
                <ele>511.681244</ele>
                <time>2015-05-25T11:18:15Z</time>
            </trkpt>
            <trkpt lat="47.254044542" lon="4.901475124">
                <ele>511.681244</ele>
                <time>2015-05-25T11:18:31Z</time>
            </trkpt>
            <trkpt lat="47.254083759" lon="4.901229145">
                <ele>511.329437</ele>
                <time>2015-05-25T11:18:44Z</time>
            </trkpt>
            <trkpt lat="47.254099948" lon="4.901006849">
                <ele>510.573853</ele>
                <time>2015-05-25T11:18:55Z</time>
            </trkpt>
            <trkpt lat="47.254106732" lon="4.900701482">
                <ele>509.451935</ele>
                <time>2015-05-25T11:19:11Z</time>
            </trkpt>
            <trkpt lat="47.254125120" lon="4.900380147">
                <ele>509.176514</ele>
                <time>2015-05-25T11:19:28Z</time>
            </trkpt>
            <trkpt lat="47.254125000" lon="4.900132282">
                <ele>508.676636</ele>
                <time>2015-05-25T11:19:41Z</time>
            </trkpt>
            <trkpt lat="47.254140637" lon="4.899934745">
                <ele>508.649780</ele>
                <time>2015-05-25T11:19:48Z</time>
            </trkpt>
            <trkpt lat="47.254173682" lon="4.899713255">
                <ele>509.187897</ele>
            </trkpt>
            <trkpt lat="47.254178080" lon="4.899515179">
                <ele>508.937408</ele>
            </trkpt>
            <trkpt lat="47.254189013" lon="4.899276105">
                <ele>509.707489</ele>
                <time>2015-05-25T11:20:06Z</time>
            </trkpt>
            <trkpt lat="47.254149556" lon="4.899026357">
                <ele>508.917297</ele>
                <time>2015-05-25T11:20:17Z</time>
            </trkpt>
            <trkpt lat="47.254093241" lon="4.898775802">
                <ele>507.588684</ele>
                <time>2015-05-25T11:20:34Z</time>
            </trkpt>
            <trkpt lat="47.254007547" lon="4.898581674">
                <ele>505.566315</ele>
                <time>2015-05-25T11:20:52Z</time>
            </trkpt>
            <trkpt lat="47.253937977" lon="4.898421367">
                <ele>504.057678</ele>
            </trkpt>
            <trkpt lat="47.253857902" lon="4.898227509">
                <ele>502.385254</ele>
                <time>2015-05-25T11:21:09Z</time>
            </trkpt>
            <trkpt lat="47.253767137" lon="4.898008355">
                <ele>501.080170</ele>
                <time>2015-05-25T11:21:24Z</time>
            </trkpt>
            <trkpt lat="47.253683822" lon="4.897706939">
                <ele>501.049561</ele>
                <time>2015-05-25T11:21:38Z</time>
            </trkpt>
            <trkpt lat="47.253610097" lon="4.897480340">
                <ele>500.837982</ele>
                <time>2015-05-25T11:21:48Z</time>
            </trkpt>
            <trkpt lat="47.253498318" lon="4.897194088">
                <ele>500.739990</ele>
                <time>2015-05-25T11:22:05Z</time>
            </trkpt>
            <trkpt lat="47.253404427" lon="4.896944035">
                <ele>500.850006</ele>
                <time>2015-05-25T11:22:22Z</time>
            </trkpt>
            <trkpt lat="47.253322452" lon="4.896663493">
                <ele>501.845978</ele>
                <time>2015-05-25T11:22:38Z</time>
            </trkpt>
            <trkpt lat="47.253165794" lon="4.896277925">
                <ele>502.440918</ele>
                <time>2015-05-25T11:22:55Z</time>
            </trkpt>
            <trkpt lat="47.253050041" lon="4.895943403">
                <ele>502.904999</ele>
                <time>2015-05-25T11:23:12Z</time>
            </trkpt>
            <trkpt lat="47.252950296" lon="4.895558590">
                <ele>504.320007</ele>
                <time>2015-05-25T11:23:31Z</time>
            </trkpt>
            <trkpt lat="47.252884917" lon="4.895271342">
                <ele>505.483185</ele>
                <time>2015-05-25T11:23:46Z</time>
            </trkpt>
            <trkpt lat="47.252783496" lon="4.894899270">
                <ele>505.797119</ele>
                <time>2015-05-25T11:24:04Z</time>
            </trkpt>
            <trkpt lat="47.252686601" lon="4.894587798">
                <ele>504.887482</ele>
                <time>2015-05-25T11:24:20Z</time>
            </trkpt>
            <trkpt lat="47.252595854" lon="4.894259308">
                <ele>503.705505</ele>
                <time>2015-05-25T11:24:37Z</time>
            </trkpt>
            <trkpt lat="47.252523036" lon="4.893991454">
                <ele>502.495422</ele>
                <time>2015-05-25T11:24:54Z</time>
            </trkpt>
            <trkpt lat="47.252433178" lon="4.893731047">
                <ele>500.755005</ele>
                <time>2015-05-25T11:25:08Z</time>
            </trkpt>
            <trkpt lat="47.252351073" lon="4.893403100">
                <ele>499.933044</ele>
                <time>2015-05-25T11:25:23Z</time>
            </trkpt>
            <trkpt lat="47.252304805" lon="4.893154325">
                <ele>499.862000</ele>
                <time>2015-05-25T11:25:34Z</time>
            </trkpt>
            <trkpt lat="47.252271643" lon="4.892897164">
                <ele>500.146942</ele>
            </trkpt>
            <trkpt lat="47.252219837" lon="4.892696410">
                <ele>499.278076</ele>
                <time>2015-05-25T11:25:49Z</time>
            </trkpt>
            <trkpt lat="47.252151539" lon="4.892478345">
                <ele>497.662170</ele>
                <time>2015-05-25T11:25:54Z</time>
            </trkpt>
            <trkpt lat="47.252056788" lon="4.892184663">
                <ele>495.311493</ele>
                <time>2015-05-25T11:26:14Z</time>
            </trkpt>
            <trkpt lat="47.251971631" lon="4.891965795">
                <ele>493.432373</ele>
                <time>2015-05-25T11:26:31Z</time>
            </trkpt>
            <trkpt lat="47.251875568" lon="4.891770640">
                <ele>491.113251</ele>
                <time>2015-05-25T11:26:45Z</time>
            </trkpt>
            <trkpt lat="47.251806387" lon="4.891553087">
                <ele>489.662231</ele>
                <time>2015-05-25T11:26:59Z</time>
            </trkpt>
            <trkpt lat="47.251755875" lon="4.891328495">
                <ele>488.851532</ele>
                <time>2015-05-25T11:27:07Z</time>
            </trkpt>
            <trkpt lat="47.251720723" lon="4.891102873">
                <ele>488.718384</ele>
                <time>2015-05-25T11:27:23Z</time>
            </trkpt>
            <trkpt lat="47.251681797" lon="4.890828384">
                <ele>488.783508</ele>
                <time>2015-05-25T11:27:38Z</time>
            </trkpt>
            <trkpt lat="47.251636337" lon="4.890594891">
                <ele>488.037506</ele>
                <time>2015-05-25T11:27:53Z</time>
            </trkpt>
            <trkpt lat="47.251602298" lon="4.890353682">
                <ele>487.412506</ele>
                <time>2015-05-25T11:28:08Z</time>
            </trkpt>
            <trkpt lat="47.251585298" lon="4.890105025">
                <ele>487.412506</ele>
                <time>2015-05-25T11:28:23Z</time>
            </trkpt>
            <trkpt lat="47.251567385" lon="4.889897633">
                <ele>487.581238</ele>
                <time>2015-05-25T11:28:42Z</time>
            </trkpt>
            <trkpt lat="47.251550385" lon="4.889648976">
                <ele>487.956238</ele>
                <time>2015-05-25T11:29:01Z</time>
            </trkpt>
            <trkpt lat="47.251532654" lon="4.889433331">
                <ele>488.181244</ele>
                <time>2015-05-25T11:29:11Z</time>
            </trkpt>
            <trkpt lat="47.251526526" lon="4.889201716">
                <ele>488.287354</ele>
                <time>2015-05-25T11:29:30Z</time>
            </trkpt>
            <trkpt lat="47.251508612" lon="4.888994324">
                <ele>487.990479</ele>
                <time>2015-05-25T11:29:49Z</time>
            </trkpt>
            <trkpt lat="47.251514816" lon="4.888713728">
                <ele>488.551239</ele>
                <time>2015-05-25T11:29:56Z</time>
            </trkpt>
            <trkpt lat="47.251576773" lon="4.888964529">
                <ele>490.204285</ele>
                <time>2015-05-25T11:30:10Z</time>
            </trkpt>
            <trkpt lat="47.251633474" lon="4.889198556">
                <ele>491.818665</ele>
                <time>2015-05-25T11:30:27Z</time>
            </trkpt>
            <trkpt lat="47.251689810" lon="4.889449089">
                <ele>493.334869</ele>
                <time>2015-05-25T11:30:43Z</time>
            </trkpt>
            <trkpt lat="47.251762456" lon="4.889725186">
                <ele>494.548065</ele>
                <time>2015-05-25T11:30:56Z</time>
            </trkpt>
            <trkpt lat="47.251869912" lon="4.889953376">
                <ele>497.308319</ele>
                <time>2015-05-25T11:31:11Z</time>
            </trkpt>
            <trkpt lat="47.251944930" lon="4.890122187">
                <ele>499.412506</ele>
                <time>2015-05-25T11:31:30Z</time>
            </trkpt>
            <trkpt lat="47.252099388" lon="4.890005633">
                <ele>504.728882</ele>
                <time>2015-05-25T11:31:49Z</time>
            </trkpt>
            <trkpt lat="47.252202725" lon="4.889911425">
                <ele>508.376587</ele>
                <time>2015-05-25T11:33:25Z</time>
            </trkpt>
            <trkpt lat="47.252324563" lon="4.889743744">
                <ele>512.596802</ele>
                <time>2015-05-25T11:33:54Z</time>
            </trkpt>
            <trkpt lat="47.252368278" lon="4.889547551">
                <ele>514.120972</ele>
                <time>2015-05-25T11:34:34Z</time>
            </trkpt>
            <trkpt lat="47.252412906" lon="4.889310092">
                <ele>515.386597</ele>
                <time>2015-05-25T11:35:02Z</time>
            </trkpt>
            <trkpt lat="47.252451002" lon="4.889113630">
                <ele>516.352051</ele>
                <time>2015-05-25T11:35:28Z</time>
            </trkpt>
            <trkpt lat="47.252518106" lon="4.888877242">
                <ele>518.049683</ele>
                <time>2015-05-25T11:35:43Z</time>
            </trkpt>
            <trkpt lat="47.252584298" lon="4.888682119">
                <ele>519.129517</ele>
                <time>2015-05-25T11:36:01Z</time>
            </trkpt>
            <trkpt lat="47.252649576" lon="4.888528261">
                <ele>520.615784</ele>
                <time>2015-05-25T11:36:15Z</time>
            </trkpt>
            <trkpt lat="47.252737332" lon="4.888375473">
                <ele>522.615112</ele>
                <time>2015-05-25T11:36:30Z</time>
            </trkpt>
            <trkpt lat="47.252841580" lon="4.888239996">
                <ele>524.963989</ele>
                <time>2015-05-25T11:36:46Z</time>
            </trkpt>
            <trkpt lat="47.252956883" lon="4.888113306">
                <ele>527.252502</ele>
                <time>2015-05-25T11:37:02Z</time>
            </trkpt>
            <trkpt lat="47.253091416" lon="4.887880131">
                <ele>528.024170</ele>
                <time>2015-05-25T11:37:16Z</time>
            </trkpt>
            <trkpt lat="47.253209456" lon="4.887629644">
                <ele>526.960022</ele>
                <time>2015-05-25T11:37:21Z</time>
            </trkpt>
            <trkpt lat="47.253286701" lon="4.887443306">
                <ele>525.868774</ele>
                <time>2015-05-25T11:37:37Z</time>
            </trkpt>
            <trkpt lat="47.253408718" lon="4.887267363">
                <ele>525.415466</ele>
                <time>2015-05-25T11:37:51Z</time>
            </trkpt>
            <trkpt lat="47.253524021" lon="4.887140670">
                <ele>524.912659</ele>
                <time>2015-05-25T11:37:57Z</time>
            </trkpt>
            <trkpt lat="47.253517523" lon="4.886925553">
                <ele>521.587158</ele>
                <time>2015-05-25T11:38:05Z</time>
            </trkpt>
            <trkpt lat="47.253583347" lon="4.886746930">
                <ele>520.804626</ele>
                <time>2015-05-25T11:38:21Z</time>
            </trkpt>
            <trkpt lat="47.253654060" lon="4.886601587">
                <ele>520.226379</ele>
                <time>2015-05-25T11:38:36Z</time>
            </trkpt>
            <trkpt lat="47.253719335" lon="4.886447723">
                <ele>519.427124</ele>
                <time>2015-05-25T11:38:37Z</time>
            </trkpt>
            <trkpt lat="47.253784429" lon="4.886302112">
                <ele>518.408997</ele>
            </trkpt>
            <trkpt lat="47.253856417" lon="4.886098995">
                <ele>517.635986</ele>
                <time>2015-05-25T11:38:53Z</time>
            </trkpt>
            <trkpt lat="47.253928952" lon="4.885871119">
                <ele>516.757385</ele>
                <time>2015-05-25T11:39:10Z</time>
            </trkpt>
            <trkpt lat="47.254006377" lon="4.885676522">
                <ele>515.060669</ele>
                <time>2015-05-25T11:39:28Z</time>
            </trkpt>
            <trkpt lat="47.254089602" lon="4.885473940">
                <ele>512.280029</ele>
                <time>2015-05-25T11:39:44Z</time>
            </trkpt>
            <trkpt lat="47.254178629" lon="4.885263371">
                <ele>509.320007</ele>
                <time>2015-05-25T11:39:58Z</time>
            </trkpt>
            <trkpt lat="47.254250434" lon="4.885068505">
                <ele>506.920013</ele>
                <time>2015-05-25T11:40:10Z</time>
            </trkpt>
            <trkpt lat="47.254328039" lon="4.884865653">
                <ele>504.208801</ele>
                <time>2015-05-25T11:40:23Z</time>
            </trkpt>
            <trkpt lat="47.254464205" lon="4.884558183">
                <ele>499.164917</ele>
            </trkpt>
            <trkpt lat="47.254535644" lon="4.884379822">
                <ele>497.168549</ele>
                <time>2015-05-25T11:40:38Z</time>
            </trkpt>
            <trkpt lat="47.254612884" lon="4.884193474">
                <ele>495.465057</ele>
                <time>2015-05-25T11:40:41Z</time>
            </trkpt>
            <trkpt lat="47.254678521" lon="4.884023098">
                <ele>494.113281</ele>
                <time>2015-05-25T11:40:53Z</time>
            </trkpt>
            <trkpt lat="47.254815049" lon="4.883699118">
                <ele>491.468597</ele>
            </trkpt>
            <trkpt lat="47.254904437" lon="4.883472036">
                <ele>489.959991</ele>
            </trkpt>
            <trkpt lat="47.254982039" lon="4.883269179">
                <ele>488.524414</ele>
                <time>2015-05-25T11:41:09Z</time>
            </trkpt>
            <trkpt lat="47.255047857" lon="4.883090547">
                <ele>487.048126</ele>
                <time>2015-05-25T11:41:24Z</time>
            </trkpt>
            <trkpt lat="47.255119111" lon="4.882920435">
                <ele>485.227631</ele>
                <time>2015-05-25T11:41:42Z</time>
            </trkpt>
            <trkpt lat="47.255196349" lon="4.882734083">
                <ele>483.157318</ele>
                <time>2015-05-25T11:41:57Z</time>
            </trkpt>
            <trkpt lat="47.255267785" lon="4.882555717">
                <ele>481.430176</ele>
                <time>2015-05-25T11:42:16Z</time>
            </trkpt>
            <trkpt lat="47.255350823" lon="4.882361378">
                <ele>479.631256</ele>
                <time>2015-05-25T11:42:33Z</time>
            </trkpt>
            <trkpt lat="47.255428060" lon="4.882175025">
                <ele>477.416382</ele>
                <time>2015-05-25T11:42:43Z</time>
            </trkpt>
            <trkpt lat="47.255506024" lon="4.881955657">
                <ele>474.795929</ele>
                <time>2015-05-25T11:42:53Z</time>
            </trkpt>
            <trkpt lat="47.255565674" lon="4.881801515">
                <ele>472.985138</ele>
                <time>2015-05-25T11:43:02Z</time>
            </trkpt>
            <trkpt lat="47.255654513" lon="4.881599188">
                <ele>470.539154</ele>
                <time>2015-05-25T11:43:12Z</time>
            </trkpt>
            <trkpt lat="47.255731930" lon="4.881404579">
                <ele>468.363892</ele>
                <time>2015-05-25T11:43:23Z</time>
            </trkpt>
            <trkpt lat="47.255826933" lon="4.881177757">
                <ele>465.889618</ele>
                <time>2015-05-25T11:43:35Z</time>
            </trkpt>
            <trkpt lat="47.255910332" lon="4.880966907">
                <ele>463.565582</ele>
                <time>2015-05-25T11:43:37Z</time>
            </trkpt>
            <trkpt lat="47.255969981" lon="4.880812762">
                <ele>461.297760</ele>
                <time>2015-05-25T11:43:52Z</time>
            </trkpt>
            <trkpt lat="47.256041414" lon="4.880634391">
                <ele>458.675446</ele>
                <time>2015-05-25T11:43:57Z</time>
            </trkpt>
            <trkpt lat="47.256095626" lon="4.880471724">
                <ele>456.629883</ele>
                <time>2015-05-25T11:44:09Z</time>
            </trkpt>
            <trkpt lat="47.256167604" lon="4.880268591">
                <ele>453.833923</ele>
                <time>2015-05-25T11:44:23Z</time>
            </trkpt>
            <trkpt lat="47.256227252" lon="4.880114445">
                <ele>451.576233</ele>
                <time>2015-05-25T11:44:36Z</time>
            </trkpt>
            <trkpt lat="47.256310104" lon="4.879928352">
                <ele>448.702820</ele>
                <time>2015-05-25T11:44:51Z</time>
            </trkpt>
            <trkpt lat="47.256382445" lon="4.879708711">
                <ele>445.951630</ele>
                <time>2015-05-25T11:45:05Z</time>
            </trkpt>
            <trkpt lat="47.256466169" lon="4.879758619">
                <ele>444.522675</ele>
                <time>2015-05-25T11:45:09Z</time>
            </trkpt>
            <trkpt lat="47.256604669" lon="4.879834945">
                <ele>442.097992</ele>
                <time>2015-05-25T11:45:25Z</time>
            </trkpt>
            <trkpt lat="47.256727384" lon="4.879882089">
                <ele>439.793152</ele>
                <time>2015-05-25T11:45:31Z</time>
            </trkpt>
            <trkpt lat="47.256865865" lon="4.879979557">
                <ele>437.256256</ele>
                <time>2015-05-25T11:45:43Z</time>
            </trkpt>
            <trkpt lat="47.256982233" lon="4.880059449">
                <ele>434.993744</ele>
                <time>2015-05-25T11:45:53Z</time>
            </trkpt>
            <trkpt lat="47.257098782" lon="4.880131088">
                <ele>432.643738</ele>
                <time>2015-05-25T11:46:01Z</time>
            </trkpt>
            <trkpt lat="47.257226752" lon="4.880195008">
                <ele>430.056244</ele>
                <time>2015-05-25T11:46:11Z</time>
            </trkpt>
            <trkpt lat="47.257337864" lon="4.880258127">
                <ele>427.650574</ele>
                <time>2015-05-25T11:46:23Z</time>
            </trkpt>
            <trkpt lat="47.257454595" lon="4.880321513">
                <ele>424.954773</ele>
                <time>2015-05-25T11:46:36Z</time>
            </trkpt>
            <trkpt lat="47.257587638" lon="4.880410462">
                <ele>422.054779</ele>
                <time>2015-05-25T11:46:43Z</time>
            </trkpt>
            <trkpt lat="47.257687148" lon="4.880489555">
                <ele>419.973755</ele>
                <time>2015-05-25T11:46:55Z</time>
            </trkpt>
            <trkpt lat="47.257876565" lon="4.880572923">
                <ele>416.621643</ele>
                <time>2015-05-25T11:47:02Z</time>
            </trkpt>
            <trkpt lat="47.257873856" lon="4.880440595">
                <ele>416.116425</ele>
            </trkpt>
            <trkpt lat="47.257832540" lon="4.880273382">
                <ele>415.864563</ele>
                <time>2015-05-25T11:47:05Z</time>
            </trkpt>
            <trkpt lat="47.257774911" lon="4.880080606">
                <ele>415.808594</ele>
                <time>2015-05-25T11:47:22Z</time>
            </trkpt>
            <trkpt lat="47.257706589" lon="4.879862534">
                <ele>416.159302</ele>
                <time>2015-05-25T11:47:39Z</time>
            </trkpt>
            <trkpt lat="47.257650414" lon="4.879603729">
                <ele>415.928741</ele>
            </trkpt>
            <trkpt lat="47.257617261" lon="4.879321231">
                <ele>414.883759</ele>
            </trkpt>
            <trkpt lat="47.257594619" lon="4.879072283">
                <ele>414.184570</ele>
            </trkpt>
            <trkpt lat="47.257572158" lon="4.878815081">
                <ele>414.625244</ele>
                <time>2015-05-25T11:47:56Z</time>
            </trkpt>
            <trkpt lat="47.257555315" lon="4.878558146">
                <ele>414.811615</ele>
                <time>2015-05-25T11:48:14Z</time>
            </trkpt>
            <trkpt lat="47.257560586" lon="4.878318786">
                <ele>415.072937</ele>
                <time>2015-05-25T11:48:32Z</time>
            </trkpt>
            <trkpt lat="47.257610265" lon="4.878106323">
                <ele>414.627075</ele>
                <time>2015-05-25T11:48:50Z</time>
            </trkpt>
            <trkpt lat="47.257653960" lon="4.877910101">
                <ele>414.294250</ele>
                <time>2015-05-25T11:49:07Z</time>
            </trkpt>
            <trkpt lat="47.257697838" lon="4.877705624">
                <ele>414.046814</ele>
                <time>2015-05-25T11:49:25Z</time>
            </trkpt>
            <trkpt lat="47.257708726" lon="4.877466531">
                <ele>414.511749</ele>
                <time>2015-05-25T11:49:41Z</time>
            </trkpt>
            <trkpt lat="47.257737198" lon="4.877195223">
                <ele>414.833862</ele>
                <time>2015-05-25T11:49:57Z</time>
            </trkpt>
            <trkpt lat="47.257771288" lon="4.876924181">
                <ele>414.489990</ele>
                <time>2015-05-25T11:50:14Z</time>
            </trkpt>
            <trkpt lat="47.257799940" lon="4.876644619">
                <ele>414.140015</ele>
                <time>2015-05-25T11:50:29Z</time>
            </trkpt>
            <trkpt lat="47.257867927" lon="4.876366923">
                <ele>413.186249</ele>
                <time>2015-05-25T11:50:47Z</time>
            </trkpt>
            <trkpt lat="47.257928841" lon="4.876154990">
                <ele>412.418213</ele>
                <time>2015-05-25T11:51:03Z</time>
            </trkpt>
            <trkpt lat="47.257978153" lon="4.875959032">
                <ele>411.876099</ele>
                <time>2015-05-25T11:51:21Z</time>
            </trkpt>
            <trkpt lat="47.257977798" lon="4.875719404">
                <ele>412.017944</ele>
                <time>2015-05-25T11:51:38Z</time>
            </trkpt>
            <trkpt lat="47.258011522" lon="4.875464868">
                <ele>411.739838</ele>
                <time>2015-05-25T11:51:43Z</time>
            </trkpt>
            <trkpt lat="47.258023313" lon="4.875184503">
                <ele>411.773834</ele>
            </trkpt>
            <trkpt lat="47.258045979" lon="4.874921179">
                <ele>411.432587</ele>
                <time>2015-05-25T11:51:49Z</time>
            </trkpt>
            <trkpt lat="47.258097104" lon="4.874642681">
                <ele>410.981079</ele>
            </trkpt>
            <trkpt lat="47.258141157" lon="4.874429946">
                <ele>410.571259</ele>
                <time>2015-05-25T11:52:05Z</time>
            </trkpt>
            <trkpt lat="47.258226358" lon="4.874136537">
                <ele>409.771240</ele>
            </trkpt>
            <trkpt lat="47.258311559" lon="4.873843128">
                <ele>408.901123</ele>
            </trkpt>
            <trkpt lat="47.258401835" lon="4.873574745">
                <ele>407.779327</ele>
                <time>2015-05-25T11:52:19Z</time>
            </trkpt>
            <trkpt lat="47.258513498" lon="4.873356952">
                <ele>406.884094</ele>
                <time>2015-05-25T11:52:37Z</time>
            </trkpt>
            <trkpt lat="47.258613923" lon="4.873138624">
                <ele>406.067505</ele>
                <time>2015-05-25T11:52:53Z</time>
            </trkpt>
            <trkpt lat="47.258708002" lon="4.872953045">
                <ele>405.292511</ele>
                <time>2015-05-25T11:53:10Z</time>
            </trkpt>
            <trkpt lat="47.258802082" lon="4.872767466">
                <ele>404.506744</ele>
                <time>2015-05-25T11:53:25Z</time>
            </trkpt>
            <trkpt lat="47.258873865" lon="4.872572566">
                <ele>403.798737</ele>
                <time>2015-05-25T11:53:35Z</time>
            </trkpt>
            <trkpt lat="47.258962324" lon="4.872386719">
                <ele>403.326233</ele>
                <time>2015-05-25T11:53:39Z</time>
            </trkpt>
            <trkpt lat="47.259085405" lon="4.872161199">
                <ele>402.711243</ele>
                <time>2015-05-25T11:53:43Z</time>
            </trkpt>
            <trkpt lat="47.259180027" lon="4.871950854">
                <ele>402.186249</ele>
                <time>2015-05-25T11:53:49Z</time>
            </trkpt>
            <trkpt lat="47.259292050" lon="4.871716546">
                <ele>401.815399</ele>
                <time>2015-05-25T11:54:09Z</time>
            </trkpt>
            <trkpt lat="47.259392109" lon="4.871514720">
                <ele>401.009430</ele>
                <time>2015-05-25T11:54:28Z</time>
            </trkpt>
            <trkpt lat="47.259492168" lon="4.871312894">
                <ele>400.088989</ele>
                <time>2015-05-25T11:54:46Z</time>
            </trkpt>
            <trkpt lat="47.259575006" lon="4.871126776">
                <ele>398.842499</ele>
                <time>2015-05-25T11:55:02Z</time>
            </trkpt>
            <trkpt lat="47.259714942" lon="4.870902049">
                <ele>396.942505</ele>
                <time>2015-05-25T11:55:14Z</time>
            </trkpt>
            <trkpt lat="47.259825876" lon="4.870717261">
                <ele>395.175934</ele>
                <time>2015-05-25T11:55:32Z</time>
            </trkpt>
            <trkpt lat="47.259970344" lon="4.870542323">
                <ele>393.022766</ele>
                <time>2015-05-25T11:55:49Z</time>
            </trkpt>
            <trkpt lat="47.260064781" lon="4.870340227">
                <ele>391.341827</ele>
                <time>2015-05-25T11:56:06Z</time>
            </trkpt>
            <trkpt lat="47.260228461" lon="4.870058780">
                <ele>388.799957</ele>
            </trkpt>
            <trkpt lat="47.260373471" lon="4.869859076">
                <ele>385.831818</ele>
                <time>2015-05-25T11:56:22Z</time>
            </trkpt>
            <trkpt lat="47.260472984" lon="4.869682006">
                <ele>383.828888</ele>
                <time>2015-05-25T11:56:40Z</time>
            </trkpt>
            <trkpt lat="47.260589354" lon="4.869505733">
                <ele>382.027679</ele>
                <time>2015-05-25T11:56:58Z</time>
            </trkpt>
            <trkpt lat="47.260717143" lon="4.869321737">
                <ele>379.657654</ele>
            </trkpt>
            <trkpt lat="47.260878285" lon="4.869155845">
                <ele>375.847046</ele>
                <time>2015-05-25T11:57:11Z</time>
            </trkpt>
            <trkpt lat="47.260999187" lon="4.869029361">
                <ele>373.567505</ele>
                <time>2015-05-25T11:57:26Z</time>
            </trkpt>
            <trkpt lat="47.261107815" lon="4.868901204">
                <ele>371.912384</ele>
                <time>2015-05-25T11:57:39Z</time>
            </trkpt>
            <trkpt lat="47.261282075" lon="4.868748318">
                <ele>367.999908</ele>
                <time>2015-05-25T11:57:52Z</time>
            </trkpt>
            <trkpt lat="47.261392297" lon="4.868620075">
                <ele>364.638336</ele>
                <time>2015-05-25T11:58:03Z</time>
            </trkpt>
            <trkpt lat="47.261522552" lon="4.868487055">
                <ele>361.635803</ele>
                <time>2015-05-25T11:58:14Z</time>
            </trkpt>
            <trkpt lat="47.261637410" lon="4.868398530">
                <ele>358.659210</ele>
                <time>2015-05-25T11:58:27Z</time>
            </trkpt>
            <trkpt lat="47.261773721" lon="4.868338877">
                <ele>353.677338</ele>
                <time>2015-05-25T11:58:28Z</time>
            </trkpt>
            <trkpt lat="47.261911118" lon="4.868229696">
                <ele>349.034851</ele>
            </trkpt>
            <trkpt lat="47.262015885" lon="4.868069392">
                <ele>345.578491</ele>
                <time>2015-05-25T11:58:42Z</time>
            </trkpt>
            <trkpt lat="47.262109232" lon="4.867916810">
                <ele>343.609314</ele>
                <time>2015-05-25T11:58:57Z</time>
            </trkpt>
            <trkpt lat="47.262208199" lon="4.867764494">
                <ele>342.408478</ele>
                <time>2015-05-25T11:59:13Z</time>
            </trkpt>
            <trkpt lat="47.262317861" lon="4.867637473">
                <ele>341.147125</ele>
                <time>2015-05-25T11:59:24Z</time>
            </trkpt>
            <trkpt lat="47.262439856" lon="4.867717612">
                <ele>341.934601</ele>
                <time>2015-05-25T11:59:35Z</time>
            </trkpt>
            <trkpt lat="47.262540822" lon="4.867730652">
                <ele>343.352997</ele>
                <time>2015-05-25T11:59:46Z</time>
            </trkpt>
            <trkpt lat="47.262663722" lon="4.867769519">
                <ele>348.338562</ele>
            </trkpt>
            <trkpt lat="47.262659559" lon="4.867959375">
                <ele>351.250946</ele>
                <time>2015-05-25T11:59:53Z</time>
            </trkpt>
            <trkpt lat="47.262765602" lon="4.867997445">
                <ele>356.224426</ele>
                <time>2015-05-25T12:00:11Z</time>
            </trkpt>
            <trkpt lat="47.262790078" lon="4.868163867">
                <ele>360.262268</ele>
                <time>2015-05-25T12:00:17Z</time>
            </trkpt>
            <trkpt lat="47.262901196" lon="4.868226967">
                <ele>366.046143</ele>
                <time>2015-05-25T12:00:31Z</time>
            </trkpt>
            <trkpt lat="47.262903557" lon="4.868375816">
                <ele>368.354736</ele>
                <time>2015-05-25T12:00:48Z</time>
            </trkpt>
            <trkpt lat="47.262922957" lon="4.868517209">
                <ele>371.277435</ele>
                <time>2015-05-25T12:01:04Z</time>
            </trkpt>
            <trkpt lat="47.263050028" lon="4.868622381">
                <ele>376.402557</ele>
                <time>2015-05-25T12:01:20Z</time>
            </trkpt>
            <trkpt lat="47.263149183" lon="4.868717970">
                <ele>380.559265</ele>
                <time>2015-05-25T12:01:36Z</time>
            </trkpt>
            <trkpt lat="47.263248519" lon="4.868805304">
                <ele>384.709564</ele>
                <time>2015-05-25T12:01:51Z</time>
            </trkpt>
            <trkpt lat="47.263336979" lon="4.868875597">
                <ele>387.939087</ele>
                <time>2015-05-25T12:02:08Z</time>
            </trkpt>
            <trkpt lat="47.263436134" lon="4.868971186">
                <ele>390.097168</ele>
                <time>2015-05-25T12:02:22Z</time>
            </trkpt>
            <trkpt lat="47.263530214" lon="4.869041746">
                <ele>391.422974</ele>
                <time>2015-05-25T12:02:40Z</time>
            </trkpt>
            <trkpt lat="47.263651483" lon="4.869154909">
                <ele>393.643127</ele>
                <time>2015-05-25T12:02:55Z</time>
            </trkpt>
            <trkpt lat="47.263750820" lon="4.869242245">
                <ele>395.734528</ele>
                <time>2015-05-25T12:03:08Z</time>
            </trkpt>
            <trkpt lat="47.263838917" lon="4.869329049">
                <ele>397.531036</ele>
                <time>2015-05-25T12:03:24Z</time>
            </trkpt>
            <trkpt lat="47.263965806" lon="4.869442480">
                <ele>398.560181</ele>
                <time>2015-05-25T12:03:40Z</time>
            </trkpt>
            <trkpt lat="47.264081999" lon="4.869530615">
                <ele>399.916534</ele>
                <time>2015-05-25T12:03:56Z</time>
            </trkpt>
            <trkpt lat="47.264203450" lon="4.869635526">
                <ele>401.019196</ele>
                <time>2015-05-25T12:04:10Z</time>
            </trkpt>
            <trkpt lat="47.264296985" lon="4.869730852">
                <ele>402.260010</ele>
                <time>2015-05-25T12:04:30Z</time>
            </trkpt>
            <trkpt lat="47.264429312" lon="4.869852806">
                <ele>403.963501</ele>
                <time>2015-05-25T12:04:50Z</time>
            </trkpt>
            <trkpt lat="47.264562182" lon="4.869949995">
                <ele>405.684998</ele>
                <time>2015-05-25T12:05:09Z</time>
            </trkpt>
            <trkpt lat="47.264672756" lon="4.870037866">
                <ele>407.493744</ele>
                <time>2015-05-25T12:05:33Z</time>
            </trkpt>
            <trkpt lat="47.264794387" lon="4.870134525">
                <ele>409.391602</ele>
                <time>2015-05-25T12:05:49Z</time>
            </trkpt>
            <trkpt lat="47.264933238" lon="4.870215472">
                <ele>411.096252</ele>
                <time>2015-05-25T12:06:07Z</time>
            </trkpt>
            <trkpt lat="47.265043269" lon="4.870328109">
                <ele>412.234619</ele>
                <time>2015-05-25T12:06:23Z</time>
            </trkpt>
            <trkpt lat="47.265147498" lon="4.870448735">
                <ele>413.224609</ele>
                <time>2015-05-25T12:06:43Z</time>
            </trkpt>
            <trkpt lat="47.265252996" lon="4.870511577">
                <ele>413.619415</ele>
                <time>2015-05-25T12:07:04Z</time>
            </trkpt>
            <trkpt lat="47.265346712" lon="4.870598651">
                <ele>414.328094</ele>
                <time>2015-05-25T12:07:22Z</time>
            </trkpt>
            <trkpt lat="47.265468342" lon="4.870695312">
                <ele>415.332184</ele>
                <time>2015-05-25T12:07:41Z</time>
            </trkpt>
            <trkpt lat="47.265629308" lon="4.870793837">
                <ele>416.592468</ele>
                <time>2015-05-25T12:08:00Z</time>
            </trkpt>
            <trkpt lat="47.265783929" lon="4.870925116">
                <ele>418.288727</ele>
                <time>2015-05-25T12:08:20Z</time>
            </trkpt>
            <trkpt lat="47.265916255" lon="4.871047076">
                <ele>419.134064</ele>
                <time>2015-05-25T12:08:40Z</time>
            </trkpt>
            <trkpt lat="47.266060000" lon="4.871161314">
                <ele>420.070862</ele>
                <time>2015-05-25T12:09:00Z</time>
            </trkpt>
            <trkpt lat="47.266225859" lon="4.871293128">
                <ele>421.414307</ele>
                <time>2015-05-25T12:09:21Z</time>
            </trkpt>
            <trkpt lat="47.266375223" lon="4.871407634">
                <ele>422.829498</ele>
                <time>2015-05-25T12:09:42Z</time>
            </trkpt>
            <trkpt lat="47.266524043" lon="4.871546906">
                <ele>424.719513</ele>
                <time>2015-05-25T12:10:03Z</time>
            </trkpt>
            <trkpt lat="47.266651111" lon="4.871652092">
                <ele>426.260101</ele>
                <time>2015-05-25T12:10:22Z</time>
            </trkpt>
            <trkpt lat="47.266800474" lon="4.871766600">
                <ele>427.732544</ele>
                <time>2015-05-25T12:10:39Z</time>
            </trkpt>
            <trkpt lat="47.266949475" lon="4.871897619">
                <ele>429.586243</ele>
                <time>2015-05-25T12:10:57Z</time>
            </trkpt>
            <trkpt lat="47.267110077" lon="4.872012660">
                <ele>432.263763</ele>
                <time>2015-05-25T12:11:14Z</time>
            </trkpt>
            <trkpt lat="47.267259259" lon="4.872135425">
                <ele>434.798737</ele>
                <time>2015-05-25T12:11:29Z</time>
            </trkpt>
            <trkpt lat="47.267392127" lon="4.872232625">
                <ele>437.306244</ele>
                <time>2015-05-25T12:11:47Z</time>
            </trkpt>
            <trkpt lat="47.267536052" lon="4.872338614">
                <ele>441.026184</ele>
                <time>2015-05-25T12:12:01Z</time>
            </trkpt>
            <trkpt lat="47.267679796" lon="4.872452859">
                <ele>444.924988</ele>
                <time>2015-05-25T12:12:17Z</time>
            </trkpt>
            <trkpt lat="47.267801425" lon="4.872549529">
                <ele>448.237946</ele>
                <time>2015-05-25T12:12:32Z</time>
            </trkpt>
            <trkpt lat="47.267940093" lon="4.872638742">
                <ele>452.782990</ele>
                <time>2015-05-25T12:12:51Z</time>
            </trkpt>
            <trkpt lat="47.268061540" lon="4.872743668">
                <ele>457.091797</ele>
                <time>2015-05-25T12:13:09Z</time>
            </trkpt>
            <trkpt lat="47.268199302" lon="4.872874159">
                <ele>462.253815</ele>
                <time>2015-05-25T12:13:22Z</time>
            </trkpt>
            <trkpt lat="47.268297728" lon="4.873002787">
                <ele>466.850555</ele>
                <time>2015-05-25T12:13:36Z</time>
            </trkpt>
            <trkpt lat="47.268369690" lon="4.873055783">
                <ele>470.101074</ele>
                <time>2015-05-25T12:13:51Z</time>
            </trkpt>
            <trkpt lat="47.268457966" lon="4.873134345">
                <ele>474.069946</ele>
                <time>2015-05-25T12:14:07Z</time>
            </trkpt>
            <trkpt lat="47.268563854" lon="4.873226602">
                <ele>478.937714</ele>
                <time>2015-05-25T12:14:25Z</time>
            </trkpt>
            <trkpt lat="47.268651109" lon="4.873353336">
                <ele>483.529175</ele>
                <time>2015-05-25T12:14:55Z</time>
            </trkpt>
            <trkpt lat="47.268751189" lon="4.873400442">
                <ele>487.646881</ele>
                <time>2015-05-25T12:15:12Z</time>
            </trkpt>
            <trkpt lat="47.268865015" lon="4.873472275">
                <ele>492.416901</ele>
                <time>2015-05-25T12:15:30Z</time>
            </trkpt>
            <trkpt lat="47.268949554" lon="4.873546070">
                <ele>496.257202</ele>
                <time>2015-05-25T12:15:46Z</time>
            </trkpt>
            <trkpt lat="47.269049431" lon="4.873608656">
                <ele>500.625885</ele>
                <time>2015-05-25T12:16:01Z</time>
            </trkpt>
            <trkpt lat="47.269137888" lon="4.873678965">
                <ele>504.865936</ele>
                <time>2015-05-25T12:17:01Z</time>
            </trkpt>
            <trkpt lat="47.269204230" lon="4.873731696">
                <ele>508.613129</ele>
                <time>2015-05-25T12:17:18Z</time>
            </trkpt>
            <trkpt lat="47.269276374" lon="4.873776439">
                <ele>512.436646</ele>
                <time>2015-05-25T12:17:36Z</time>
            </trkpt>
            <trkpt lat="47.269364830" lon="4.873846748">
                <ele>517.189636</ele>
                <time>2015-05-25T12:17:52Z</time>
            </trkpt>
            <trkpt lat="47.269447849" lon="4.873908535">
                <ele>521.698975</ele>
                <time>2015-05-25T12:18:10Z</time>
            </trkpt>
            <trkpt lat="47.269508572" lon="4.873961001">
                <ele>525.254517</ele>
                <time>2015-05-25T12:18:27Z</time>
            </trkpt>
            <trkpt lat="47.269586335" lon="4.874006011">
                <ele>529.621033</ele>
                <time>2015-05-25T12:18:41Z</time>
            </trkpt>
            <trkpt lat="47.269669535" lon="4.874059543">
                <ele>534.472412</ele>
                <time>2015-05-25T12:19:02Z</time>
            </trkpt>
            <trkpt lat="47.269730077" lon="4.874120265">
                <ele>538.448425</ele>
                <time>2015-05-25T12:19:17Z</time>
            </trkpt>
            <trkpt lat="47.269813458" lon="4.874165541">
                <ele>543.354858</ele>
                <time>2015-05-25T12:19:36Z</time>
            </trkpt>
            <trkpt lat="47.269879800" lon="4.874218274">
                <ele>547.605652</ele>
                <time>2015-05-25T12:19:58Z</time>
            </trkpt>
            <trkpt lat="47.269945961" lon="4.874279263">
                <ele>552.043518</ele>
                <time>2015-05-25T12:20:13Z</time>
            </trkpt>
            <trkpt lat="47.270025909" lon="4.874292444">
                <ele>556.221497</ele>
                <time>2015-05-25T12:20:33Z</time>
            </trkpt>
            <trkpt lat="47.270026831" lon="4.874297474">
                <ele>556.296997</ele>
                <time>2015-05-25T12:20:52Z</time>
            </trkpt>
            <trkpt lat="47.270095395" lon="4.874343909">
                <ele>559.228149</ele>
                <time>2015-05-25T12:22:04Z</time>
            </trkpt>
            <trkpt lat="47.270107968" lon="4.874234442">
                <ele>557.861328</ele>
                <time>2015-05-25T12:22:21Z</time>
            </trkpt>
            <trkpt lat="47.270145719" lon="4.874148246">
                <ele>557.593323</ele>
                <time>2015-05-25T12:22:23Z</time>
            </trkpt>
            <trkpt lat="47.270187413" lon="4.874042787">
                <ele>557.042236</ele>
                <time>2015-05-25T12:22:37Z</time>
            </trkpt>
            <trkpt lat="47.270280223" lon="4.873914960">
                <ele>557.562744</ele>
                <time>2015-05-25T12:22:49Z</time>
            </trkpt>
            <trkpt lat="47.270355737" lon="4.873871421">
                <ele>558.948914</ele>
                <time>2015-05-25T12:23:04Z</time>
            </trkpt>
            <trkpt lat="47.270456053" lon="4.873848921">
                <ele>561.430847</ele>
                <time>2015-05-25T12:23:06Z</time>
            </trkpt>
            <trkpt lat="47.270541430" lon="4.873803384">
                <ele>562.553040</ele>
                <time>2015-05-25T12:23:22Z</time>
            </trkpt>
            <trkpt lat="47.270633152" lon="4.873725090">
                <ele>561.661804</ele>
                <time>2015-05-25T12:23:35Z</time>
            </trkpt>
            <trkpt lat="47.270712728" lon="4.873687542">
                <ele>561.974609</ele>
                <time>2015-05-25T12:23:51Z</time>
            </trkpt>
            <trkpt lat="47.270813512" lon="4.873708851">
                <ele>565.000183</ele>
                <time>2015-05-25T12:23:59Z</time>
            </trkpt>
            <trkpt lat="47.270859736" lon="4.873653193">
                <ele>563.816833</ele>
                <time>2015-05-25T12:24:05Z</time>
            </trkpt>
            <trkpt lat="47.270935688" lon="4.873524564">
                <ele>560.263123</ele>
                <time>2015-05-25T12:24:12Z</time>
            </trkpt>
            <trkpt lat="47.271059674" lon="4.873513915">
                <ele>561.377319</ele>
                <time>2015-05-25T12:24:23Z</time>
            </trkpt>
            <trkpt lat="47.271167347" lon="4.873477699">
                <ele>561.423462</ele>
                <time>2015-05-25T12:24:30Z</time>
            </trkpt>
            <trkpt lat="47.271279913" lon="4.873474773">
                <ele>562.826843</ele>
                <time>2015-05-25T12:24:37Z</time>
            </trkpt>
            <trkpt lat="47.271432359" lon="4.873448945">
                <ele>563.992493</ele>
                <time>2015-05-25T12:24:53Z</time>
            </trkpt>
            <trkpt lat="47.271568490" lon="4.873397549">
                <ele>564.148132</ele>
                <time>2015-05-25T12:25:05Z</time>
            </trkpt>
            <trkpt lat="47.271699365" lon="4.873329375">
                <ele>564.025757</ele>
                <time>2015-05-25T12:25:20Z</time>
            </trkpt>
            <trkpt lat="47.271846191" lon="4.873303279">
                <ele>565.488403</ele>
                <time>2015-05-25T12:25:34Z</time>
            </trkpt>
            <trkpt lat="47.271993924" lon="4.873235904">
                <ele>565.929504</ele>
                <time>2015-05-25T12:25:47Z</time>
            </trkpt>
            <trkpt lat="47.272101596" lon="4.873199686">
                <ele>566.396423</ele>
                <time>2015-05-25T12:25:55Z</time>
            </trkpt>
            <trkpt lat="47.272237909" lon="4.873140033">
                <ele>565.997559</ele>
                <time>2015-05-25T12:26:10Z</time>
            </trkpt>
            <trkpt lat="47.272389991" lon="4.873130716">
                <ele>566.891541</ele>
                <time>2015-05-25T12:26:27Z</time>
            </trkpt>
            <trkpt lat="47.272519415" lon="4.873128588">
                <ele>567.604492</ele>
                <time>2015-05-25T12:26:34Z</time>
            </trkpt>
            <trkpt lat="47.272665878" lon="4.873119004">
                <ele>568.182434</ele>
                <time>2015-05-25T12:26:47Z</time>
            </trkpt>
            <trkpt lat="47.272800196" lon="4.873150168">
                <ele>570.065491</ele>
                <time>2015-05-25T12:26:57Z</time>
            </trkpt>
            <trkpt lat="47.272957172" lon="4.873174142">
                <ele>571.792419</ele>
                <time>2015-05-25T12:27:10Z</time>
            </trkpt>
            <trkpt lat="47.273074995" lon="4.873187994">
                <ele>572.921448</ele>
                <time>2015-05-25T12:27:23Z</time>
            </trkpt>
            <trkpt lat="47.273186654" lon="4.873226348">
                <ele>574.714783</ele>
                <time>2015-05-25T12:27:39Z</time>
            </trkpt>
            <trkpt lat="47.273343993" lon="4.873233809">
                <ele>576.186951</ele>
                <time>2015-05-25T12:27:56Z</time>
            </trkpt>
            <trkpt lat="47.273451847" lon="4.873189335">
                <ele>575.905334</ele>
                <time>2015-05-25T12:28:09Z</time>
            </trkpt>
            <trkpt lat="47.273548281" lon="4.873152584">
                <ele>575.799316</ele>
                <time>2015-05-25T12:28:15Z</time>
            </trkpt>
            <trkpt lat="47.273673536" lon="4.873084140">
                <ele>575.296509</ele>
                <time>2015-05-25T12:28:30Z</time>
            </trkpt>
            <trkpt lat="47.273787009" lon="4.873039932">
                <ele>575.409790</ele>
                <time>2015-05-25T12:28:44Z</time>
            </trkpt>
            <trkpt lat="47.273934923" lon="4.872964296">
                <ele>575.339355</ele>
                <time>2015-05-25T12:29:01Z</time>
            </trkpt>
            <trkpt lat="47.274076855" lon="4.872904907">
                <ele>575.780579</ele>
                <time>2015-05-25T12:29:14Z</time>
            </trkpt>
            <trkpt lat="47.274208274" lon="4.872811959">
                <ele>575.359314</ele>
                <time>2015-05-25T12:29:20Z</time>
            </trkpt>
            <trkpt lat="47.274299995" lon="4.872733659">
                <ele>574.966187</ele>
                <time>2015-05-25T12:29:33Z</time>
            </trkpt>
            <trkpt lat="47.274425976" lon="4.872632187">
                <ele>574.378174</ele>
                <time>2015-05-25T12:29:47Z</time>
            </trkpt>
            <trkpt lat="47.274567363" lon="4.872597566">
                <ele>575.312317</ele>
                <time>2015-05-25T12:29:51Z</time>
            </trkpt>
            <trkpt lat="47.274703857" lon="4.872529652">
                <ele>575.723083</ele>
                <time>2015-05-25T12:30:08Z</time>
            </trkpt>
            <trkpt lat="47.274870481" lon="4.872464435">
                <ele>576.895630</ele>
                <time>2015-05-25T12:30:24Z</time>
            </trkpt>
            <trkpt lat="47.275010741" lon="4.872387165">
                <ele>577.563110</ele>
                <time>2015-05-25T12:30:41Z</time>
            </trkpt>
            <trkpt lat="47.275118957" lon="4.872326175">
                <ele>577.817688</ele>
                <time>2015-05-25T12:30:55Z</time>
            </trkpt>
            <trkpt lat="47.275001859" lon="4.872279298">
                <ele>575.118042</ele>
                <time>2015-05-25T12:31:00Z</time>
            </trkpt>
            <trkpt lat="47.274906695" lon="4.872258256">
                <ele>572.839355</ele>
                <time>2015-05-25T12:31:12Z</time>
            </trkpt>
            <trkpt lat="47.274788872" lon="4.872244406">
                <ele>570.314514</ele>
                <time>2015-05-25T12:31:23Z</time>
            </trkpt>
            <trkpt lat="47.274671231" lon="4.872222299">
                <ele>567.521973</ele>
                <time>2015-05-25T12:31:27Z</time>
            </trkpt>
            <trkpt lat="47.274524224" lon="4.872256655">
                <ele>565.716187</ele>
                <time>2015-05-25T12:31:51Z</time>
            </trkpt>
            <trkpt lat="47.274377217" lon="4.872291011">
                <ele>564.287292</ele>
                <time>2015-05-25T12:31:59Z</time>
            </trkpt>
            <trkpt lat="47.274248156" lon="4.872276628">
                <ele>561.853027</ele>
                <time>2015-05-25T12:32:07Z</time>
            </trkpt>
            <trkpt lat="47.274085016" lon="4.872277159">
                <ele>559.284424</ele>
                <time>2015-05-25T12:32:17Z</time>
            </trkpt>
            <trkpt lat="47.273966468" lon="4.872296334">
                <ele>558.077942</ele>
                <time>2015-05-25T12:32:30Z</time>
            </trkpt>
            <trkpt lat="47.273854084" lon="4.872291006">
                <ele>556.195129</ele>
                <time>2015-05-25T12:32:42Z</time>
            </trkpt>
            <trkpt lat="47.273702001" lon="4.872300326">
                <ele>554.156921</ele>
                <time>2015-05-25T12:32:52Z</time>
            </trkpt>
            <trkpt lat="47.273572396" lon="4.872310712">
                <ele>552.720398</ele>
                <time>2015-05-25T12:33:02Z</time>
            </trkpt>
            <trkpt lat="47.273443335" lon="4.872296329">
                <ele>550.573303</ele>
                <time>2015-05-25T12:33:12Z</time>
            </trkpt>
            <trkpt lat="47.273275845" lon="4.872238800">
                <ele>546.621826</ele>
                <time>2015-05-25T12:33:23Z</time>
            </trkpt>
            <trkpt lat="47.273124488" lon="4.872215095">
                <ele>543.938110</ele>
                <time>2015-05-25T12:33:36Z</time>
            </trkpt>
            <trkpt lat="47.272944854" lon="4.872198315">
                <ele>541.043396</ele>
                <time>2015-05-25T12:33:47Z</time>
            </trkpt>
            <trkpt lat="47.272772107" lon="4.872124009">
                <ele>536.369934</ele>
                <time>2015-05-25T12:33:58Z</time>
            </trkpt>
            <trkpt lat="47.272637971" lon="4.872084591">
                <ele>533.090393</ele>
                <time>2015-05-25T12:34:08Z</time>
            </trkpt>
            <trkpt lat="47.272492958" lon="4.872028130">
                <ele>528.984558</ele>
                <time>2015-05-25T12:34:19Z</time>
            </trkpt>
            <trkpt lat="47.272325831" lon="4.871954090">
                <ele>523.817139</ele>
                <time>2015-05-25T12:34:31Z</time>
            </trkpt>
            <trkpt lat="47.272135502" lon="4.871912011">
                <ele>518.510864</ele>
                <time>2015-05-25T12:34:45Z</time>
            </trkpt>
            <trkpt lat="47.271962574" lon="4.871845962">
                <ele>512.611877</ele>
                <time>2015-05-25T12:35:01Z</time>
            </trkpt>
            <trkpt lat="47.271807047" lon="4.871755945">
                <ele>507.033051</ele>
                <time>2015-05-25T12:35:15Z</time>
            </trkpt>
            <trkpt lat="47.271685237" lon="4.871667526">
                <ele>502.944794</ele>
                <time>2015-05-25T12:35:29Z</time>
            </trkpt>
            <trkpt lat="47.271568682" lon="4.871595886">
                <ele>499.609192</ele>
                <time>2015-05-25T12:35:40Z</time>
            </trkpt>
            <trkpt lat="47.271446690" lon="4.871515724">
                <ele>496.148590</ele>
                <time>2015-05-25T12:35:52Z</time>
            </trkpt>
            <trkpt lat="47.271318897" lon="4.871443552">
                <ele>492.916626</ele>
                <time>2015-05-25T12:36:01Z</time>
            </trkpt>
            <trkpt lat="47.271207962" lon="4.871372179">
                <ele>489.928253</ele>
                <time>2015-05-25T12:36:10Z</time>
            </trkpt>
            <trkpt lat="47.271108447" lon="4.871293083">
                <ele>486.928436</ele>
                <time>2015-05-25T12:36:21Z</time>
            </trkpt>
            <trkpt lat="47.270991530" lon="4.871237956">
                <ele>484.506134</ele>
                <time>2015-05-25T12:36:34Z</time>
            </trkpt>
            <trkpt lat="47.270836366" lon="4.871131431">
                <ele>481.305756</ele>
                <time>2015-05-25T12:36:46Z</time>
            </trkpt>
            <trkpt lat="47.270713648" lon="4.871084294">
                <ele>479.849335</ele>
                <time>2015-05-25T12:37:01Z</time>
            </trkpt>
            <trkpt lat="47.270538908" lon="4.871100808">
                <ele>479.120636</ele>
                <time>2015-05-25T12:37:08Z</time>
            </trkpt>
            <trkpt lat="47.270365711" lon="4.871127941">
                <ele>478.490387</ele>
                <time>2015-05-25T12:37:14Z</time>
            </trkpt>
            <trkpt lat="47.270490690" lon="4.870991087">
                <ele>477.128143</ele>
                <time>2015-05-25T12:37:27Z</time>
            </trkpt>
            <trkpt lat="47.270599812" lon="4.870888820">
                <ele>476.186768</ele>
                <time>2015-05-25T12:37:40Z</time>
            </trkpt>
            <trkpt lat="47.270720172" lon="4.870787084">
                <ele>475.167084</ele>
                <time>2015-05-25T12:37:52Z</time>
            </trkpt>
            <trkpt lat="47.270806453" lon="4.870700263">
                <ele>474.169830</ele>
                <time>2015-05-25T12:38:02Z</time>
            </trkpt>
            <trkpt lat="47.270884970" lon="4.870504327">
                <ele>471.295197</ele>
                <time>2015-05-25T12:38:03Z</time>
            </trkpt>
            <trkpt lat="47.270944393" lon="4.870310105">
                <ele>468.215485</ele>
                <time>2015-05-25T12:38:10Z</time>
            </trkpt>
            <trkpt lat="47.270948559" lon="4.870120220">
                <ele>465.018494</ele>
                <time>2015-05-25T12:38:19Z</time>
            </trkpt>
            <trkpt lat="47.270986441" lon="4.869931931">
                <ele>462.038544</ele>
                <time>2015-05-25T12:38:21Z</time>
            </trkpt>
            <trkpt lat="47.271069458" lon="4.869737516">
                <ele>458.716064</ele>
                <time>2015-05-25T12:38:27Z</time>
            </trkpt>
            <trkpt lat="47.271184922" lon="4.869602488">
                <ele>456.324371</ele>
                <time>2015-05-25T12:38:41Z</time>
            </trkpt>
            <trkpt lat="47.271277365" lon="4.869491162">
                <ele>454.266632</ele>
                <time>2015-05-25T12:38:46Z</time>
            </trkpt>
            <trkpt lat="47.271370352" lon="4.869355069">
                <ele>451.622131</ele>
                <time>2015-05-25T12:39:01Z</time>
            </trkpt>
            <trkpt lat="47.271474034" lon="4.869244274">
                <ele>449.437653</ele>
                <time>2015-05-25T12:39:12Z</time>
            </trkpt>
            <trkpt lat="47.271614334" lon="4.869259182">
                <ele>449.626495</ele>
                <time>2015-05-25T12:39:27Z</time>
            </trkpt>
            <trkpt lat="47.271732157" lon="4.869273025">
                <ele>449.820129</ele>
                <time>2015-05-25T12:39:42Z</time>
            </trkpt>
            <trkpt lat="47.271872457" lon="4.869287932">
                <ele>450.024017</ele>
                <time>2015-05-25T12:39:56Z</time>
            </trkpt>
            <trkpt lat="47.272013120" lon="4.869286328">
                <ele>449.468353</ele>
            </trkpt>
            <trkpt lat="47.272102123" lon="4.869331865">
                <ele>450.115540</ele>
                <time>2015-05-25T12:40:10Z</time>
            </trkpt>
            <trkpt lat="47.272194204" lon="4.869237049">
                <ele>447.402649</ele>
                <time>2015-05-25T12:40:16Z</time>
            </trkpt>
            <trkpt lat="47.272302599" lon="4.869167800">
                <ele>445.562714</ele>
                <time>2015-05-25T12:40:33Z</time>
            </trkpt>
            <trkpt lat="47.272417700" lon="4.869049279">
                <ele>443.437073</ele>
                <time>2015-05-25T12:40:41Z</time>
            </trkpt>
            <trkpt lat="47.272516125" lon="4.868921704">
                <ele>441.825928</ele>
                <time>2015-05-25T12:40:47Z</time>
            </trkpt>
            <trkpt lat="47.272547480" lon="4.868774424">
                <ele>439.215363</ele>
                <time>2015-05-25T12:41:01Z</time>
            </trkpt>
            <trkpt lat="47.272557625" lon="4.868568287">
                <ele>435.796265</ele>
                <time>2015-05-25T12:41:15Z</time>
            </trkpt>
            <trkpt lat="47.272628496" lon="4.868414613">
                <ele>435.058746</ele>
                <time>2015-05-25T12:41:23Z</time>
            </trkpt>
            <trkpt lat="47.272711691" lon="4.868211932">
                <ele>434.021240</ele>
                <time>2015-05-25T12:41:37Z</time>
            </trkpt>
            <trkpt lat="47.272748484" lon="4.868073174">
                <ele>433.183746</ele>
                <time>2015-05-25T12:41:41Z</time>
            </trkpt>
            <trkpt lat="47.272746846" lon="4.867891272">
                <ele>431.672485</ele>
                <time>2015-05-25T12:41:57Z</time>
            </trkpt>
            <trkpt lat="47.272733970" lon="4.867708839">
                <ele>429.902496</ele>
                <time>2015-05-25T12:42:14Z</time>
            </trkpt>
            <trkpt lat="47.272771124" lon="4.867553568">
                <ele>428.702515</ele>
                <time>2015-05-25T12:47:07Z</time>
            </trkpt>
            <trkpt lat="47.272907796" lon="4.867477387">
                <ele>428.774414</ele>
                <time>2015-05-25T12:47:36Z</time>
            </trkpt>
            <trkpt lat="47.273004771" lon="4.867415857">
                <ele>428.627502</ele>
                <time>2015-05-25T12:48:02Z</time>
            </trkpt>
            <trkpt lat="47.273112984" lon="4.867354859">
                <ele>428.478729</ele>
                <time>2015-05-25T12:48:35Z</time>
            </trkpt>
            <trkpt lat="47.273226636" lon="4.867302383">
                <ele>428.203735</ele>
                <time>2015-05-25T12:49:02Z</time>
            </trkpt>
            <trkpt lat="47.273328868" lon="4.867257631">
                <ele>427.621948</ele>
                <time>2015-05-25T12:49:29Z</time>
            </trkpt>
            <trkpt lat="47.273419500" lon="4.867228860">
                <ele>427.004700</ele>
                <time>2015-05-25T12:49:52Z</time>
            </trkpt>
            <trkpt lat="47.273532609" lon="4.867201152">
                <ele>426.417755</ele>
                <time>2015-05-25T12:50:05Z</time>
            </trkpt>
            <trkpt lat="47.273628498" lon="4.867189158">
                <ele>426.154480</ele>
                <time>2015-05-25T12:50:15Z</time>
            </trkpt>
            <trkpt lat="47.273741788" lon="4.867153194">
                <ele>425.458832</ele>
                <time>2015-05-25T12:50:32Z</time>
            </trkpt>
            <trkpt lat="47.273850001" lon="4.867092194">
                <ele>424.454987</ele>
                <time>2015-05-25T12:50:39Z</time>
            </trkpt>
            <trkpt lat="47.273924680" lon="4.867021343">
                <ele>423.269989</ele>
                <time>2015-05-25T12:50:42Z</time>
            </trkpt>
            <trkpt lat="47.274032350" lon="4.866985112">
                <ele>422.755005</ele>
            </trkpt>
            <trkpt lat="47.274179718" lon="4.866934229">
                <ele>422.029999</ele>
                <time>2015-05-25T12:50:58Z</time>
            </trkpt>
            <trkpt lat="47.274288654" lon="4.866840203">
                <ele>421.110718</ele>
                <time>2015-05-25T12:51:14Z</time>
            </trkpt>
            <trkpt lat="47.274347742" lon="4.866710759">
                <ele>419.600067</ele>
                <time>2015-05-25T12:51:28Z</time>
            </trkpt>
            <trkpt lat="47.274418429" lon="4.866565333">
                <ele>419.886383</ele>
                <time>2015-05-25T12:51:37Z</time>
            </trkpt>
            <trkpt lat="47.274433828" lon="4.866375967">
                <ele>419.287537</ele>
                <time>2015-05-25T12:51:53Z</time>
            </trkpt>
            <trkpt lat="47.274416234" lon="4.866151981">
                <ele>417.959656</ele>
                <time>2015-05-25T12:51:55Z</time>
            </trkpt>
            <trkpt lat="47.274362935" lon="4.866017221">
                <ele>416.568390</ele>
                <time>2015-05-25T12:52:12Z</time>
            </trkpt>
            <trkpt lat="47.274297327" lon="4.865820939">
                <ele>415.997589</ele>
                <time>2015-05-25T12:52:28Z</time>
            </trkpt>
            <trkpt lat="47.274287508" lon="4.865608671">
                <ele>416.619263</ele>
            </trkpt>
            <trkpt lat="47.274272265" lon="4.865359347">
                <ele>417.329437</ele>
                <time>2015-05-25T12:52:48Z</time>
            </trkpt>
            <trkpt lat="47.274345299" lon="4.865024592">
                <ele>419.172241</ele>
            </trkpt>
            <trkpt lat="47.274396399" lon="4.864745999">
                <ele>420.372986</ele>
                <time>2015-05-25T12:53:08Z</time>
            </trkpt>
            <trkpt lat="47.274435356" lon="4.864508156">
                <ele>420.530945</ele>
                <time>2015-05-25T12:53:25Z</time>
            </trkpt>
            <trkpt lat="47.274478376" lon="4.864260144">
                <ele>420.565308</ele>
                <time>2015-05-25T12:53:42Z</time>
            </trkpt>
            <trkpt lat="47.274564039" lon="4.863994019">
                <ele>420.714996</ele>
                <time>2015-05-25T12:53:58Z</time>
            </trkpt>
            <trkpt lat="47.274664430" lon="4.863808192">
                <ele>421.071259</ele>
            </trkpt>
            <trkpt lat="47.274769733" lon="4.863623072">
                <ele>421.419922</ele>
                <time>2015-05-25T12:54:13Z</time>
            </trkpt>
            <trkpt lat="47.274884898" lon="4.863464031">
                <ele>421.668732</ele>
                <time>2015-05-25T12:54:32Z</time>
            </trkpt>
            <trkpt lat="47.275017504" lon="4.863353766">
                <ele>421.902557</ele>
            </trkpt>
            <trkpt lat="47.275177553" lon="4.863237351">
                <ele>421.968811</ele>
                <time>2015-05-25T12:54:49Z</time>
            </trkpt>
            <trkpt lat="47.275301395" lon="4.863193212">
                <ele>421.949097</ele>
                <time>2015-05-25T12:55:05Z</time>
            </trkpt>
            <trkpt lat="47.275310866" lon="4.863182148">
                <ele>421.904602</ele>
                <time>2015-05-25T12:55:06Z</time>
            </trkpt>
            <trkpt lat="47.275456329" lon="4.863093483">
                <ele>421.577515</ele>
            </trkpt>
            <trkpt lat="47.275604598" lon="4.863001304">
                <ele>421.139740</ele>
                <time>2015-05-25T12:55:20Z</time>
            </trkpt>
            <trkpt lat="47.275540960" lon="4.862824731">
                <ele>420.116577</ele>
                <time>2015-05-25T12:55:23Z</time>
            </trkpt>
            <trkpt lat="47.275483122" lon="4.862640166">
                <ele>418.879974</ele>
                <time>2015-05-25T12:55:41Z</time>
            </trkpt>
            <trkpt lat="47.275453741" lon="4.862440416">
                <ele>417.542267</ele>
                <time>2015-05-25T12:55:56Z</time>
            </trkpt>
            <trkpt lat="47.275426707" lon="4.862133330">
                <ele>415.514038</ele>
            </trkpt>
            <trkpt lat="47.275411091" lon="4.861818519">
                <ele>412.426331</ele>
                <time>2015-05-25T12:56:11Z</time>
            </trkpt>
            <trkpt lat="47.275411249" lon="4.861554043">
                <ele>409.786133</ele>
                <time>2015-05-25T12:56:29Z</time>
            </trkpt>
            <trkpt lat="47.275416304" lon="4.861322858">
                <ele>407.524628</ele>
                <time>2015-05-25T12:56:46Z</time>
            </trkpt>
            <trkpt lat="47.275398159" lon="4.861123639">
                <ele>405.637177</ele>
                <time>2015-05-25T12:57:02Z</time>
            </trkpt>
            <trkpt lat="47.275396150" lon="4.860958242">
                <ele>404.062500</ele>
                <time>2015-05-25T12:57:17Z</time>
            </trkpt>
            <trkpt lat="47.275384346" lon="4.860726263">
                <ele>401.969238</ele>
                <time>2015-05-25T12:57:29Z</time>
            </trkpt>
            <trkpt lat="47.275387594" lon="4.860577644">
                <ele>400.682251</ele>
                <time>2015-05-25T12:57:38Z</time>
            </trkpt>
            <trkpt lat="47.275386306" lon="4.860379221">
                <ele>398.969696</ele>
                <time>2015-05-25T12:57:45Z</time>
            </trkpt>
            <trkpt lat="47.275429610" lon="4.860199432">
                <ele>397.388092</ele>
                <time>2015-05-25T12:58:02Z</time>
            </trkpt>
            <trkpt lat="47.275482890" lon="4.860077969">
                <ele>396.105804</ele>
                <time>2015-05-25T12:58:13Z</time>
            </trkpt>
            <trkpt lat="47.275503898" lon="4.859888862">
                <ele>393.955170</ele>
                <time>2015-05-25T12:58:26Z</time>
            </trkpt>
            <trkpt lat="47.275449509" lon="4.859803645">
                <ele>392.951874</ele>
                <time>2015-05-25T12:58:37Z</time>
            </trkpt>
            <trkpt lat="47.275368467" lon="4.859651051">
                <ele>391.097473</ele>
                <time>2015-05-25T12:58:45Z</time>
            </trkpt>
            <trkpt lat="47.275298123" lon="4.859523756">
                <ele>389.478333</ele>
                <time>2015-05-25T12:59:00Z</time>
            </trkpt>
            <trkpt lat="47.275212003" lon="4.859346128">
                <ele>386.832306</ele>
                <time>2015-05-25T12:59:14Z</time>
            </trkpt>
            <trkpt lat="47.275204552" lon="4.859172210">
                <ele>384.038269</ele>
                <time>2015-05-25T12:59:26Z</time>
            </trkpt>
            <trkpt lat="47.275209061" lon="4.858965796">
                <ele>380.730469</ele>
                <time>2015-05-25T12:59:37Z</time>
            </trkpt>
            <trkpt lat="47.275231148" lon="4.858727150">
                <ele>377.263519</ele>
                <time>2015-05-25T12:59:48Z</time>
            </trkpt>
            <trkpt lat="47.275235837" lon="4.858512480">
                <ele>374.388916</ele>
                <time>2015-05-25T13:00:01Z</time>
            </trkpt>
            <trkpt lat="47.275240705" lon="4.858289552">
                <ele>371.403717</ele>
                <time>2015-05-25T13:00:10Z</time>
            </trkpt>
            <trkpt lat="47.275258254" lon="4.858001102">
                <ele>368.033752</ele>
                <time>2015-05-25T13:00:25Z</time>
            </trkpt>
            <trkpt lat="47.275268560" lon="4.857786696">
                <ele>365.778748</ele>
                <time>2015-05-25T13:00:36Z</time>
            </trkpt>
            <trkpt lat="47.275312582" lon="4.857573879">
                <ele>363.683746</ele>
                <time>2015-05-25T13:00:48Z</time>
            </trkpt>
            <trkpt lat="47.275379260" lon="4.857353864">
                <ele>361.157867</ele>
                <time>2015-05-25T13:00:58Z</time>
            </trkpt>
            <trkpt lat="47.275411862" lon="4.857148773">
                <ele>358.450256</ele>
                <time>2015-05-25T13:01:09Z</time>
            </trkpt>
            <trkpt lat="47.275466581" lon="4.856961255">
                <ele>355.699005</ele>
                <time>2015-05-25T13:01:21Z</time>
            </trkpt>
            <trkpt lat="47.275521479" lon="4.856765479">
                <ele>351.898102</ele>
                <time>2015-05-25T13:01:30Z</time>
            </trkpt>
            <trkpt lat="47.275603753" lon="4.856604053">
                <ele>347.788574</ele>
                <time>2015-05-25T13:01:44Z</time>
            </trkpt>
            <trkpt lat="47.275596838" lon="4.856405364">
                <ele>343.517517</ele>
                <time>2015-05-25T13:01:53Z</time>
            </trkpt>
            <trkpt lat="47.275606241" lon="4.856232240">
                <ele>339.702545</ele>
                <time>2015-05-25T13:02:02Z</time>
            </trkpt>
            <trkpt lat="47.275666577" lon="4.856044984">
                <ele>335.254486</ele>
                <time>2015-05-25T13:02:12Z</time>
            </trkpt>
            <trkpt lat="47.275703355" lon="4.855906209">
                <ele>332.060059</ele>
                <time>2015-05-25T13:02:24Z</time>
            </trkpt>
            <trkpt lat="47.275758432" lon="4.855702175">
                <ele>327.475861</ele>
                <time>2015-05-25T13:02:33Z</time>
            </trkpt>
            <trkpt lat="47.275817326" lon="4.855580971">
                <ele>324.788055</ele>
                <time>2015-05-25T13:02:44Z</time>
            </trkpt>
            <trkpt lat="47.275926794" lon="4.855462149">
                <ele>321.363251</ele>
                <time>2015-05-25T13:02:58Z</time>
            </trkpt>
            <trkpt lat="47.276042421" lon="4.855318821">
                <ele>317.776489</ele>
                <time>2015-05-25T13:03:09Z</time>
            </trkpt>
            <trkpt lat="47.276133950" lon="4.855248744">
                <ele>315.992493</ele>
                <time>2015-05-25T13:03:20Z</time>
            </trkpt>
            <trkpt lat="47.276227100" lon="4.855104357">
                <ele>313.209503</ele>
                <time>2015-05-25T13:03:36Z</time>
            </trkpt>
            <trkpt lat="47.276275476" lon="4.854949596">
                <ele>310.692993</ele>
                <time>2015-05-25T13:03:58Z</time>
            </trkpt>
            <trkpt lat="47.276377883" lon="4.854896561">
                <ele>310.045197</ele>
                <time>2015-05-25T13:04:14Z</time>
            </trkpt>
            <trkpt lat="47.276490449" lon="4.854893595">
                <ele>310.090942</ele>
                <time>2015-05-25T13:04:33Z</time>
            </trkpt>
            <trkpt lat="47.276574918" lon="4.854889307">
                <ele>310.143951</ele>
                <time>2015-05-25T13:05:09Z</time>
            </trkpt>
            <trkpt lat="47.276665007" lon="4.854885284">
                <ele>310.207550</ele>
                <time>2015-05-25T13:05:19Z</time>
            </trkpt>
            <trkpt lat="47.276810568" lon="4.854916933">
                <ele>310.084564</ele>
                <time>2015-05-25T13:05:32Z</time>
            </trkpt>
            <trkpt lat="47.276922953" lon="4.854922224">
                <ele>310.098633</ele>
                <time>2015-05-25T13:05:44Z</time>
            </trkpt>
            <trkpt lat="47.277024100" lon="4.854926987">
                <ele>310.111298</ele>
            </trkpt>
            <trkpt lat="47.277186519" lon="4.854959430">
                <ele>310.037231</ele>
                <time>2015-05-25T13:06:01Z</time>
            </trkpt>
            <trkpt lat="47.277326821" lon="4.854974302">
                <ele>310.032501</ele>
                <time>2015-05-25T13:06:18Z</time>
            </trkpt>
            <trkpt lat="47.277444646" lon="4.854988115">
                <ele>310.011383</ele>
                <time>2015-05-25T13:06:33Z</time>
            </trkpt>
            <trkpt lat="47.277590207" lon="4.855019765">
                <ele>309.941895</ele>
                <time>2015-05-25T13:06:51Z</time>
            </trkpt>
            <trkpt lat="47.277709180" lon="4.855022198">
                <ele>309.922485</ele>
                <time>2015-05-25T13:07:11Z</time>
            </trkpt>
            <trkpt lat="47.277830755" lon="4.855080684">
                <ele>309.843750</ele>
                <time>2015-05-25T13:07:27Z</time>
            </trkpt>
            <trkpt lat="47.277970517" lon="4.855120327">
                <ele>309.793762</ele>
                <time>2015-05-25T13:07:44Z</time>
            </trkpt>
            <trkpt lat="47.278002215" lon="4.854956510">
                <ele>310.306244</ele>
                <time>2015-05-25T13:08:00Z</time>
            </trkpt>
            <trkpt lat="47.278018495" lon="4.854725843">
                <ele>312.756256</ele>
                <time>2015-05-25T13:08:16Z</time>
            </trkpt>
            <trkpt lat="47.278050912" lon="4.854528997">
                <ele>314.856262</ele>
                <time>2015-05-25T13:08:32Z</time>
            </trkpt>
            <trkpt lat="47.278089308" lon="4.854315902">
                <ele>317.149994</ele>
                <time>2015-05-25T13:08:45Z</time>
            </trkpt>
            <trkpt lat="47.278121905" lon="4.854110799">
                <ele>319.649994</ele>
                <time>2015-05-25T13:09:03Z</time>
            </trkpt>
            <trkpt lat="47.278153601" lon="4.853946981">
                <ele>321.649994</ele>
                <time>2015-05-25T13:09:18Z</time>
            </trkpt>
            <trkpt lat="47.278193256" lon="4.853676085">
                <ele>324.950012</ele>
                <time>2015-05-25T13:09:35Z</time>
            </trkpt>
            <trkpt lat="47.278248869" lon="4.853447268">
                <ele>328.093750</ele>
                <time>2015-05-25T13:09:52Z</time>
            </trkpt>
            <trkpt lat="47.278288882" lon="4.853159858">
                <ele>332.031250</ele>
            </trkpt>
            <trkpt lat="47.278303720" lon="4.852995245">
                <ele>334.281250</ele>
                <time>2015-05-25T13:10:10Z</time>
            </trkpt>
            <trkpt lat="47.278341393" lon="4.852815176">
                <ele>336.756256</ele>
                <time>2015-05-25T13:10:30Z</time>
            </trkpt>
            <trkpt lat="47.278368548" lon="4.852601550">
                <ele>339.681244</ele>
                <time>2015-05-25T13:10:48Z</time>
            </trkpt>
            <trkpt lat="47.278395882" lon="4.852379666">
                <ele>342.718750</ele>
            </trkpt>
            <trkpt lat="47.278441153" lon="4.852109032">
                <ele>344.656525</ele>
                <time>2015-05-25T13:11:05Z</time>
            </trkpt>
            <trkpt lat="47.278467227" lon="4.851944948">
                <ele>345.711212</ele>
                <time>2015-05-25T13:11:19Z</time>
            </trkpt>
            <trkpt lat="47.278506517" lon="4.851690563">
                <ele>347.299133</ele>
                <time>2015-05-25T13:11:35Z</time>
            </trkpt>
            <trkpt lat="47.278551427" lon="4.851436443">
                <ele>348.807800</ele>
                <time>2015-05-25T13:11:53Z</time>
            </trkpt>
            <trkpt lat="47.278584378" lon="4.851214822">
                <ele>350.097076</ele>
                <time>2015-05-25T13:12:08Z</time>
            </trkpt>
            <trkpt lat="47.278628208" lon="4.851010244">
                <ele>350.972504</ele>
                <time>2015-05-25T13:12:27Z</time>
            </trkpt>
            <trkpt lat="47.278666957" lon="4.850780629">
                <ele>351.147491</ele>
                <time>2015-05-25T13:12:33Z</time>
            </trkpt>
            <trkpt lat="47.278711864" lon="4.850526507">
                <ele>351.327484</ele>
                <time>2015-05-25T13:12:55Z</time>
            </trkpt>
            <trkpt lat="47.278757673" lon="4.850333948">
                <ele>351.449066</ele>
                <time>2015-05-25T13:13:11Z</time>
            </trkpt>
            <trkpt lat="47.278776145" lon="4.850157577">
                <ele>352.398651</ele>
                <time>2015-05-25T13:13:16Z</time>
            </trkpt>
            <trkpt lat="47.278816262" lon="4.849900100">
                <ele>353.582794</ele>
                <time>2015-05-25T13:13:36Z</time>
            </trkpt>
            <trkpt lat="47.278839648" lon="4.849678064">
                <ele>354.851624</ele>
                <time>2015-05-25T13:13:52Z</time>
            </trkpt>
            <trkpt lat="47.278871415" lon="4.849437000">
                <ele>356.146606</ele>
                <time>2015-05-25T13:14:08Z</time>
            </trkpt>
            <trkpt lat="47.278922880" lon="4.849197697">
                <ele>356.960297</ele>
                <time>2015-05-25T13:14:26Z</time>
            </trkpt>
            <trkpt lat="47.278958820" lon="4.849000710">
                <ele>357.387634</ele>
            </trkpt>
            <trkpt lat="47.278991048" lon="4.848812115">
                <ele>357.381256</ele>
                <time>2015-05-25T13:14:43Z</time>
            </trkpt>
            <trkpt lat="47.279019272" lon="4.848548941">
                <ele>357.618011</ele>
                <time>2015-05-25T13:15:01Z</time>
            </trkpt>
            <trkpt lat="47.279044418" lon="4.848320028">
                <ele>358.019989</ele>
                <time>2015-05-25T13:15:20Z</time>
            </trkpt>
            <trkpt lat="47.279083226" lon="4.848069493">
                <ele>358.635010</ele>
                <time>2015-05-25T13:15:37Z</time>
            </trkpt>
            <trkpt lat="47.279141842" lon="4.847827321">
                <ele>358.678589</ele>
                <time>2015-05-25T13:15:47Z</time>
            </trkpt>
            <trkpt lat="47.279176043" lon="4.847547895">
                <ele>361.711121</ele>
                <time>2015-05-25T13:16:05Z</time>
            </trkpt>
            <trkpt lat="47.279213888" lon="4.847359562">
                <ele>364.128052</ele>
                <time>2015-05-25T13:16:07Z</time>
            </trkpt>
            <trkpt lat="47.279217837" lon="4.847177903">
                <ele>365.698303</ele>
                <time>2015-05-25T13:16:27Z</time>
            </trkpt>
            <trkpt lat="47.279239541" lon="4.846955750">
                <ele>367.882629</ele>
                <time>2015-05-25T13:16:46Z</time>
            </trkpt>
            <trkpt lat="47.279253652" lon="4.846824161">
                <ele>369.167267</ele>
                <time>2015-05-25T13:17:05Z</time>
            </trkpt>
            <trkpt lat="47.279413504" lon="4.846715945">
                <ele>372.623108</ele>
                <time>2015-05-25T13:17:24Z</time>
            </trkpt>
            <trkpt lat="47.279549803" lon="4.846656216">
                <ele>375.120972</ele>
                <time>2015-05-25T13:17:39Z</time>
            </trkpt>
            <trkpt lat="47.279645511" lon="4.846652442">
                <ele>376.466888</ele>
                <time>2015-05-25T13:17:59Z</time>
            </trkpt>
            <trkpt lat="47.279660697" lon="4.846471309">
                <ele>377.455078</ele>
                <time>2015-05-25T13:18:20Z</time>
            </trkpt>
            <trkpt lat="47.279682939" lon="4.846224381">
                <ele>379.766632</ele>
                <time>2015-05-25T13:18:37Z</time>
            </trkpt>
            <trkpt lat="47.279687604" lon="4.846009691">
                <ele>381.632141</ele>
                <time>2015-05-25T13:18:55Z</time>
            </trkpt>
            <trkpt lat="47.279693704" lon="4.845728943">
                <ele>383.983765</ele>
                <time>2015-05-25T13:19:11Z</time>
            </trkpt>
            <trkpt lat="47.279792102" lon="4.845601308">
                <ele>385.628754</ele>
            </trkpt>
            <trkpt lat="47.279905564" lon="4.845557036">
                <ele>386.753754</ele>
                <time>2015-05-25T13:19:28Z</time>
            </trkpt>
            <trkpt lat="47.280024825" lon="4.845504770">
                <ele>387.971252</ele>
                <time>2015-05-25T13:19:34Z</time>
            </trkpt>
            <trkpt lat="47.280162379" lon="4.845387236">
                <ele>389.912415</ele>
                <time>2015-05-25T13:19:53Z</time>
            </trkpt>
            <trkpt lat="47.280293596" lon="4.845302468">
                <ele>391.725037</ele>
                <time>2015-05-25T13:20:12Z</time>
            </trkpt>
            <trkpt lat="47.280396358" lon="4.845232895">
                <ele>393.219299</ele>
                <time>2015-05-25T13:20:32Z</time>
            </trkpt>
            <trkpt lat="47.280516515" lon="4.845139341">
                <ele>395.255554</ele>
                <time>2015-05-25T13:20:51Z</time>
            </trkpt>
            <trkpt lat="47.280625434" lon="4.845045260">
                <ele>398.088745</ele>
                <time>2015-05-25T13:21:09Z</time>
            </trkpt>
            <trkpt lat="47.280594588" lon="4.844911559">
                <ele>399.174133</ele>
                <time>2015-05-25T13:21:25Z</time>
            </trkpt>
            <trkpt lat="47.280502109" lon="4.844766703">
                <ele>399.342743</ele>
                <time>2015-05-25T13:21:44Z</time>
            </trkpt>
            <trkpt lat="47.280417042" lon="4.844539536">
                <ele>400.540009</ele>
                <time>2015-05-25T13:22:03Z</time>
            </trkpt>
            <trkpt lat="47.280302981" lon="4.844352340">
                <ele>401.055756</ele>
                <time>2015-05-25T13:22:20Z</time>
            </trkpt>
            <trkpt lat="47.280213011" lon="4.844091882">
                <ele>402.371368</ele>
                <time>2015-05-25T13:22:37Z</time>
            </trkpt>
            <trkpt lat="47.280139262" lon="4.843924055">
                <ele>402.528198</ele>
                <time>2015-05-25T13:22:45Z</time>
            </trkpt>
            <trkpt lat="47.280055024" lon="4.843694642">
                <ele>403.917389</ele>
                <time>2015-05-25T13:22:59Z</time>
            </trkpt>
            <trkpt lat="47.279972546" lon="4.843492471">
                <ele>405.180817</ele>
                <time>2015-05-25T13:23:13Z</time>
            </trkpt>
            <trkpt lat="47.279943277" lon="4.843302256">
                <ele>406.982880</ele>
            </trkpt>
            <trkpt lat="47.279924564" lon="4.843127798">
                <ele>408.784241</ele>
                <time>2015-05-25T13:23:30Z</time>
            </trkpt>
            <trkpt lat="47.279887972" lon="4.842944294">
                <ele>410.437500</ele>
                <time>2015-05-25T13:23:45Z</time>
            </trkpt>
            <trkpt lat="47.279829689" lon="4.842834051">
                <ele>410.501129</ele>
                <time>2015-05-25T13:23:47Z</time>
            </trkpt>
            <trkpt lat="47.279742714" lon="4.842691077">
                <ele>410.045929</ele>
                <time>2015-05-25T13:24:05Z</time>
            </trkpt>
            <trkpt lat="47.279676649" lon="4.842628503">
                <ele>409.368744</ele>
                <time>2015-05-25T13:24:06Z</time>
            </trkpt>
            <trkpt lat="47.279602149" lon="4.842498964">
                <ele>409.823761</ele>
                <time>2015-05-25T13:24:26Z</time>
            </trkpt>
            <trkpt lat="47.279558396" lon="4.842365272">
                <ele>409.806305</ele>
                <time>2015-05-25T13:24:38Z</time>
            </trkpt>
            <trkpt lat="47.279644660" lon="4.842288110">
                <ele>411.138824</ele>
                <time>2015-05-25T13:24:54Z</time>
            </trkpt>
            <trkpt lat="47.279746345" lon="4.842268077">
                <ele>412.943268</ele>
                <time>2015-05-25T13:25:11Z</time>
            </trkpt>
            <trkpt lat="47.279859089" lon="4.842256828">
                <ele>415.726318</ele>
                <time>2015-05-25T13:25:26Z</time>
            </trkpt>
            <trkpt lat="47.279993235" lon="4.842296175">
                <ele>418.927673</ele>
                <time>2015-05-25T13:25:43Z</time>
            </trkpt>
            <trkpt lat="47.280121225" lon="4.842360032">
                <ele>422.098511</ele>
                <time>2015-05-25T13:25:59Z</time>
            </trkpt>
            <trkpt lat="47.280238872" lon="4.842382076">
                <ele>425.621246</ele>
                <time>2015-05-25T13:26:14Z</time>
            </trkpt>
            <trkpt lat="47.280378280" lon="4.842438202">
                <ele>430.282684</ele>
                <time>2015-05-25T13:26:31Z</time>
            </trkpt>
            <trkpt lat="47.280506628" lon="4.842485545">
                <ele>434.573242</ele>
                <time>2015-05-25T13:26:46Z</time>
            </trkpt>
            <trkpt lat="47.280641312" lon="4.842500121">
                <ele>438.971497</ele>
            </trkpt>
            <trkpt lat="47.280747537" lon="4.842523187">
                <ele>442.371094</ele>
                <time>2015-05-25T13:26:59Z</time>
            </trkpt>
            <trkpt lat="47.280832361" lon="4.842546489">
                <ele>445.106018</ele>
                <time>2015-05-25T13:27:14Z</time>
            </trkpt>
            <trkpt lat="47.280942425" lon="4.842621686">
                <ele>447.351257</ele>
                <time>2015-05-25T13:27:29Z</time>
            </trkpt>
            <trkpt lat="47.281060072" lon="4.842643731">
                <ele>450.645752</ele>
                <time>2015-05-25T13:27:45Z</time>
            </trkpt>
            <trkpt lat="47.281166480" lon="4.842665249">
                <ele>452.572876</ele>
                <time>2015-05-25T13:28:04Z</time>
            </trkpt>
            <trkpt lat="47.281289029" lon="4.842720587">
                <ele>454.390015</ele>
                <time>2015-05-25T13:28:20Z</time>
            </trkpt>
            <trkpt lat="47.281400161" lon="4.842783656">
                <ele>455.994263</ele>
                <time>2015-05-25T13:28:37Z</time>
            </trkpt>
            <trkpt lat="47.281494435" lon="4.842845936">
                <ele>457.403381</ele>
                <time>2015-05-25T13:28:54Z</time>
            </trkpt>
            <trkpt lat="47.281610290" lon="4.842950557">
                <ele>457.680878</ele>
                <time>2015-05-25T13:29:11Z</time>
            </trkpt>
            <trkpt lat="47.281731584" lon="4.843063699">
                <ele>458.260986</ele>
                <time>2015-05-25T13:29:28Z</time>
            </trkpt>
            <trkpt lat="47.281817403" lon="4.843150908">
                <ele>458.821747</ele>
                <time>2015-05-25T13:29:44Z</time>
            </trkpt>
            <trkpt lat="47.281935914" lon="4.843238597">
                <ele>460.179626</ele>
                <time>2015-05-25T13:29:59Z</time>
            </trkpt>
            <trkpt lat="47.282104134" lon="4.843263013">
                <ele>462.292938</ele>
            </trkpt>
            <trkpt lat="47.282271367" lon="4.843266495">
                <ele>464.509491</ele>
                <time>2015-05-25T13:30:15Z</time>
            </trkpt>
            <trkpt lat="47.282433305" lon="4.843283594">
                <ele>466.518982</ele>
                <time>2015-05-25T13:30:29Z</time>
            </trkpt>
            <trkpt lat="47.282640254" lon="4.843330532">
                <ele>468.599762</ele>
                <time>2015-05-25T13:30:48Z</time>
            </trkpt>
            <trkpt lat="47.282803701" lon="4.843359534">
                <ele>470.329163</ele>
                <time>2015-05-25T13:31:04Z</time>
            </trkpt>
            <trkpt lat="47.282965388" lon="4.843354421">
                <ele>474.738251</ele>
                <time>2015-05-25T13:31:20Z</time>
            </trkpt>
            <trkpt lat="47.283140486" lon="4.843362635">
                <ele>480.175354</ele>
                <time>2015-05-25T13:31:37Z</time>
            </trkpt>
            <trkpt lat="47.283267891" lon="4.843392810">
                <ele>483.968811</ele>
                <time>2015-05-25T13:31:53Z</time>
            </trkpt>
            <trkpt lat="47.283372581" lon="4.843382584">
                <ele>489.009399</ele>
                <time>2015-05-25T13:32:06Z</time>
            </trkpt>
            <trkpt lat="47.283471739" lon="4.843400354">
                <ele>493.775391</ele>
                <time>2015-05-25T13:32:23Z</time>
            </trkpt>
            <trkpt lat="47.283570562" lon="4.843404544">
                <ele>498.685211</ele>
                <time>2015-05-25T13:32:40Z</time>
            </trkpt>
            <trkpt lat="47.283647172" lon="4.843431618">
                <ele>502.056396</ele>
                <time>2015-05-25T13:32:58Z</time>
            </trkpt>
            <trkpt lat="47.283710356" lon="4.843379631">
                <ele>506.185486</ele>
                <time>2015-05-25T13:33:13Z</time>
            </trkpt>
            <trkpt lat="47.283765115" lon="4.843448328">
                <ele>507.620941</ele>
                <time>2015-05-25T13:33:31Z</time>
            </trkpt>
            <trkpt lat="47.283822773" lon="4.843486352">
                <ele>509.635010</ele>
                <time>2015-05-25T13:33:52Z</time>
            </trkpt>
            <trkpt lat="47.283878094" lon="4.843517952">
                <ele>511.621704</ele>
                <time>2015-05-25T13:34:08Z</time>
            </trkpt>
            <trkpt lat="47.283931654" lon="4.843527759">
                <ele>513.841980</ele>
                <time>2015-05-25T13:34:25Z</time>
            </trkpt>
            <trkpt lat="47.283977754" lon="4.843508229">
                <ele>516.530518</ele>
                <time>2015-05-25T13:34:45Z</time>
            </trkpt>
            <trkpt lat="47.283969023" lon="4.843383489">
                <ele>518.952515</ele>
                <time>2015-05-25T13:35:02Z</time>
            </trkpt>
            <trkpt lat="47.283995264" lon="4.843211125">
                <ele>518.856506</ele>
                <time>2015-05-25T13:35:21Z</time>
            </trkpt>
            <trkpt lat="47.284172969" lon="4.842974888">
                <ele>523.609009</ele>
                <time>2015-05-25T13:38:12Z</time>
            </trkpt>
            <trkpt lat="47.284090407" lon="4.843024090">
                <ele>520.738403</ele>
                <time>2015-05-25T13:38:30Z</time>
            </trkpt>
            <trkpt lat="47.284055036" lon="4.843115537">
                <ele>520.333618</ele>
                <time>2015-05-25T13:38:46Z</time>
            </trkpt>
            <trkpt lat="47.284213098" lon="4.843022942">
                <ele>525.338257</ele>
                <time>2015-05-25T13:38:58Z</time>
            </trkpt>
            <trkpt lat="47.284321478" lon="4.842953624">
                <ele>525.107483</ele>
                <time>2015-05-25T13:39:06Z</time>
            </trkpt>
            <trkpt lat="47.284428961" lon="4.842925595">
                <ele>525.559998</ele>
                <time>2015-05-25T13:39:21Z</time>
            </trkpt>
            <trkpt lat="47.284542422" lon="4.842881314">
                <ele>526.040955</ele>
                <time>2015-05-25T13:39:36Z</time>
            </trkpt>
            <trkpt lat="47.284655166" lon="4.842870065">
                <ele>526.856750</ele>
                <time>2015-05-25T13:39:49Z</time>
            </trkpt>
            <trkpt lat="47.284778970" lon="4.842867600">
                <ele>527.250671</ele>
                <time>2015-05-25T13:40:00Z</time>
            </trkpt>
            <trkpt lat="47.284914012" lon="4.842865663">
                <ele>527.699280</ele>
                <time>2015-05-25T13:40:04Z</time>
            </trkpt>
            <trkpt lat="47.285054853" lon="4.842855730">
                <ele>528.152161</ele>
                <time>2015-05-25T13:40:19Z</time>
            </trkpt>
            <trkpt lat="47.285178477" lon="4.842861524">
                <ele>528.312500</ele>
                <time>2015-05-25T13:40:32Z</time>
            </trkpt>
            <trkpt lat="47.285291400" lon="4.842842016">
                <ele>528.237488</ele>
                <time>2015-05-25T13:40:39Z</time>
            </trkpt>
            <trkpt lat="47.285403786" lon="4.842847283">
                <ele>528.237488</ele>
                <time>2015-05-25T13:40:47Z</time>
            </trkpt>
            <trkpt lat="47.285521971" lon="4.842844555">
                <ele>528.212524</ele>
                <time>2015-05-25T13:40:56Z</time>
            </trkpt>
            <trkpt lat="47.285651214" lon="4.842850612">
                <ele>528.006958</ele>
                <time>2015-05-25T13:41:01Z</time>
            </trkpt>
            <trkpt lat="47.285768861" lon="4.842872659">
                <ele>527.832458</ele>
                <time>2015-05-25T13:41:17Z</time>
            </trkpt>
            <trkpt lat="47.285914962" lon="4.842879506">
                <ele>527.550110</ele>
                <time>2015-05-25T13:41:34Z</time>
            </trkpt>
            <trkpt lat="47.286055086" lon="4.842902607">
                <ele>527.249390</ele>
                <time>2015-05-25T13:41:49Z</time>
            </trkpt>
            <trkpt lat="47.286156054" lon="4.842915606">
                <ele>526.916077</ele>
                <time>2015-05-25T13:42:03Z</time>
            </trkpt>
            <trkpt lat="47.286290738" lon="4.842930185">
                <ele>526.471191</ele>
                <time>2015-05-25T13:42:18Z</time>
            </trkpt>
            <trkpt lat="47.286425780" lon="4.842928247">
                <ele>525.918579</ele>
                <time>2015-05-25T13:42:34Z</time>
            </trkpt>
            <trkpt lat="47.286554845" lon="4.842942563">
                <ele>525.416260</ele>
            </trkpt>
            <trkpt lat="47.286739923" lon="4.842967771">
                <ele>524.721252</ele>
                <time>2015-05-25T13:42:49Z</time>
            </trkpt>
            <trkpt lat="47.286885486" lon="4.842999394">
                <ele>524.258728</ele>
            </trkpt>
            <trkpt lat="47.287003133" lon="4.843021441">
                <ele>523.429565</ele>
                <time>2015-05-25T13:43:05Z</time>
            </trkpt>
            <trkpt lat="47.287132197" lon="4.843035757">
                <ele>522.435303</ele>
                <time>2015-05-25T13:43:10Z</time>
            </trkpt>
            <trkpt lat="47.287255463" lon="4.843058069">
                <ele>521.557800</ele>
                <time>2015-05-25T13:43:25Z</time>
            </trkpt>
            <trkpt lat="47.287367491" lon="4.843079853">
                <ele>520.840698</ele>
                <time>2015-05-25T13:43:38Z</time>
            </trkpt>
            <trkpt lat="47.287536248" lon="4.843079496">
                <ele>519.759583</ele>
                <time>2015-05-25T13:43:44Z</time>
            </trkpt>
            <trkpt lat="47.287676731" lon="4.843086081">
                <ele>518.914978</ele>
                <time>2015-05-25T13:43:54Z</time>
            </trkpt>
            <trkpt lat="47.287805795" lon="4.843100397">
                <ele>518.278625</ele>
                <time>2015-05-25T13:44:01Z</time>
            </trkpt>
            <trkpt lat="47.287963314" lon="4.843099514">
                <ele>517.713501</ele>
                <time>2015-05-25T13:44:16Z</time>
            </trkpt>
            <trkpt lat="47.288125736" lon="4.843131928">
                <ele>517.534546</ele>
                <time>2015-05-25T13:44:29Z</time>
            </trkpt>
            <trkpt lat="47.288260419" lon="4.843146508">
                <ele>517.183716</ele>
            </trkpt>
            <trkpt lat="47.288384044" lon="4.843152302">
                <ele>516.358765</ele>
                <time>2015-05-25T13:44:47Z</time>
            </trkpt>
            <trkpt lat="47.288529787" lon="4.843175668">
                <ele>515.608765</ele>
                <time>2015-05-25T13:45:02Z</time>
            </trkpt>
            <trkpt lat="47.288658134" lon="4.843223020">
                <ele>515.316223</ele>
                <time>2015-05-25T13:45:17Z</time>
            </trkpt>
            <trkpt lat="47.288798078" lon="4.843254381">
                <ele>514.953735</ele>
                <time>2015-05-25T13:45:33Z</time>
            </trkpt>
            <trkpt lat="47.288941098" lon="4.843272110">
                <ele>514.481262</ele>
                <time>2015-05-25T13:45:42Z</time>
            </trkpt>
            <trkpt lat="47.289068700" lon="4.843225731">
                <ele>513.191223</ele>
            </trkpt>
            <trkpt lat="47.289233451" lon="4.843150782">
                <ele>511.961243</ele>
                <time>2015-05-25T13:45:56Z</time>
            </trkpt>
            <trkpt lat="47.289345944" lon="4.843140263">
                <ele>511.997498</ele>
                <time>2015-05-25T13:46:12Z</time>
            </trkpt>
            <trkpt lat="47.289502937" lon="4.843093408">
                <ele>511.611237</ele>
                <time>2015-05-25T13:46:24Z</time>
            </trkpt>
            <trkpt lat="47.289675018" lon="4.843070693">
                <ele>512.109619</ele>
                <time>2015-05-25T13:46:37Z</time>
            </trkpt>
            <trkpt lat="47.289837291" lon="4.842982432">
                <ele>512.745667</ele>
                <time>2015-05-25T13:46:52Z</time>
            </trkpt>
            <trkpt lat="47.289950699" lon="4.842870785">
                <ele>511.698914</ele>
                <time>2015-05-25T13:47:02Z</time>
            </trkpt>
            <trkpt lat="47.290093945" lon="4.842712032">
                <ele>510.536957</ele>
                <time>2015-05-25T13:47:16Z</time>
            </trkpt>
            <trkpt lat="47.290230982" lon="4.842544422">
                <ele>510.036835</ele>
            </trkpt>
            <trkpt lat="47.290324295" lon="4.842391715">
                <ele>510.084900</ele>
                <time>2015-05-25T13:47:31Z</time>
            </trkpt>
            <trkpt lat="47.290394772" lon="4.842254473">
                <ele>510.173218</ele>
                <time>2015-05-25T13:47:32Z</time>
            </trkpt>
            <trkpt lat="47.290460167" lon="4.842092190">
                <ele>510.072266</ele>
                <time>2015-05-25T13:47:47Z</time>
            </trkpt>
            <trkpt lat="47.290525383" lon="4.841938166">
                <ele>510.434143</ele>
                <time>2015-05-25T13:48:01Z</time>
            </trkpt>
            <trkpt lat="47.290590957" lon="4.841767623">
                <ele>510.133667</ele>
                <time>2015-05-25T13:48:15Z</time>
            </trkpt>
            <trkpt lat="47.290630471" lon="4.841606878">
                <ele>509.904327</ele>
                <time>2015-05-25T13:48:28Z</time>
            </trkpt>
            <trkpt lat="47.290602487" lon="4.841495339">
                <ele>508.624878</ele>
                <time>2015-05-25T13:51:53Z</time>
            </trkpt>
            <trkpt lat="47.290519272" lon="4.841441837">
                <ele>506.113373</ele>
                <time>2015-05-25T13:51:58Z</time>
            </trkpt>
            <trkpt lat="47.290453094" lon="4.841380865">
                <ele>502.572052</ele>
                <time>2015-05-25T13:52:03Z</time>
            </trkpt>
            <trkpt lat="47.290370417" lon="4.841302586">
                <ele>497.921661</ele>
                <time>2015-05-25T13:52:12Z</time>
            </trkpt>
            <trkpt lat="47.290270881" lon="4.841223518">
                <ele>492.069122</ele>
                <time>2015-05-25T13:52:19Z</time>
            </trkpt>
            <trkpt lat="47.290198368" lon="4.841195319">
                <ele>487.966705</ele>
                <time>2015-05-25T13:52:20Z</time>
            </trkpt>
            <trkpt lat="47.290137093" lon="4.841167647">
                <ele>484.476501</ele>
                <time>2015-05-25T13:52:26Z</time>
            </trkpt>
            <trkpt lat="47.290070557" lon="4.841123195">
                <ele>480.344635</ele>
                <time>2015-05-25T13:52:31Z</time>
            </trkpt>
            <trkpt lat="47.289976641" lon="4.841044390">
                <ele>474.399933</ele>
                <time>2015-05-25T13:52:39Z</time>
            </trkpt>
            <trkpt lat="47.289876747" lon="4.840981841">
                <ele>468.537567</ele>
                <time>2015-05-25T13:52:45Z</time>
            </trkpt>
            <trkpt lat="47.289788629" lon="4.840895041">
                <ele>463.350067</ele>
                <time>2015-05-25T13:52:50Z</time>
            </trkpt>
            <trkpt lat="47.289711570" lon="4.840817027">
                <ele>458.832764</ele>
                <time>2015-05-25T13:52:57Z</time>
            </trkpt>
            <trkpt lat="47.289617117" lon="4.840763000">
                <ele>454.261414</ele>
                <time>2015-05-25T13:52:58Z</time>
            </trkpt>
            <trkpt lat="47.289540058" lon="4.840684987">
                <ele>451.067200</ele>
                <time>2015-05-25T13:53:18Z</time>
            </trkpt>
            <trkpt lat="47.289468082" lon="4.840632013">
                <ele>448.122986</ele>
                <time>2015-05-25T13:53:41Z</time>
            </trkpt>
            <trkpt lat="47.289369083" lon="4.840528171">
                <ele>443.474365</ele>
                <time>2015-05-25T13:53:55Z</time>
            </trkpt>
            <trkpt lat="47.289274808" lon="4.840465886">
                <ele>439.364075</ele>
                <time>2015-05-25T13:54:06Z</time>
            </trkpt>
            <trkpt lat="47.289203727" lon="4.840371619">
                <ele>435.251099</ele>
                <time>2015-05-25T13:54:12Z</time>
            </trkpt>
            <trkpt lat="47.289190807" lon="4.840189136">
                <ele>432.708130</ele>
                <time>2015-05-25T13:54:22Z</time>
            </trkpt>
            <trkpt lat="47.289143813" lon="4.840021593">
                <ele>430.171570</ele>
                <time>2015-05-25T13:54:32Z</time>
            </trkpt>
            <trkpt lat="47.289091200" lon="4.839853787">
                <ele>426.973114</ele>
                <time>2015-05-25T13:54:33Z</time>
            </trkpt>
            <trkpt lat="47.289044743" lon="4.839661468">
                <ele>422.912506</ele>
                <time>2015-05-25T13:54:44Z</time>
            </trkpt>
            <trkpt lat="47.288974735" lon="4.839517650">
                <ele>419.294769</ele>
                <time>2015-05-25T13:54:54Z</time>
            </trkpt>
            <trkpt lat="47.288887331" lon="4.839397819">
                <ele>415.067657</ele>
                <time>2015-05-25T13:55:03Z</time>
            </trkpt>
            <trkpt lat="47.288755153" lon="4.839267626">
                <ele>408.877808</ele>
                <time>2015-05-25T13:55:13Z</time>
            </trkpt>
            <trkpt lat="47.288661772" lon="4.839164051">
                <ele>405.698944</ele>
                <time>2015-05-25T13:55:23Z</time>
            </trkpt>
            <trkpt lat="47.288568570" lon="4.839052217">
                <ele>401.929382</ele>
                <time>2015-05-25T13:55:34Z</time>
            </trkpt>
            <trkpt lat="47.288494015" lon="4.838858586">
                <ele>397.246735</ele>
                <time>2015-05-25T13:55:47Z</time>
            </trkpt>
            <trkpt lat="47.288452639" lon="4.838691309">
                <ele>394.349854</ele>
                <time>2015-05-25T13:56:04Z</time>
            </trkpt>
            <trkpt lat="47.288552102" lon="4.838514088">
                <ele>394.865936</ele>
                <time>2015-05-25T13:56:19Z</time>
            </trkpt>
            <trkpt lat="47.288607685" lon="4.838285210">
                <ele>394.103882</ele>
                <time>2015-05-25T13:56:32Z</time>
            </trkpt>
            <trkpt lat="47.288640968" lon="4.838047022">
                <ele>394.054657</ele>
                <time>2015-05-25T13:56:34Z</time>
            </trkpt>
            <trkpt lat="47.288698159" lon="4.837743815">
                <ele>394.279907</ele>
                <time>2015-05-25T13:56:51Z</time>
            </trkpt>
            <trkpt lat="47.288724213" lon="4.837579692">
                <ele>394.724609</ele>
                <time>2015-05-25T13:57:06Z</time>
            </trkpt>
            <trkpt lat="47.288733587" lon="4.837406522">
                <ele>395.753113</ele>
                <time>2015-05-25T13:57:22Z</time>
            </trkpt>
            <trkpt lat="47.288726282" lon="4.837224305">
                <ele>396.318085</ele>
                <time>2015-05-25T13:57:26Z</time>
            </trkpt>
            <trkpt lat="47.288648429" lon="4.836923049">
                <ele>395.795563</ele>
                <time>2015-05-25T13:57:43Z</time>
            </trkpt>
            <trkpt lat="47.288513744" lon="4.836908485">
                <ele>392.341705</ele>
                <time>2015-05-25T13:57:59Z</time>
            </trkpt>
            <trkpt lat="47.288415815" lon="4.836755099">
                <ele>391.667267</ele>
                <time>2015-05-25T13:58:00Z</time>
            </trkpt>
            <trkpt lat="47.288289252" lon="4.836625177">
                <ele>390.186188</ele>
                <time>2015-05-25T13:58:17Z</time>
            </trkpt>
            <trkpt lat="47.288169628" lon="4.836486792">
                <ele>389.149750</ele>
                <time>2015-05-25T13:58:35Z</time>
            </trkpt>
            <trkpt lat="47.288086879" lon="4.836359439">
                <ele>389.072113</ele>
            </trkpt>
            <trkpt lat="47.287971912" lon="4.836213527">
                <ele>388.885925</ele>
                <time>2015-05-25T13:58:53Z</time>
            </trkpt>
            <trkpt lat="47.287863100" lon="4.836043101">
                <ele>389.730621</ele>
                <time>2015-05-25T13:59:07Z</time>
            </trkpt>
            <trkpt lat="47.287765170" lon="4.835889719">
                <ele>390.574097</ele>
                <time>2015-05-25T13:59:21Z</time>
            </trkpt>
            <trkpt lat="47.287651274" lon="4.835694257">
                <ele>392.004944</ele>
            </trkpt>
            <trkpt lat="47.287553700" lon="4.835524359">
                <ele>392.890076</ele>
                <time>2015-05-25T13:59:34Z</time>
            </trkpt>
            <trkpt lat="47.287467008" lon="4.835371504">
                <ele>392.682709</ele>
                <time>2015-05-25T13:59:51Z</time>
            </trkpt>
            <trkpt lat="47.287363635" lon="4.835209604">
                <ele>391.686432</ele>
                <time>2015-05-25T14:00:07Z</time>
            </trkpt>
            <trkpt lat="47.287295229" lon="4.834991469">
                <ele>392.556152</ele>
                <time>2015-05-25T14:00:22Z</time>
            </trkpt>
            <trkpt lat="47.287226286" lon="4.834798111">
                <ele>392.091278</ele>
                <time>2015-05-25T14:00:37Z</time>
            </trkpt>
            <trkpt lat="47.287163320" lon="4.834588498">
                <ele>391.112549</ele>
                <time>2015-05-25T14:00:51Z</time>
            </trkpt>
            <trkpt lat="47.287092948" lon="4.834461209">
                <ele>389.454193</ele>
                <time>2015-05-25T14:01:03Z</time>
            </trkpt>
            <trkpt lat="47.287011873" lon="4.834308619">
                <ele>387.645630</ele>
                <time>2015-05-25T14:01:10Z</time>
            </trkpt>
            <trkpt lat="47.286958537" lon="4.834173859">
                <ele>385.875488</ele>
                <time>2015-05-25T14:01:19Z</time>
            </trkpt>
            <trkpt lat="47.286871307" lon="4.834045784">
                <ele>382.303009</ele>
                <time>2015-05-25T14:01:29Z</time>
            </trkpt>
            <trkpt lat="47.286796208" lon="4.833876941">
                <ele>378.597687</ele>
                <time>2015-05-25T14:01:40Z</time>
            </trkpt>
            <trkpt lat="47.286762390" lon="4.833683632">
                <ele>375.811035</ele>
                <time>2015-05-25T14:01:45Z</time>
            </trkpt>
            <trkpt lat="47.286750656" lon="4.833460757">
                <ele>373.507813</ele>
                <time>2015-05-25T14:01:56Z</time>
            </trkpt>
            <trkpt lat="47.286737161" lon="4.833167894">
                <ele>370.924927</ele>
                <time>2015-05-25T14:02:10Z</time>
            </trkpt>
            <trkpt lat="47.286677683" lon="4.832854595">
                <ele>367.512756</ele>
                <time>2015-05-25T14:02:15Z</time>
            </trkpt>
            <trkpt lat="47.286590630" lon="4.832718264">
                <ele>366.175934</ele>
                <time>2015-05-25T14:02:25Z</time>
            </trkpt>
            <trkpt lat="47.286429097" lon="4.832644590">
                <ele>363.598694</ele>
                <time>2015-05-25T14:02:38Z</time>
            </trkpt>
            <trkpt lat="47.286294591" lon="4.832621779">
                <ele>361.354065</ele>
                <time>2015-05-25T14:02:57Z</time>
            </trkpt>
            <trkpt lat="47.286184346" lon="4.832517433">
                <ele>360.159241</ele>
                <time>2015-05-25T14:02:58Z</time>
            </trkpt>
            <trkpt lat="47.286086054" lon="4.832380579">
                <ele>359.653870</ele>
                <time>2015-05-25T14:03:14Z</time>
            </trkpt>
            <trkpt lat="47.285969654" lon="4.832300747">
                <ele>358.624512</ele>
            </trkpt>
            <trkpt lat="47.285854860" lon="4.832146590">
                <ele>358.520630</ele>
                <time>2015-05-25T14:03:26Z</time>
            </trkpt>
            <trkpt lat="47.285727044" lon="4.832074493">
                <ele>357.345490</ele>
                <time>2015-05-25T14:03:43Z</time>
            </trkpt>
            <trkpt lat="47.285591823" lon="4.832084716">
                <ele>355.672882</ele>
                <time>2015-05-25T14:03:51Z</time>
            </trkpt>
            <trkpt lat="47.285446435" lon="4.832044866">
                <ele>354.205780</ele>
                <time>2015-05-25T14:04:07Z</time>
            </trkpt>
            <trkpt lat="47.285335119" lon="4.831990072">
                <ele>353.201477</ele>
                <time>2015-05-25T14:04:22Z</time>
            </trkpt>
            <trkpt lat="47.285275091" lon="4.831904606">
                <ele>352.181610</ele>
                <time>2015-05-25T14:04:23Z</time>
            </trkpt>
            <trkpt lat="47.285215062" lon="4.831819140">
                <ele>351.275879</ele>
                <time>2015-05-25T14:04:38Z</time>
            </trkpt>
            <trkpt lat="47.285149771" lon="4.831716895">
                <ele>350.643250</ele>
                <time>2015-05-25T14:04:54Z</time>
            </trkpt>
            <trkpt lat="47.285079753" lon="4.831573098">
                <ele>350.658752</ele>
                <time>2015-05-25T14:04:57Z</time>
            </trkpt>
            <trkpt lat="47.285010091" lon="4.831412784">
                <ele>349.608765</ele>
                <time>2015-05-25T14:05:11Z</time>
            </trkpt>
            <trkpt lat="47.284991181" lon="4.831246573">
                <ele>348.458740</ele>
                <time>2015-05-25T14:05:32Z</time>
            </trkpt>
            <trkpt lat="47.285006701" lon="4.831048901">
                <ele>347.758759</ele>
                <time>2015-05-25T14:05:45Z</time>
            </trkpt>
            <trkpt lat="47.285016600" lon="4.830850967">
                <ele>346.978760</ele>
                <time>2015-05-25T14:05:59Z</time>
            </trkpt>
            <trkpt lat="47.285002596" lon="4.830718050">
                <ele>344.543640</ele>
                <time>2015-05-25T14:06:13Z</time>
            </trkpt>
            <trkpt lat="47.284960316" lon="4.830592081">
                <ele>341.867371</ele>
                <time>2015-05-25T14:06:15Z</time>
            </trkpt>
            <trkpt lat="47.284901713" lon="4.830440551">
                <ele>338.522949</ele>
                <time>2015-05-25T14:06:29Z</time>
            </trkpt>
            <trkpt lat="47.284853992" lon="4.830306063">
                <ele>334.846771</ele>
                <time>2015-05-25T14:06:42Z</time>
            </trkpt>
            <trkpt lat="47.284787808" lon="4.830245111">
                <ele>331.731537</ele>
                <time>2015-05-25T14:06:56Z</time>
            </trkpt>
            <trkpt lat="47.284779779" lon="4.830095941">
                <ele>327.340515</ele>
                <time>2015-05-25T14:07:09Z</time>
            </trkpt>
            <trkpt lat="47.284742405" lon="4.830003267">
                <ele>322.885193</ele>
            </trkpt>
            <trkpt lat="47.284674542" lon="4.829920242">
                <ele>318.081696</ele>
                <time>2015-05-25T14:07:20Z</time>
            </trkpt>
            <trkpt lat="47.284594998" lon="4.829921750">
                <ele>315.949738</ele>
                <time>2015-05-25T14:07:34Z</time>
            </trkpt>
            <trkpt lat="47.284605665" lon="4.829823297">
                <ele>312.953491</ele>
                <time>2015-05-25T14:07:59Z</time>
            </trkpt>
            <trkpt lat="47.284528065" lon="4.829770081">
                <ele>309.325928</ele>
                <time>2015-05-25T14:08:10Z</time>
            </trkpt>
            <trkpt lat="47.284474010" lon="4.829668364">
                <ele>304.977386</ele>
                <time>2015-05-25T14:08:20Z</time>
            </trkpt>
            <trkpt lat="47.284419956" lon="4.829566648">
                <ele>301.511475</ele>
                <time>2015-05-25T14:08:35Z</time>
            </trkpt>
            <trkpt lat="47.284302469" lon="4.829546493">
                <ele>300.167084</ele>
                <time>2015-05-25T14:08:55Z</time>
            </trkpt>
            <trkpt lat="47.284189920" lon="4.829539392">
                <ele>299.197418</ele>
                <time>2015-05-25T14:09:11Z</time>
            </trkpt>
            <trkpt lat="47.284098942" lon="4.829584749">
                <ele>298.609528</ele>
                <time>2015-05-25T14:09:20Z</time>
            </trkpt>
            <trkpt lat="47.284001453" lon="4.829671134">
                <ele>298.765015</ele>
                <time>2015-05-25T14:09:34Z</time>
            </trkpt>
            <trkpt lat="47.283915737" lon="4.829733268">
                <ele>300.953125</ele>
                <time>2015-05-25T14:09:52Z</time>
            </trkpt>
            <trkpt lat="47.283841259" lon="4.829795927">
                <ele>302.178741</ele>
                <time>2015-05-25T14:10:08Z</time>
            </trkpt>
            <trkpt lat="47.283744318" lon="4.829887301">
                <ele>302.542999</ele>
                <time>2015-05-25T14:10:23Z</time>
            </trkpt>
            <trkpt lat="47.283682376" lon="4.829978831">
                <ele>301.310242</ele>
                <time>2015-05-25T14:10:40Z</time>
            </trkpt>
            <trkpt lat="47.283636946" lon="4.830031218">
                <ele>300.316986</ele>
                <time>2015-05-25T14:10:56Z</time>
            </trkpt>
            <trkpt lat="47.283557234" lon="4.830071032">
                <ele>300.362854</ele>
                <time>2015-05-25T14:11:11Z</time>
            </trkpt>
            <trkpt lat="47.283491171" lon="4.830118522">
                <ele>302.661499</ele>
                <time>2015-05-25T14:11:28Z</time>
            </trkpt>
            <trkpt lat="47.283411966" lon="4.830139628">
                <ele>306.932068</ele>
                <time>2015-05-25T14:11:45Z</time>
            </trkpt>
            <trkpt lat="47.283293425" lon="4.830158900">
                <ele>313.093018</ele>
                <time>2015-05-25T14:12:00Z</time>
            </trkpt>
            <trkpt lat="47.283250610" lon="4.830057709">
                <ele>317.817261</ele>
                <time>2015-05-25T14:12:18Z</time>
            </trkpt>
            <trkpt lat="47.283337396" lon="4.829946028">
                <ele>315.994446</ele>
                <time>2015-05-25T14:12:36Z</time>
            </trkpt>
            <trkpt lat="47.283418919" lon="4.829817569">
                <ele>315.446045</ele>
                <time>2015-05-25T14:12:51Z</time>
            </trkpt>
            <trkpt lat="47.283416152" lon="4.829685180">
                <ele>319.471436</ele>
                <time>2015-05-25T14:12:54Z</time>
            </trkpt>
            <trkpt lat="47.283379312" lon="4.829567735">
                <ele>324.416016</ele>
                <time>2015-05-25T14:13:12Z</time>
            </trkpt>
            <trkpt lat="47.283292433" lon="4.829423160">
                <ele>331.759674</ele>
                <time>2015-05-25T14:13:29Z</time>
            </trkpt>
            <trkpt lat="47.283244176" lon="4.829313450">
                <ele>335.447357</ele>
                <time>2015-05-25T14:13:35Z</time>
            </trkpt>
            <trkpt lat="47.283224724" lon="4.829221358">
                <ele>337.502686</ele>
                <time>2015-05-25T14:13:51Z</time>
            </trkpt>
            <trkpt lat="47.283192202" lon="4.828997394">
                <ele>341.840485</ele>
                <time>2015-05-25T14:14:09Z</time>
            </trkpt>
            <trkpt lat="47.283196393" lon="4.828860769">
                <ele>343.556244</ele>
                <time>2015-05-25T14:14:25Z</time>
            </trkpt>
            <trkpt lat="47.283197818" lon="4.828750882">
                <ele>345.199127</ele>
                <time>2015-05-25T14:14:46Z</time>
            </trkpt>
            <trkpt lat="47.283156076" lon="4.828611240">
                <ele>348.984985</ele>
                <time>2015-05-25T14:15:00Z</time>
            </trkpt>
            <trkpt lat="47.283160848" lon="4.828482946">
                <ele>351.262238</ele>
                <time>2015-05-25T14:15:16Z</time>
            </trkpt>
            <trkpt lat="47.283089776" lon="4.828397166">
                <ele>353.342041</ele>
                <time>2015-05-25T14:15:32Z</time>
            </trkpt>
            <trkpt lat="47.283075946" lon="4.828245705">
                <ele>356.179718</ele>
                <time>2015-05-25T14:15:47Z</time>
            </trkpt>
            <trkpt lat="47.283070162" lon="4.828126766">
                <ele>358.350372</ele>
                <time>2015-05-25T14:16:01Z</time>
            </trkpt>
            <trkpt lat="47.283075694" lon="4.827988548">
                <ele>361.389984</ele>
                <time>2015-05-25T14:16:17Z</time>
            </trkpt>
            <trkpt lat="47.283073417" lon="4.827842377">
                <ele>364.753754</ele>
                <time>2015-05-25T14:16:34Z</time>
            </trkpt>
            <trkpt lat="47.283061780" lon="4.827663247">
                <ele>368.908752</ele>
                <time>2015-05-25T14:16:50Z</time>
            </trkpt>
            <trkpt lat="47.283025403" lon="4.827512708">
                <ele>372.538757</ele>
                <time>2015-05-25T14:17:07Z</time>
            </trkpt>
            <trkpt lat="47.283042083" lon="4.827342806">
                <ele>375.582520</ele>
                <time>2015-05-25T14:17:24Z</time>
            </trkpt>
            <trkpt lat="47.283029258" lon="4.827191513">
                <ele>378.060638</ele>
                <time>2015-05-25T14:17:39Z</time>
            </trkpt>
            <trkpt lat="47.283000961" lon="4.827028917">
                <ele>380.837616</ele>
                <time>2015-05-25T14:18:12Z</time>
            </trkpt>
            <trkpt lat="47.283016295" lon="4.826839510">
                <ele>383.735413</ele>
                <time>2015-05-25T14:18:34Z</time>
            </trkpt>
            <trkpt lat="47.283019856" lon="4.826674352">
                <ele>386.267487</ele>
                <time>2015-05-25T14:18:59Z</time>
            </trkpt>
            <trkpt lat="47.283028502" lon="4.826534230">
                <ele>388.332489</ele>
                <time>2015-05-25T14:19:17Z</time>
            </trkpt>
            <trkpt lat="47.283043835" lon="4.826344822">
                <ele>391.107513</ele>
                <time>2015-05-25T14:19:34Z</time>
            </trkpt>
            <trkpt lat="47.283053905" lon="4.826138636">
                <ele>394.192505</ele>
                <time>2015-05-25T14:19:49Z</time>
            </trkpt>
            <trkpt lat="47.283062906" lon="4.825981998">
                <ele>395.779053</ele>
                <time>2015-05-25T14:20:05Z</time>
            </trkpt>
            <trkpt lat="47.283032038" lon="4.825848303">
                <ele>397.381653</ele>
                <time>2015-05-25T14:20:20Z</time>
            </trkpt>
            <trkpt lat="47.282985379" lon="4.825664275">
                <ele>399.575500</ele>
                <time>2015-05-25T14:20:23Z</time>
            </trkpt>
            <trkpt lat="47.282927482" lon="4.825479726">
                <ele>401.766724</ele>
                <time>2015-05-25T14:20:32Z</time>
            </trkpt>
            <trkpt lat="47.283054310" lon="4.825336837">
                <ele>401.628235</ele>
                <time>2015-05-25T14:20:50Z</time>
            </trkpt>
            <trkpt lat="47.283180071" lon="4.825243495">
                <ele>400.803131</ele>
                <time>2015-05-25T14:21:07Z</time>
            </trkpt>
            <trkpt lat="47.283256859" lon="4.825073478">
                <ele>400.087891</ele>
                <time>2015-05-25T14:21:28Z</time>
            </trkpt>
            <trkpt lat="47.283272901" lon="4.824851037">
                <ele>400.081757</ele>
                <time>2015-05-25T14:21:43Z</time>
            </trkpt>
            <trkpt lat="47.283282079" lon="4.824686140">
                <ele>399.585907</ele>
                <time>2015-05-25T14:21:52Z</time>
            </trkpt>
            <trkpt lat="47.283183599" lon="4.824557566">
                <ele>401.296173</ele>
            </trkpt>
            <trkpt lat="47.283010467" lon="4.824499915">
                <ele>404.439240</ele>
                <time>2015-05-25T14:22:08Z</time>
            </trkpt>
            <trkpt lat="47.282859634" lon="4.824451567">
                <ele>407.278076</ele>
                <time>2015-05-25T14:22:27Z</time>
            </trkpt>
            <trkpt lat="47.282937844" lon="4.824215487">
                <ele>405.939911</ele>
            </trkpt>
            <trkpt lat="47.283037108" lon="4.824046515">
                <ele>405.392761</ele>
                <time>2015-05-25T14:22:44Z</time>
            </trkpt>
            <trkpt lat="47.283130574" lon="4.823885539">
                <ele>406.477753</ele>
                <time>2015-05-25T14:23:00Z</time>
            </trkpt>
            <trkpt lat="47.283212446" lon="4.823740555">
                <ele>407.833862</ele>
                <time>2015-05-25T14:23:20Z</time>
            </trkpt>
            <trkpt lat="47.283175244" lon="4.823639631">
                <ele>410.344116</ele>
                <time>2015-05-25T14:23:38Z</time>
            </trkpt>
            <trkpt lat="47.283110658" lon="4.823504369">
                <ele>413.706879</ele>
                <time>2015-05-25T14:23:53Z</time>
            </trkpt>
            <trkpt lat="47.283030180" lon="4.823436169">
                <ele>416.007935</ele>
                <time>2015-05-25T14:24:08Z</time>
            </trkpt>
            <trkpt lat="47.282888195" lon="4.823386564">
                <ele>418.685699</ele>
                <time>2015-05-25T14:24:23Z</time>
            </trkpt>
            <trkpt lat="47.282740492" lon="4.823454091">
                <ele>419.244995</ele>
                <time>2015-05-25T14:24:27Z</time>
            </trkpt>
            <trkpt lat="47.282643897" lon="4.823499196">
                <ele>419.816498</ele>
                <time>2015-05-25T14:24:43Z</time>
            </trkpt>
            <trkpt lat="47.282500568" lon="4.823624789">
                <ele>420.219940</ele>
                <time>2015-05-25T14:24:58Z</time>
            </trkpt>
            <trkpt lat="47.282373742" lon="4.823767680">
                <ele>420.422363</ele>
            </trkpt>
            <trkpt lat="47.282264663" lon="4.823870066">
                <ele>420.869812</ele>
                <time>2015-05-25T14:25:17Z</time>
            </trkpt>
            <trkpt lat="47.282126953" lon="4.823995917">
                <ele>421.281555</ele>
                <time>2015-05-25T14:25:33Z</time>
            </trkpt>
            <trkpt lat="47.281989065" lon="4.824130026">
                <ele>421.311371</ele>
                <time>2015-05-25T14:25:52Z</time>
            </trkpt>
            <trkpt lat="47.281879630" lon="4.824248926">
                <ele>420.743622</ele>
                <time>2015-05-25T14:26:09Z</time>
            </trkpt>
            <trkpt lat="47.281787052" lon="4.824368609">
                <ele>419.489868</ele>
                <time>2015-05-25T14:26:23Z</time>
            </trkpt>
            <trkpt lat="47.281669402" lon="4.824346605">
                <ele>420.641876</ele>
            </trkpt>
            <trkpt lat="47.281571278" lon="4.824201520">
                <ele>424.146759</ele>
                <time>2015-05-25T14:26:38Z</time>
            </trkpt>
            <trkpt lat="47.281636648" lon="4.824039241">
                <ele>426.715515</ele>
                <time>2015-05-25T14:26:53Z</time>
            </trkpt>
            <trkpt lat="47.281701128" lon="4.823918251">
                <ele>428.245087</ele>
                <time>2015-05-25T14:27:10Z</time>
            </trkpt>
            <trkpt lat="47.281765786" lon="4.823789003">
                <ele>429.587738</ele>
                <time>2015-05-25T14:27:26Z</time>
            </trkpt>
            <trkpt lat="47.281825536" lon="4.823626462">
                <ele>431.165710</ele>
                <time>2015-05-25T14:27:45Z</time>
            </trkpt>
            <trkpt lat="47.281863520" lon="4.823429845">
                <ele>433.378510</ele>
                <time>2015-05-25T14:28:02Z</time>
            </trkpt>
            <trkpt lat="47.281934686" lon="4.823259568">
                <ele>435.580688</ele>
                <time>2015-05-25T14:28:20Z</time>
            </trkpt>
            <trkpt lat="47.282007096" lon="4.823031487">
                <ele>439.326385</ele>
                <time>2015-05-25T14:28:39Z</time>
            </trkpt>
            <trkpt lat="47.282079150" lon="4.822819921">
                <ele>442.406799</ele>
                <time>2015-05-25T14:28:58Z</time>
            </trkpt>
            <trkpt lat="47.282123107" lon="4.822607048">
                <ele>443.620239</ele>
                <time>2015-05-25T14:29:16Z</time>
            </trkpt>
            <trkpt lat="47.282178125" lon="4.822402955">
                <ele>444.047882</ele>
                <time>2015-05-25T14:29:32Z</time>
            </trkpt>
            <trkpt lat="47.282102653" lon="4.822250659">
                <ele>446.833557</ele>
                <time>2015-05-25T14:29:51Z</time>
            </trkpt>
            <trkpt lat="47.282003815" lon="4.822138607">
                <ele>449.643616</ele>
                <time>2015-05-25T14:29:52Z</time>
            </trkpt>
            <trkpt lat="47.281888475" lon="4.822009257">
                <ele>452.736450</ele>
                <time>2015-05-25T14:30:09Z</time>
            </trkpt>
            <trkpt lat="47.281773134" lon="4.821879907">
                <ele>456.264954</ele>
                <time>2015-05-25T14:30:25Z</time>
            </trkpt>
            <trkpt lat="47.281673940" lon="4.821784373">
                <ele>459.110626</ele>
                <time>2015-05-25T14:30:41Z</time>
            </trkpt>
            <trkpt lat="47.281541741" lon="4.821654241">
                <ele>462.596252</ele>
                <time>2015-05-25T14:30:56Z</time>
            </trkpt>
            <trkpt lat="47.281448167" lon="4.821558968">
                <ele>464.828491</ele>
                <time>2015-05-25T14:31:14Z</time>
            </trkpt>
            <trkpt lat="47.281355126" lon="4.821438922">
                <ele>466.684387</ele>
                <time>2015-05-25T14:31:31Z</time>
            </trkpt>
            <trkpt lat="47.281261551" lon="4.821343650">
                <ele>468.672058</ele>
                <time>2015-05-25T14:31:46Z</time>
            </trkpt>
            <trkpt lat="47.281123554" lon="4.821221517">
                <ele>471.695618</ele>
                <time>2015-05-25T14:31:59Z</time>
            </trkpt>
            <trkpt lat="47.281013832" lon="4.821092432">
                <ele>473.515015</ele>
                <time>2015-05-25T14:32:16Z</time>
            </trkpt>
            <trkpt lat="47.280913572" lon="4.821046446">
                <ele>475.585938</ele>
                <time>2015-05-25T14:32:31Z</time>
            </trkpt>
            <trkpt lat="47.280791900" lon="4.820949870">
                <ele>477.598236</ele>
                <time>2015-05-25T14:32:48Z</time>
            </trkpt>
            <trkpt lat="47.280703234" lon="4.820887891">
                <ele>479.062256</ele>
                <time>2015-05-25T14:33:05Z</time>
            </trkpt>
            <trkpt lat="47.280578893" lon="4.820972811">
                <ele>483.040009</ele>
                <time>2015-05-25T14:33:24Z</time>
            </trkpt>
            <trkpt lat="47.280529147" lon="4.821136043">
                <ele>486.195007</ele>
                <time>2015-05-25T14:33:41Z</time>
            </trkpt>
            <trkpt lat="47.280508914" lon="4.821292152">
                <ele>488.480011</ele>
                <time>2015-05-25T14:33:57Z</time>
            </trkpt>
            <trkpt lat="47.280475292" lon="4.821438007">
                <ele>490.540497</ele>
                <time>2015-05-25T14:34:12Z</time>
            </trkpt>
            <trkpt lat="47.280399269" lon="4.821553342">
                <ele>492.462189</ele>
                <time>2015-05-25T14:34:26Z</time>
            </trkpt>
            <trkpt lat="47.280239297" lon="4.821535864">
                <ele>495.620270</ele>
                <time>2015-05-25T14:34:42Z</time>
            </trkpt>
            <trkpt lat="47.280122179" lon="4.821489094">
                <ele>497.854736</ele>
                <time>2015-05-25T14:34:49Z</time>
            </trkpt>
            <trkpt lat="47.280001040" lon="4.821367746">
                <ele>500.375488</ele>
                <time>2015-05-25T14:35:06Z</time>
            </trkpt>
            <trkpt lat="47.279891141" lon="4.821246921">
                <ele>501.457642</ele>
                <time>2015-05-25T14:35:14Z</time>
            </trkpt>
            <trkpt lat="47.279776154" lon="4.821101063">
                <ele>502.744049</ele>
                <time>2015-05-25T14:35:30Z</time>
            </trkpt>
            <trkpt lat="47.279683112" lon="4.820981022">
                <ele>503.629761</ele>
            </trkpt>
            <trkpt lat="47.279590425" lon="4.820844467">
                <ele>504.085175</ele>
                <time>2015-05-25T14:35:46Z</time>
            </trkpt>
            <trkpt lat="47.279487032" lon="4.820682618">
                <ele>505.176636</ele>
                <time>2015-05-25T14:36:04Z</time>
            </trkpt>
            <trkpt lat="47.279366071" lon="4.820553017">
                <ele>505.550049</ele>
                <time>2015-05-25T14:36:22Z</time>
            </trkpt>
            <trkpt lat="47.279243511" lon="4.820497731">
                <ele>506.752258</ele>
                <time>2015-05-25T14:36:43Z</time>
            </trkpt>
            <trkpt lat="47.279138341" lon="4.820418457">
                <ele>507.448242</ele>
                <time>2015-05-25T14:37:02Z</time>
            </trkpt>
            <trkpt lat="47.279034593" lon="4.820273125">
                <ele>507.740723</ele>
                <time>2015-05-25T14:37:05Z</time>
            </trkpt>
            <trkpt lat="47.279072215" lon="4.820093030">
                <ele>505.708740</ele>
                <time>2015-05-25T14:37:23Z</time>
            </trkpt>
            <trkpt lat="47.279143377" lon="4.819922758">
                <ele>502.577515</ele>
                <time>2015-05-25T14:37:33Z</time>
            </trkpt>
            <trkpt lat="47.279180111" lon="4.819783949">
                <ele>499.852509</ele>
                <time>2015-05-25T14:37:41Z</time>
            </trkpt>
            <trkpt lat="47.279216845" lon="4.819645141">
                <ele>497.127502</ele>
                <time>2015-05-25T14:37:49Z</time>
            </trkpt>
            <trkpt lat="47.279276945" lon="4.819466088">
                <ele>493.377502</ele>
                <time>2015-05-25T14:38:00Z</time>
            </trkpt>
            <trkpt lat="47.279319653" lon="4.819311025">
                <ele>490.440002</ele>
                <time>2015-05-25T14:38:14Z</time>
            </trkpt>
            <trkpt lat="47.279362361" lon="4.819155962">
                <ele>487.910004</ele>
                <time>2015-05-25T14:38:25Z</time>
            </trkpt>
            <trkpt lat="47.279427369" lon="4.819010199">
                <ele>485.165009</ele>
                <time>2015-05-25T14:38:36Z</time>
            </trkpt>
            <trkpt lat="47.279515919" lon="4.818815934">
                <ele>481.434998</ele>
                <time>2015-05-25T14:38:48Z</time>
            </trkpt>
            <trkpt lat="47.279614288" lon="4.818688250">
                <ele>478.364990</ele>
                <time>2015-05-25T14:38:49Z</time>
            </trkpt>
            <trkpt lat="47.279701772" lon="4.818543528">
                <ele>475.234985</ele>
                <time>2015-05-25T14:39:02Z</time>
            </trkpt>
            <trkpt lat="47.279817531" lon="4.818391853">
                <ele>471.674072</ele>
                <time>2015-05-25T14:39:13Z</time>
            </trkpt>
            <trkpt lat="47.279905548" lon="4.818222358">
                <ele>468.599487</ele>
                <time>2015-05-25T14:39:25Z</time>
            </trkpt>
            <trkpt lat="47.279981793" lon="4.818077114">
                <ele>466.086060</ele>
                <time>2015-05-25T14:39:39Z</time>
            </trkpt>
            <trkpt lat="47.280074896" lon="4.817932652">
                <ele>463.208099</ele>
                <time>2015-05-25T14:39:54Z</time>
            </trkpt>
            <trkpt lat="47.280173619" lon="4.817788449">
                <ele>460.127655</ele>
                <time>2015-05-25T14:40:06Z</time>
            </trkpt>
            <trkpt lat="47.280244954" lon="4.817609913">
                <ele>456.835327</ele>
                <time>2015-05-25T14:40:17Z</time>
            </trkpt>
            <trkpt lat="47.280309428" lon="4.817488918">
                <ele>454.185272</ele>
                <time>2015-05-25T14:40:27Z</time>
            </trkpt>
            <trkpt lat="47.280387091" lon="4.817277612">
                <ele>449.851929</ele>
                <time>2015-05-25T14:40:40Z</time>
            </trkpt>
            <trkpt lat="47.280225903" lon="4.817187478">
                <ele>450.806213</ele>
                <time>2015-05-25T14:40:44Z</time>
            </trkpt>
            <trkpt lat="47.280137767" lon="4.817100734">
                <ele>450.535583</ele>
                <time>2015-05-25T14:40:59Z</time>
            </trkpt>
            <trkpt lat="47.280026799" lon="4.817029462">
                <ele>450.774170</ele>
                <time>2015-05-25T14:41:16Z</time>
            </trkpt>
            <trkpt lat="47.279932866" lon="4.816950714">
                <ele>450.628754</ele>
                <time>2015-05-25T14:41:22Z</time>
            </trkpt>
            <trkpt lat="47.279822784" lon="4.816838156">
                <ele>450.019562</ele>
                <time>2015-05-25T14:41:28Z</time>
            </trkpt>
            <trkpt lat="47.279739912" lon="4.816768188">
                <ele>450.189819</ele>
                <time>2015-05-25T14:41:44Z</time>
            </trkpt>
            <trkpt lat="47.279607176" lon="4.816662845">
                <ele>450.852478</ele>
                <time>2015-05-25T14:41:54Z</time>
            </trkpt>
            <trkpt lat="47.279658057" lon="4.816520596">
                <ele>447.536865</ele>
                <time>2015-05-25T14:41:58Z</time>
            </trkpt>
            <trkpt lat="47.279721036" lon="4.816337500">
                <ele>443.378632</ele>
                <time>2015-05-25T14:42:09Z</time>
            </trkpt>
            <trkpt lat="47.279774447" lon="4.816207727">
                <ele>440.303040</ele>
                <time>2015-05-25T14:42:16Z</time>
            </trkpt>
            <trkpt lat="47.279833832" lon="4.816061698">
                <ele>436.968750</ele>
                <time>2015-05-25T14:42:27Z</time>
            </trkpt>
            <trkpt lat="47.279910074" lon="4.815916451">
                <ele>433.177490</ele>
                <time>2015-05-25T14:42:48Z</time>
            </trkpt>
            <trkpt lat="47.279981229" lon="4.815746171">
                <ele>428.776123</ele>
                <time>2015-05-25T14:42:57Z</time>
            </trkpt>
            <trkpt lat="47.280034817" lon="4.815608138">
                <ele>425.138824</ele>
                <time>2015-05-25T14:43:06Z</time>
            </trkpt>
            <trkpt lat="47.280094910" lon="4.815429079">
                <ele>420.451874</ele>
                <time>2015-05-25T14:43:16Z</time>
            </trkpt>
            <trkpt lat="47.280166064" lon="4.815258797">
                <ele>419.450256</ele>
                <time>2015-05-25T14:43:25Z</time>
            </trkpt>
            <trkpt lat="47.280231953" lon="4.815071740">
                <ele>418.834625</ele>
                <time>2015-05-25T14:43:37Z</time>
            </trkpt>
            <trkpt lat="47.280361907" lon="4.815044699">
                <ele>416.164063</ele>
                <time>2015-05-25T14:43:51Z</time>
            </trkpt>
            <trkpt lat="47.280486242" lon="4.815017398">
                <ele>413.339996</ele>
                <time>2015-05-25T14:44:03Z</time>
            </trkpt>
            <trkpt lat="47.280604603" lon="4.815006351">
                <ele>410.546234</ele>
                <time>2015-05-25T14:44:05Z</time>
            </trkpt>
            <trkpt lat="47.280762300" lon="4.814997127">
                <ele>406.860687</ele>
                <time>2015-05-25T14:44:18Z</time>
            </trkpt>
            <trkpt lat="47.280915086" lon="4.814954613">
                <ele>404.569550</ele>
                <time>2015-05-25T14:44:26Z</time>
            </trkpt>
            <trkpt lat="47.281051368" lon="4.814894801">
                <ele>401.658447</ele>
                <time>2015-05-25T14:44:32Z</time>
            </trkpt>
            <trkpt lat="47.281188713" lon="4.814785444">
                <ele>397.272430</ele>
                <time>2015-05-25T14:44:34Z</time>
            </trkpt>
            <trkpt lat="47.281297430" lon="4.814699557">
                <ele>397.193268</ele>
                <time>2015-05-25T14:44:45Z</time>
            </trkpt>
            <trkpt lat="47.281417386" lon="4.814614190">
                <ele>396.280304</ele>
                <time>2015-05-25T14:44:57Z</time>
            </trkpt>
            <trkpt lat="47.281542961" lon="4.814529084">
                <ele>394.219543</ele>
                <time>2015-05-25T14:45:09Z</time>
            </trkpt>
            <trkpt lat="47.281680483" lon="4.814411467">
                <ele>390.566559</ele>
                <time>2015-05-25T14:45:24Z</time>
            </trkpt>
            <trkpt lat="47.281778669" lon="4.814292027">
                <ele>387.799072</ele>
                <time>2015-05-25T14:45:41Z</time>
            </trkpt>
            <trkpt lat="47.281864731" lon="4.814213354">
                <ele>385.350952</ele>
                <time>2015-05-25T14:45:54Z</time>
            </trkpt>
            <trkpt lat="47.281996457" lon="4.814103733">
                <ele>383.346680</ele>
                <time>2015-05-25T14:46:09Z</time>
            </trkpt>
            <trkpt lat="47.282117120" lon="4.813985333">
                <ele>381.745331</ele>
                <time>2015-05-25T14:46:23Z</time>
            </trkpt>
            <trkpt lat="47.282220749" lon="4.813874409">
                <ele>380.424377</ele>
                <time>2015-05-25T14:46:39Z</time>
            </trkpt>
            <trkpt lat="47.282357916" lon="4.813773305">
                <ele>377.484985</ele>
                <time>2015-05-25T14:46:53Z</time>
            </trkpt>
            <trkpt lat="47.282507030" lon="4.813639689">
                <ele>372.151733</ele>
            </trkpt>
            <trkpt lat="47.282638932" lon="4.813521807">
                <ele>368.107513</ele>
                <time>2015-05-25T14:47:09Z</time>
            </trkpt>
            <trkpt lat="47.282753622" lon="4.813419660">
                <ele>368.085236</ele>
                <time>2015-05-25T14:47:23Z</time>
            </trkpt>
            <trkpt lat="47.282873930" lon="4.813317772">
                <ele>367.023865</ele>
                <time>2015-05-25T14:47:39Z</time>
            </trkpt>
            <trkpt lat="47.283016362" lon="4.813233441">
                <ele>364.810364</ele>
                <time>2015-05-25T14:47:51Z</time>
            </trkpt>
            <trkpt lat="47.283170564" lon="4.813124856">
                <ele>361.445496</ele>
                <time>2015-05-25T14:48:05Z</time>
            </trkpt>
            <trkpt lat="47.283341447" lon="4.813025309">
                <ele>357.055756</ele>
            </trkpt>
            <trkpt lat="47.283472640" lon="4.812940455">
                <ele>352.862488</ele>
                <time>2015-05-25T14:48:20Z</time>
            </trkpt>
            <trkpt lat="47.283603124" lon="4.812888634">
                <ele>351.195190</ele>
                <time>2015-05-25T14:48:36Z</time>
            </trkpt>
            <trkpt lat="47.283744494" lon="4.812853849">
                <ele>350.332947</ele>
                <time>2015-05-25T14:48:51Z</time>
            </trkpt>
            <trkpt lat="47.283896394" lon="4.812852616">
                <ele>349.017303</ele>
            </trkpt>
            <trkpt lat="47.284069886" lon="4.812893714">
                <ele>346.317749</ele>
                <time>2015-05-25T14:49:06Z</time>
            </trkpt>
            <trkpt lat="47.284215989" lon="4.812900479">
                <ele>344.394165</ele>
                <time>2015-05-25T14:49:12Z</time>
            </trkpt>
            <trkpt lat="47.284367712" lon="4.812907504">
                <ele>342.381775</ele>
                <time>2015-05-25T14:49:29Z</time>
            </trkpt>
            <trkpt lat="47.284548239" lon="4.812882798">
                <ele>341.518158</ele>
                <time>2015-05-25T14:49:44Z</time>
            </trkpt>
            <trkpt lat="47.284718768" lon="4.812799764">
                <ele>340.925262</ele>
                <time>2015-05-25T14:50:00Z</time>
            </trkpt>
            <trkpt lat="47.284889473" lon="4.812708471">
                <ele>339.715790</ele>
            </trkpt>
            <trkpt lat="47.285043143" lon="4.812624655">
                <ele>338.674683</ele>
                <time>2015-05-25T14:50:17Z</time>
            </trkpt>
            <trkpt lat="47.285168185" lon="4.812564313">
                <ele>336.897644</ele>
            </trkpt>
            <trkpt lat="47.285327298" lon="4.812489015">
                <ele>333.677032</ele>
                <time>2015-05-25T14:50:34Z</time>
            </trkpt>
            <trkpt lat="47.285447074" lon="4.812411895">
                <ele>330.888763</ele>
                <time>2015-05-25T14:50:48Z</time>
            </trkpt>
            <trkpt lat="47.285561940" lon="4.812301482">
                <ele>328.790253</ele>
                <time>2015-05-25T14:51:04Z</time>
            </trkpt>
            <trkpt lat="47.285681717" lon="4.812224362">
                <ele>327.617249</ele>
                <time>2015-05-25T14:51:17Z</time>
            </trkpt>
            <trkpt lat="47.285806935" lon="4.812155759">
                <ele>325.984070</ele>
                <time>2015-05-25T14:51:32Z</time>
            </trkpt>
            <trkpt lat="47.285943570" lon="4.812079419">
                <ele>324.646576</ele>
                <time>2015-05-25T14:51:47Z</time>
            </trkpt>
            <trkpt lat="47.286046665" lon="4.811993259">
                <ele>322.919373</ele>
                <time>2015-05-25T14:51:53Z</time>
            </trkpt>
            <trkpt lat="47.286183477" lon="4.811908659">
                <ele>320.034363</ele>
                <time>2015-05-25T14:52:03Z</time>
            </trkpt>
            <trkpt lat="47.286326085" lon="4.811816060">
                <ele>316.755646</ele>
            </trkpt>
            <trkpt lat="47.286486081" lon="4.811699466">
                <ele>313.468658</ele>
                <time>2015-05-25T14:52:21Z</time>
            </trkpt>
            <trkpt lat="47.286605504" lon="4.811638860">
                <ele>312.247040</ele>
                <time>2015-05-25T14:52:31Z</time>
            </trkpt>
            <trkpt lat="47.286736165" lon="4.811578773">
                <ele>310.407410</ele>
                <time>2015-05-25T14:52:51Z</time>
            </trkpt>
            <trkpt lat="47.286872445" lon="4.811518947">
                <ele>308.357788</ele>
                <time>2015-05-25T14:53:03Z</time>
            </trkpt>
            <trkpt lat="47.286991159" lon="4.811491374">
                <ele>306.202667</ele>
                <time>2015-05-25T14:53:16Z</time>
            </trkpt>
            <trkpt lat="47.287104077" lon="4.811471800">
                <ele>303.966034</ele>
                <time>2015-05-25T14:53:17Z</time>
            </trkpt>
            <trkpt lat="47.287228942" lon="4.811419711">
                <ele>301.506561</ele>
                <time>2015-05-25T14:53:18Z</time>
            </trkpt>
            <trkpt lat="47.287392434" lon="4.811402477">
                <ele>298.332855</ele>
                <time>2015-05-25T14:53:34Z</time>
            </trkpt>
            <trkpt lat="47.287521502" lon="4.811416717">
                <ele>295.914246</ele>
                <time>2015-05-25T14:53:37Z</time>
            </trkpt>
            <trkpt lat="47.287678313" lon="4.811448774">
                <ele>293.131134</ele>
                <time>2015-05-25T14:53:51Z</time>
            </trkpt>
            <trkpt lat="47.287807205" lon="4.811471273">
                <ele>290.846008</ele>
                <time>2015-05-25T14:54:08Z</time>
            </trkpt>
            <trkpt lat="47.287928884" lon="4.811567840">
                <ele>288.698944</ele>
                <time>2015-05-25T14:54:10Z</time>
            </trkpt>
            <trkpt lat="47.288021759" lon="4.811696142">
                <ele>286.980011</ele>
                <time>2015-05-25T14:54:18Z</time>
            </trkpt>
            <trkpt lat="47.288078439" lon="4.811938505">
                <ele>287.110718</ele>
                <time>2015-05-25T14:54:34Z</time>
            </trkpt>
            <trkpt lat="47.288095961" lon="4.812170790">
                <ele>288.076904</ele>
                <time>2015-05-25T14:54:44Z</time>
            </trkpt>
            <trkpt lat="47.288134340" lon="4.812418744">
                <ele>288.707855</ele>
                <time>2015-05-25T14:55:00Z</time>
            </trkpt>
            <trkpt lat="47.288253258" lon="4.812442613">
                <ele>286.983643</ele>
                <time>2015-05-25T14:55:04Z</time>
            </trkpt>
            <trkpt lat="47.288337902" lon="4.812429998">
                <ele>285.641602</ele>
                <time>2015-05-25T14:55:06Z</time>
            </trkpt>
            <trkpt lat="47.288445812" lon="4.812403154">
                <ele>284.003540</ele>
                <time>2015-05-25T14:55:25Z</time>
            </trkpt>
            <trkpt lat="47.288554224" lon="4.812572285">
                <ele>283.913239</ele>
                <time>2015-05-25T14:55:27Z</time>
            </trkpt>
            <trkpt lat="47.288614267" lon="4.812657735">
                <ele>283.991760</ele>
            </trkpt>
            <trkpt lat="47.288750679" lon="4.812854193">
                <ele>283.702515</ele>
                <time>2015-05-25T14:55:49Z</time>
            </trkpt>
            <trkpt lat="47.288876383" lon="4.813025354">
                <ele>282.746246</ele>
            </trkpt>
            <trkpt lat="47.289007883" lon="4.813188518">
                <ele>282.319733</ele>
                <time>2015-05-25T14:56:12Z</time>
            </trkpt>
            <trkpt lat="47.289139205" lon="4.813359941">
                <ele>282.827240</ele>
                <time>2015-05-25T14:56:26Z</time>
            </trkpt>
            <trkpt lat="47.289257934" lon="4.813535633">
                <ele>282.921814</ele>
                <time>2015-05-25T14:56:47Z</time>
            </trkpt>
            <trkpt lat="47.289414341" lon="4.813713078">
                <ele>282.829346</ele>
                <time>2015-05-25T14:57:02Z</time>
            </trkpt>
            <trkpt lat="47.289577033" lon="4.813910807">
                <ele>283.369446</ele>
                <time>2015-05-25T14:57:16Z</time>
            </trkpt>
            <trkpt lat="47.289768057" lon="4.814139381">
                <ele>284.002686</ele>
                <time>2015-05-25T14:57:35Z</time>
            </trkpt>
            <trkpt lat="47.289953549" lon="4.814367956">
                <ele>283.892517</ele>
                <time>2015-05-25T14:57:52Z</time>
            </trkpt>
            <trkpt lat="47.290148260" lon="4.814607594">
                <ele>283.278137</ele>
                <time>2015-05-25T14:58:10Z</time>
            </trkpt>
            <trkpt lat="47.290335512" lon="4.814846814">
                <ele>283.915741</ele>
                <time>2015-05-25T14:58:28Z</time>
            </trkpt>
            <trkpt lat="47.290448165" lon="4.814987546">
                <ele>283.943237</ele>
                <time>2015-05-25T14:58:40Z</time>
            </trkpt>
            <trkpt lat="47.290628543" lon="4.815198686">
                <ele>283.037292</ele>
                <time>2015-05-25T14:58:55Z</time>
            </trkpt>
            <trkpt lat="47.290782845" lon="4.815403695">
                <ele>284.419006</ele>
                <time>2015-05-25T14:59:09Z</time>
            </trkpt>
            <trkpt lat="47.290951917" lon="4.815607136">
                <ele>284.700104</ele>
                <time>2015-05-25T14:59:26Z</time>
            </trkpt>
            <trkpt lat="47.291051812" lon="4.815713788">
                <ele>284.018677</ele>
            </trkpt>
            <trkpt lat="47.291128178" lon="4.815824805">
                <ele>283.831726</ele>
                <time>2015-05-25T14:59:39Z</time>
            </trkpt>
            <trkpt lat="47.291221144" lon="4.815936545">
                <ele>283.590515</ele>
                <time>2015-05-25T14:59:54Z</time>
            </trkpt>
            <trkpt lat="47.291376376" lon="4.816112900">
                <ele>283.289001</ele>
                <time>2015-05-25T15:00:08Z</time>
            </trkpt>
            <trkpt lat="47.291515349" lon="4.816273665">
                <ele>281.128540</ele>
                <time>2015-05-25T15:00:22Z</time>
            </trkpt>
        </trkseg>
    </trk>
</gpx>
